[[{"header":{"parameterUnit":"m.s-1","parameterCategory":1,"la1":30.6,"la2":29.2853,"lo1":-89.7004,"lo2":-87.6739,"dy":0.0162,"dx":0.0183,"nx":112,"ny":82,"refTime":"2024-07-12T00:00:00:Z","depth":0,"parameterNumber":2,"parameterNumberName":"U-component_of_WINDS"},"data":[0.0,0.0,0.0,0.0,0.0,0.0,0.0,0.0,0.0,0.0,0.0,0.0,0.0,0.0,0.0,0.0,0.0,0.0,0.0,0.0,0.0,0.0,0.0,0.0,0.0,0.0,0.0,0.0,0.0,0.0,0.0,0.0,0.0,0.0,0.0,0.0,0.0,0.0,0.0,0.0,0.0,0.0,0.0,0.0,0.0,0.0,0.0,0.0,0.0,0.0,0.0,0.0,0.0,0.0,0.0,0.0,0.0,0.0,0.0,0.0,0.0,0.0,0.0,0.0,0.0,0.0,0.0,0.0,0.0,0.0,0.0,0.0,0.0,0.0,0.0,0.0,0.0,0.0,0.0,0.0,0.0,0.0,0.0,0.0,0.0,0.0,0.0,0.0,0.0,0.0,0.0,-0.7214,-0.8203,-0.8804,-0.8804,-0.8804,-0.8297,-0.7058,0.0,0.0,0.0,0.0,0.0,0.0,0.0,0.0,0.0,0.0,0.0,0.0,0.0,0.0,0.0,0.0,0.0,0.0,0.0,0.0,0.0,0.0,0.0,0.0,0.0,0.0,0.0,0.0,0.0,0.0,0.0,0.0,0.0,0.0,0.0,0.0,0.0,0.0,0.0,0.0,0.0,0.0,0.0,0.0,0.0,0.0,0.0,0.0,0.0,0.0,0.0,0.0,0.0,0.0,0.0,0.0,0.0,0.0,0.0,0.0,0.0,0.0,0.0,0.0,0.0,0.0,0.0,0.0,0.0,0.0,0.0,0.0,0.0,0.0,0.0,0.0,0.0,0.0,0.0,0.0,0.0,0.0,0.0,0.0,0.0,0.0,0.0,0.0,0.0,0.0,0.0,0.0,0.0,0.0,0.0,0.0,0.0,0.0,0.0,0.0,0.0,0.0,0.0,0.0,-0.6807,-0.8363,-0.8697,-0.8804,-0.8804,-0.8804,-0.8297,-0.7058,0.0,0.0,0.0,0.0,0.0,0.0,0.0,0.0,0.0,0.0,0.0,0.0,0.0,0.0,0.0,0.0,0.0,0.0,0.0,0.0,0.0,0.0,0.0,0.0,0.0,0.0,0.0,0.0,0.0,0.0,0.0,0.0,0.0,0.0,0.0,0.0,0.0,0.0,0.0,0.0,0.0,0.0,0.0,0.0,0.0,0.0,0.0,0.0,0.0,0.0,0.0,0.0,0.0,0.0,0.0,0.0,0.0,0.0,0.0,0.0,0.0,0.0,0.0,0.0,0.0,0.0,0.0,0.0,0.0,0.0,0.0,0.0,0.0,0.0,0.0,0.0,0.0,0.0,0.0,0.0,0.0,0.0,0.0,0.0,0.0,0.0,0.0,0.0,0.0,0.0,0.0,0.0,0.0,0.0,0.0,0.0,0.0,0.0,0.0,0.0,0.0,0.0,0.0,-0.6373,-0.7188,-0.8651,-0.8804,-0.8804,-0.8804,-0.8804,-0.8297,-0.7058,-0.648,0.0,0.0,0.0,0.0,0.0,0.0,0.0,0.0,0.0,0.0,0.0,0.0,0.0,0.0,0.0,0.0,0.0,0.0,0.0,0.0,0.0,0.0,0.0,0.0,0.0,0.0,0.0,0.0,0.0,0.0,0.0,0.0,0.0,0.0,0.0,0.0,0.0,0.0,0.0,0.0,0.0,0.0,0.0,0.0,0.0,0.0,0.0,0.0,0.0,0.0,0.0,0.0,0.0,0.0,0.0,0.0,0.0,0.0,0.0,0.0,0.0,0.0,0.0,0.0,0.0,0.0,0.0,0.0,0.0,0.0,0.0,0.0,0.0,0.0,0.0,0.0,0.0,0.0,0.0,0.0,0.0,0.0,0.0,0.0,0.0,0.0,0.0,0.0,0.0,0.0,0.0,0.0,0.0,0.0,0.0,0.0,0.0,0.0,0.0,0.0,0.0,0.0,-0.7061,-0.7642,-0.8697,-0.8804,-0.8804,-0.8804,-0.8677,-0.815,-0.7088,-0.6346,0.0,0.0,0.0,0.0,0.0,0.0,0.0,0.0,0.0,0.0,0.0,0.0,0.0,0.0,0.0,0.0,0.0,0.0,0.0,0.0,0.0,0.0,0.0,0.0,0.0,0.0,0.0,0.0,0.0,0.0,0.0,0.0,0.0,0.0,0.0,0.0,0.0,0.0,0.0,0.0,0.0,0.0,0.0,0.0,0.0,0.0,0.0,0.0,0.0,0.0,0.0,0.0,0.0,0.0,0.0,0.0,0.0,0.0,0.0,0.0,0.0,0.0,0.0,0.0,0.0,0.0,0.0,0.0,0.0,0.0,0.0,0.0,0.0,0.0,0.0,0.0,0.0,0.0,0.0,0.0,0.0,0.0,0.0,0.0,0.0,0.0,0.0,0.0,0.0,0.0,0.0,0.0,0.0,0.0,0.0,0.0,0.0,0.0,0.0,0.0,0.0,0.0,-0.7181,-0.8061,-0.8744,-0.8804,-0.8804,-0.8804,-0.831,-0.7669,-0.7061,-0.5965,0.0,0.0,0.0,0.0,0.0,0.0,0.0,0.0,0.0,0.0,0.0,0.0,0.0,0.0,0.0,0.0,0.0,0.0,0.0,0.0,0.0,0.0,0.0,0.0,0.0,0.0,0.0,0.0,0.0,0.0,0.0,0.0,0.0,0.0,0.0,0.0,0.0,0.0,0.0,0.0,0.0,0.0,0.0,0.0,0.0,0.0,0.0,0.0,0.0,0.0,0.0,0.0,0.0,0.0,0.0,0.0,0.0,0.0,0.0,0.0,0.0,0.0,0.0,0.0,0.0,0.0,0.0,0.0,0.0,0.0,0.0,0.0,0.0,0.0,0.0,0.0,0.0,0.0,0.0,0.0,0.0,0.0,0.0,0.0,0.0,0.0,0.0,0.0,0.0,0.0,0.0,0.0,0.0,0.0,0.0,0.0,0.0,0.0,0.0,0.0,0.0,0.0,-0.707,-0.7936,0.0,-0.8804,-0.8804,-0.8804,-0.8604,-0.7983,-0.6827,0.0,0.0,0.0,0.0,0.0,0.0,0.0,0.0,0.0,0.0,0.0,0.0,0.0,0.0,0.0,0.0,0.0,0.0,0.0,0.0,0.0,0.0,0.0,0.0,0.0,0.0,0.0,0.0,0.0,0.0,0.0,0.0,0.0,0.0,0.0,0.0,0.0,0.0,0.0,0.0,0.0,0.0,0.0,0.0,0.0,0.0,0.0,0.0,0.0,0.0,0.0,0.0,0.0,0.0,0.0,0.0,0.0,0.0,0.0,0.0,0.0,0.0,0.0,0.0,0.0,0.0,0.0,0.0,0.0,0.0,0.0,0.0,0.0,0.0,0.0,0.0,0.0,0.0,0.0,0.0,0.0,0.0,0.0,0.0,0.0,0.0,0.0,0.0,0.0,0.0,0.0,0.0,0.0,0.0,0.0,0.0,0.0,0.0,0.0,0.0,0.0,0.0,-0.6102,-0.7137,-0.8023,0.0,-0.8804,-0.8804,-0.8804,-0.8544,-0.7869,-0.6667,0.0,0.0,0.0,0.0,0.0,0.0,0.0,0.0,0.0,0.0,0.0,0.0,0.0,0.0,0.0,0.0,0.0,0.0,0.0,0.0,0.0,0.0,0.0,0.0,0.0,0.0,0.0,0.0,0.0,0.0,0.0,0.0,0.0,0.0,0.0,0.0,0.0,0.0,0.0,0.0,0.0,0.0,0.0,0.0,0.0,0.0,0.0,0.0,0.0,0.0,0.0,0.0,0.0,0.0,0.0,0.0,0.0,0.0,0.0,0.0,0.0,0.0,0.0,0.0,0.0,0.0,0.0,0.0,0.0,0.0,0.0,0.0,0.0,0.0,0.0,0.0,0.0,0.0,0.0,0.0,0.0,0.0,0.0,0.0,0.0,0.0,0.0,0.0,0.0,0.0,0.0,0.0,0.0,0.0,0.0,0.0,0.0,0.0,0.0,0.0,0.0,0.0,-0.6162,-0.7506,-0.849,-0.8778,-0.8804,-0.8804,-0.8804,-0.7989,-0.7271,0.0,0.0,0.0,0.0,0.0,0.0,0.0,0.0,0.0,0.0,0.0,0.0,0.0,0.0,0.0,0.0,0.0,0.0,0.0,0.0,0.0,0.0,0.0,0.0,0.0,0.0,0.0,0.0,0.0,0.0,0.0,0.0,0.0,0.0,0.0,0.0,0.0,0.0,0.0,0.0,0.0,0.0,0.0,0.0,0.0,0.0,0.0,0.0,0.0,0.0,0.0,0.0,0.0,0.0,0.0,0.0,0.0,0.0,0.0,0.0,0.0,0.0,0.0,0.0,0.0,0.0,0.0,0.0,0.0,0.0,0.0,0.0,0.0,0.0,0.0,0.0,0.0,0.0,0.0,0.0,0.0,0.0,0.0,0.0,0.0,0.0,0.0,0.0,0.0,0.0,0.0,0.0,0.0,0.0,0.0,0.0,0.0,0.0,0.0,0.0,0.0,0.0,0.0,-0.6465,-0.7762,-0.8711,-0.8798,-0.8804,-0.8804,-0.8804,-0.8564,-0.7889,-0.6667,0.0,0.0,0.0,0.0,0.0,0.0,0.0,0.0,0.0,0.0,0.0,0.0,0.0,0.0,0.0,0.0,0.0,0.0,0.0,0.0,0.0,0.0,0.0,0.0,0.0,0.0,0.0,0.0,0.0,0.0,0.0,0.0,0.0,0.0,0.0,0.0,0.0,0.0,0.0,0.0,0.0,0.0,0.0,0.0,0.0,0.0,0.0,0.0,0.0,0.0,0.0,0.0,0.0,0.0,0.0,0.0,0.0,0.0,0.0,0.0,0.0,0.0,0.0,0.0,0.0,0.0,0.0,0.0,0.0,0.0,0.0,0.0,0.0,0.0,0.0,0.0,0.0,0.0,0.0,0.0,0.0,0.0,0.0,0.0,0.0,0.0,0.0,0.0,0.0,0.0,0.0,0.0,0.0,0.0,0.0,0.0,0.0,0.0,0.0,0.0,0.0,0.0,-0.6553,-0.7889,-0.8804,-0.8804,-0.8804,-0.8804,-0.8804,-0.8704,-0.8096,-0.684,0.0,0.0,0.0,0.0,0.0,0.0,0.0,0.0,0.0,0.0,0.0,0.0,0.0,0.0,0.0,0.0,0.0,0.0,0.0,0.0,0.0,0.0,0.0,0.0,0.0,0.0,0.0,0.0,0.0,0.0,0.0,0.0,0.0,0.0,0.0,0.0,0.0,0.0,0.0,0.0,0.0,0.0,0.0,0.0,0.0,0.0,0.0,0.0,0.0,0.0,0.0,0.0,0.0,0.0,0.0,0.0,0.0,0.0,0.0,0.0,0.0,0.0,0.0,0.0,0.0,0.0,0.0,0.0,0.0,0.0,0.0,0.0,0.0,0.0,0.0,0.0,0.0,0.0,0.0,0.0,0.0,0.0,0.0,0.0,0.0,0.0,0.0,0.0,0.0,0.0,0.0,0.0,0.0,0.0,0.0,0.0,0.0,0.0,0.0,0.0,0.0,0.0,-0.6587,-0.7903,-0.8804,-0.8804,-0.8804,-0.8804,-0.8804,-0.8564,-0.8043,-0.7161,0.0,0.0,0.0,0.0,0.0,0.0,0.0,0.0,0.0,0.0,0.0,0.0,0.0,0.0,0.0,0.0,0.0,0.0,0.0,0.0,0.0,0.0,0.0,0.0,0.0,0.0,0.0,0.0,0.0,0.0,0.0,0.0,0.0,0.0,0.0,0.0,0.0,0.0,0.0,0.0,0.0,0.0,0.0,0.0,0.0,0.0,0.0,0.0,0.0,0.0,0.0,0.0,0.0,0.0,0.0,0.0,0.0,0.0,0.0,0.0,-0.5932,0.0,0.0,0.0,0.0,0.0,0.0,0.0,0.0,0.0,0.0,0.0,0.0,0.0,0.0,0.0,0.0,0.0,0.0,0.0,0.0,0.0,0.0,0.0,0.0,0.0,0.0,0.0,0.0,0.0,0.0,0.0,0.0,0.0,0.0,0.0,0.0,0.0,0.0,0.0,0.0,0.0,-0.686,-0.8029,-0.8804,-0.8804,-0.8804,-0.8804,-0.8804,-0.8751,-0.8437,-0.7729,-0.668,0.0,0.0,0.0,0.0,0.0,0.0,0.0,0.0,0.0,0.0,0.0,0.0,0.0,0.0,0.0,0.0,0.0,0.0,0.0,0.0,0.0,0.0,0.0,0.0,0.0,0.0,0.0,0.0,0.0,0.0,0.0,0.0,0.0,0.0,0.0,0.0,0.0,0.0,0.0,0.0,0.0,0.0,0.0,0.0,0.0,0.0,0.0,0.0,0.0,0.0,0.0,0.0,0.0,0.0,0.0,0.0,0.0,0.0,0.0,0.0,-0.656,0.0,0.0,0.0,0.0,0.0,0.0,0.0,0.0,0.0,0.0,0.0,0.0,0.0,0.0,0.0,0.0,0.0,0.0,0.0,0.0,0.0,0.0,0.0,0.0,0.0,0.0,0.0,0.0,0.0,0.0,0.0,0.0,0.0,0.0,0.0,0.0,0.0,0.0,0.0,0.0,-0.7161,-0.8156,-0.8804,-0.8804,-0.8804,-0.8804,-0.8804,-0.8804,-0.8617,-0.817,-0.7288,0.0,0.0,0.0,0.0,0.0,0.0,0.0,0.0,0.0,0.0,0.0,0.0,0.0,0.0,0.0,0.0,0.0,0.0,0.0,0.0,0.0,0.0,0.0,0.0,0.0,0.0,0.0,0.0,0.0,0.0,0.0,0.0,0.0,0.0,0.0,0.0,0.0,0.0,0.0,0.0,0.0,0.0,0.0,0.0,0.0,0.0,0.0,0.0,0.0,0.0,0.0,0.0,0.0,-1.0902,-1.0448,-1.0598,-0.9659,-0.9385,-0.9526,-0.821,-0.7956,-0.8397,-0.7395,0.0,0.0,0.0,0.0,0.0,0.0,0.0,0.0,0.0,0.0,0.0,0.0,0.0,0.0,0.0,0.0,0.0,0.0,0.0,0.0,0.0,0.0,0.0,0.0,-0.8791,-0.8851,0.0,0.0,0.0,0.0,0.0,0.0,0.0,0.0,0.0,0.0,0.0,0.0,-0.7468,-0.8283,-0.8804,-0.8804,-0.8804,-0.8804,-0.8804,-0.8804,-0.8704,-0.8464,-0.7882,-0.724,0.0,0.0,0.0,0.0,0.0,0.0,0.0,0.0,0.0,0.0,0.0,0.0,0.0,0.0,0.0,0.0,0.0,0.0,0.0,0.0,0.0,0.0,0.0,0.0,0.0,0.0,0.0,0.0,0.0,0.0,0.0,0.0,-0.4834,-0.5418,0.0,0.0,0.0,0.0,0.0,0.0,0.0,0.0,0.0,0.0,0.0,0.0,0.0,-0.7702,-0.967,-1.0315,-1.0698,-1.0802,-1.161,-1.149,-1.0631,-1.0922,-1.0835,-1.0456,-1.0248,0.0,-0.9439,-0.8784,0.0,0.0,0.0,0.0,0.0,0.0,0.0,0.0,0.0,0.0,0.0,0.0,0.0,0.0,0.0,0.0,0.0,0.0,0.0,0.0,0.0,0.0,-0.9452,-0.9452,-0.9539,-0.9552,0.0,-0.8252,-0.7164,-0.6533,-0.625,0.0,0.0,0.0,0.0,0.0,0.0,0.0,-0.7789,-0.8417,-0.8804,-0.8804,-0.8804,-0.8804,-0.8804,-0.8804,-0.8791,-0.8751,-0.8196,-0.7789,-0.7663,-0.6361,0.0,0.0,0.0,0.0,0.0,0.0,0.0,0.0,0.0,0.0,0.0,0.0,0.0,0.0,0.0,0.0,0.0,0.0,0.0,0.0,0.0,0.0,0.0,0.0,0.0,0.0,0.0,0.0,0.0,-0.4748,-0.5484,-0.5912,-0.6139,-0.6192,0.0,0.0,0.0,0.0,0.0,0.0,0.0,0.0,0.0,-0.8353,-0.8444,-0.9492,-1.1516,-1.1543,-1.1543,-1.1543,-1.1724,-1.1717,-1.155,-1.1804,-1.1777,-1.1543,-1.1543,-1.1396,-1.1082,-1.0167,-0.9092,-0.7963,0.0,0.0,0.0,0.0,-0.5883,-0.6814,-0.9025,-0.9793,0.0,-0.9793,0.0,0.0,0.0,0.0,0.0,0.0,0.0,0.0,0.0,0.0,-1.0421,-1.0421,-1.0548,-1.0575,-1.0247,-0.9724,-0.8985,0.0,-0.7602,-0.719,-0.6346,0.0,0.0,0.0,0.0,-0.7702,-0.835,-0.8644,-0.8871,-0.9031,-0.8905,-0.8804,-0.8804,-0.8804,-0.8804,-0.8804,-0.8564,-0.835,-0.8183,-0.738,-0.6594,0.0,0.0,0.0,0.0,0.0,0.0,0.0,0.0,0.0,0.0,0.0,0.0,0.0,0.0,0.0,0.0,0.0,0.0,0.0,0.0,0.0,0.0,0.0,0.0,0.0,0.0,0.0,0.0,-0.5498,-0.6219,-0.6707,-0.7168,-0.7368,0.0,0.0,0.0,0.0,0.0,0.0,-0.8778,-0.9372,-0.982,-1.0114,-1.0127,-1.0828,-1.2285,-1.2305,-1.2452,-1.2752,-1.2318,-1.2331,-1.2759,-1.2759,-1.2759,-1.2759,-1.2759,-1.2759,-1.2665,-1.149,-1.0494,-0.9659,-0.9218,-0.8591,-0.7929,-0.7929,-0.8677,-0.9826,-1.0701,-1.1009,-1.1009,-1.1009,-1.0866,-1.0456,-0.9519,0.0,0.0,0.0,0.0,-0.9786,-1.0227,-1.0722,-1.1102,-1.1102,-1.1269,-1.1309,-1.0875,-1.0782,-1.0434,0.0,-0.8858,-0.8404,-0.7435,0.0,0.0,0.0,0.0,-0.84,-0.8965,-0.9031,-0.9085,-0.917,-0.9045,-0.8884,-0.8811,-0.8804,-0.8804,-0.8804,-0.8804,-0.8711,-0.849,-0.8203,-0.7564,-0.6533,0.0,0.0,0.0,0.0,0.0,0.0,0.0,0.0,0.0,0.0,0.0,0.0,0.0,0.0,0.0,0.0,0.0,0.0,0.0,0.0,0.0,0.0,0.0,0.0,0.0,0.0,0.0,0.0,0.0,-0.8156,-0.853,0.0,0.0,0.0,0.0,-0.8651,-0.8965,-0.9336,-0.9993,-1.0581,-1.0788,-1.0604,-1.1056,-1.165,-1.2291,-1.2305,-1.2872,-1.3995,-1.3968,-1.3968,-1.3995,-1.3995,-1.3995,-1.3995,-1.3995,-1.3995,-1.3908,-1.2705,-1.2178,-1.2124,-1.2091,-1.139,-1.0443,-1.0443,-1.1122,-1.2131,-1.2191,-1.2211,-1.2211,-1.2211,-1.1463,-1.0611,-1.0557,-1.0254,0.0,0.0,-1.0461,-1.0915,-1.0942,-1.1176,-1.1403,-1.1403,-1.1416,-1.1416,-1.139,-1.1383,-1.1035,0.0,-0.9626,-0.9506,-0.911,0.0,-0.907,-0.9057,-0.909,-0.9285,-0.9599,-0.9639,-0.9539,-0.9216,-0.917,-0.905,-0.8831,-0.8804,-0.8804,-0.8804,-0.8804,-0.8798,-0.8784,-0.851,-0.8056,-0.7435,-0.6238,0.0,0.0,0.0,0.0,0.0,0.0,0.0,0.0,0.0,0.0,0.0,0.0,0.0,0.0,0.0,0.0,0.0,0.0,0.0,0.0,0.0,0.0,0.0,0.0,0.0,0.0,0.0,0.0,-0.9092,-0.9472,0.0,-0.9831,-0.9686,-0.9706,-0.992,-1.0374,-1.0822,-1.1223,-1.1797,-1.2111,-1.2078,-1.2398,-1.2485,-1.2305,-1.3066,-1.3667,-1.4088,-1.4088,-1.4088,-1.4088,-1.4088,-1.4088,-1.4088,-1.4088,-1.4088,-1.4055,-1.3627,-1.3447,-1.3414,-1.3033,-1.2632,-1.2218,-1.183,-1.2191,-1.2939,-1.332,-1.3206,-1.2819,-1.2432,-1.1764,-1.1116,-1.1116,-1.1042,-1.0995,-1.1189,-1.1396,-1.1597,-1.1784,-1.1911,-1.1991,-1.1991,-1.1991,-1.1937,-1.175,-1.171,-1.153,-1.0922,-1.0501,-1.0094,-0.9606,-0.9526,-0.9459,-0.9216,-0.9406,-0.9633,-0.9927,-0.98,-0.9713,-0.9793,-0.9409,-0.9143,-0.9044,-0.8918,-0.8804,-0.8804,-0.8804,-0.8804,-0.8804,-0.8704,-0.8213,-0.7248,-0.6674,-0.5673,0.0,0.0,0.0,0.0,0.0,0.0,0.0,0.0,0.0,0.0,0.0,0.0,0.0,0.0,0.0,0.0,0.0,0.0,0.0,0.0,0.0,0.0,0.0,0.0,0.0,0.0,-0.8844,-0.9726,-1.0261,-1.0635,-1.0835,-1.0942,-1.1149,-1.135,-1.165,-1.2004,-1.2305,-1.2632,-1.2866,-1.3013,-1.2946,-1.2906,-1.2906,-1.3687,-1.4088,-1.4088,-1.4088,-1.4088,-1.4088,-1.4088,-1.4088,-1.4088,-1.4088,-1.4088,-1.4088,-1.4088,-1.4088,-1.4048,-1.3661,-1.3507,-1.346,-1.3053,-1.308,-1.3353,-1.3681,-1.3534,-1.3146,-1.2739,-1.2345,-1.2024,-1.2024,-1.2024,-1.2044,-1.2138,-1.2164,-1.2184,-1.2278,-1.2305,-1.2305,-1.2305,-1.2305,-1.2245,-1.2058,-1.2011,-1.1931,-1.163,-1.1182,-1.0695,-1.0214,-1.0127,-1.0027,-0.9733,-0.9853,-1.0047,-1.0241,-1.01,-1.0013,-1.0107,-0.9766,-0.9396,-0.9203,-0.9065,-0.8911,-0.8811,-0.8804,-0.8804,-0.8804,-0.8495,-0.7961,-0.7104,-0.6333,-0.5329,-0.4122,0.0,0.0,0.0,0.0,0.0,0.0,0.0,0.0,0.0,0.0,0.0,0.0,0.0,0.0,0.0,0.0,0.0,0.0,0.0,0.0,0.0,0.0,0.0,-0.7995,-0.8991,-0.9833,-1.0134,-1.0929,-1.1456,-1.1463,-1.1737,-1.2144,-1.2795,-1.2842,-1.2906,-1.3206,-1.3053,-1.3046,-1.3253,-1.2672,-1.2913,-1.4075,-1.4088,-1.4088,-1.4088,-1.4088,-1.4088,-1.4088,-1.4122,-1.4142,-1.4142,-1.4128,-1.4115,-1.4108,-1.4102,-1.4095,-1.4088,-1.4088,-1.4088,-1.4088,-1.4088,-1.3848,-1.3494,-1.3307,-1.3233,-1.3227,-1.3227,-1.322,-1.3213,-1.3213,-1.3213,-1.3146,-1.2923,-1.2835,-1.2768,-1.2392,-1.2318,-1.2311,-1.2305,-1.2305,-1.2305,-1.2305,-1.2305,-1.2218,-1.1937,-1.165,-1.1356,-1.1056,-1.1009,-1.0909,-1.0678,-1.0638,0.0,-1.0624,-1.0624,-1.0448,-1.016,-1.012,-0.988,-0.9243,-0.919,-0.9064,-0.8824,-0.8804,-0.8804,-0.8804,-0.8005,-0.7424,-0.7116,-0.5164,-0.414,-0.4004,0.0,0.0,0.0,0.0,0.0,0.0,0.0,0.0,0.0,0.0,0.0,0.0,0.0,0.0,0.0,0.0,0.0,0.0,0.0,0.0,0.0,0.0,-0.9606,-0.9526,-1.016,-1.0822,-1.1329,-1.1784,-1.2144,-1.2358,-1.2659,-1.2913,-1.3073,-1.328,-1.3434,-1.352,-1.3674,-1.3921,-1.4262,-1.3834,-1.3754,-1.4082,-1.4088,-1.4088,-1.4088,-1.4088,-1.4088,-1.4115,-1.4963,-1.5351,-1.5337,-1.505,-1.477,-1.4509,-1.4429,-1.4282,-1.4088,-1.4088,-1.4088,-1.4088,-1.4088,-1.4015,-1.3921,-1.3861,-1.3707,-1.3527,-1.3527,-1.3387,-1.3213,-1.3213,-1.3213,-1.3193,-1.3106,-1.308,-1.3013,-1.2705,-1.2625,-1.2565,-1.2351,-1.2305,-1.2305,-1.2305,-1.2305,-1.2278,-1.2198,-1.2118,-1.1897,-1.1396,-1.1309,-1.1209,-1.0915,-1.0875,0.0,-1.0651,-1.0624,-1.0528,-1.0448,-1.0247,-0.9967,-0.9593,-0.9365,-0.9064,-0.8824,-0.8804,-0.8804,-0.8804,-0.8567,-0.8075,-0.7242,-0.5063,-0.4058,0.0,0.0,0.0,0.0,0.0,0.0,0.0,0.0,0.0,0.0,0.0,0.0,0.0,0.0,0.0,0.0,0.0,0.0,0.0,0.0,0.0,0.0,-1.0007,-1.0895,-1.1015,-1.1323,-1.167,-1.2011,-1.2425,-1.2799,-1.3093,-1.3287,-1.344,-1.3567,-1.3848,-1.4015,-1.4015,-1.4215,-1.4436,-1.4663,-1.477,-1.4816,-1.4816,-1.4816,-1.4816,-1.4816,-1.4816,-1.4816,-1.4836,-1.5518,-1.5738,-1.5571,-1.5344,-1.5077,-1.479,-1.473,-1.4609,0.0,0.0,0.0,0.0,0.0,-1.4088,-1.4088,-1.4088,-1.3975,-1.3828,-1.3828,-1.3714,-1.3581,-1.3581,-1.3581,-1.3554,-1.3427,-1.3394,-1.332,-1.3019,-1.2939,-1.2899,-1.2726,-1.2585,-1.2485,-1.2485,-1.2392,-1.2305,-1.2305,-1.2305,0.0,-1.185,-1.169,-1.151,-1.1216,-1.1069,-1.0929,-1.0762,-1.0698,-1.0624,-1.0624,-1.0408,-1.0187,-0.9886,-0.9599,0.0,0.0,0.0,-0.8639,-0.8255,-0.8248,0.0,0.0,0.0,0.0,0.0,0.0,0.0,0.0,-0.3659,-0.3602,0.0,0.0,0.0,0.0,0.0,0.0,0.0,0.0,0.0,0.0,0.0,0.0,0.0,0.0,0.0,0.0,-1.1076,-1.2071,-1.2365,-1.2432,-1.2438,-1.2405,-1.2906,-1.336,-1.3621,-1.3619,-1.3854,-1.4115,-1.4402,-1.4569,-1.4569,0.0,0.0,0.0,0.0,-1.5785,-1.5832,-1.5832,-1.5832,-1.5832,-1.5832,-1.5832,-1.5832,-1.5832,-1.5638,-1.5311,-1.5311,-1.5197,-1.5017,-1.5017,-1.499,-1.491,-1.4355,-1.4135,-1.4128,-1.4095,-1.4088,-1.4088,-1.4088,0.0,0.0,-1.4088,-1.4088,-1.4088,-1.4088,-1.4088,-1.4035,-1.3768,-1.3694,-1.3627,-1.3333,-1.326,-1.3253,-1.322,-1.2999,-1.2876,-1.2876,-1.2565,-1.2351,-1.2351,-1.2325,-1.2305,-1.2305,-1.2091,-1.1817,-1.1523,-1.1256,-1.1069,-1.1002,-1.0768,-1.0658,-1.0624,0.0,0.0,-1.014,-0.988,-0.9606,-0.9256,-0.891,-0.8397,-0.7695,-0.7479,-0.6808,-0.5466,-0.5379,-0.5103,-0.4543,-0.4563,-0.4582,-0.4697,-0.3931,-0.3799,0.0,0.0,0.0,0.0,0.0,0.0,0.0,0.0,0.0,0.0,0.0,0.0,0.0,0.0,0.0,-1.1343,-1.2157,-1.2685,-1.2993,-1.324,-1.3293,-1.306,-1.3347,-1.3499,-1.3552,-1.4068,-1.4376,-1.4436,-1.471,-1.4877,-1.4877,-1.4897,-1.5017,-1.5251,-1.5324,-1.5504,-1.5825,-1.5832,-1.5832,-1.5832,0.0,0.0,-1.5832,-1.5832,-1.5792,-1.5718,-1.5718,-1.5565,-1.5311,-1.5311,-1.5177,-1.493,-1.4576,-1.4436,-1.4409,-1.4175,-1.4088,-1.4088,-1.4088,-1.4088,-1.4088,-1.4088,-1.4088,-1.4088,-1.4088,-1.4088,0.0,-1.4015,-1.4001,-1.3935,-1.3641,-1.3561,-1.35,-1.3267,-1.3166,-1.312,-1.312,-1.2879,-1.2735,-1.2735,-1.2465,-1.2305,-1.2305,-1.2258,-1.2118,-1.183,-1.1737,-1.153,-1.1056,-1.0942,-1.0822,-1.0651,-1.0624,-1.0441,-1.014,-1.0067,-0.9907,-0.9619,-0.8808,-0.8366,-0.8521,-0.7382,-0.663,-0.6362,-0.5921,-0.5349,-0.4646,-0.4769,-0.4847,-0.4867,-0.4572,-0.4558,0.0,0.0,0.0,0.0,0.0,0.0,0.0,0.0,0.0,0.0,0.0,-0.9646,-1.0227,0.0,-1.179,-1.2231,-1.2806,-1.3247,-1.3407,-1.3681,-1.3754,-1.3467,-1.3687,-1.3921,-1.4068,-1.4349,-1.4583,-1.473,-1.5017,-1.5177,-1.5177,-1.5317,-1.5464,-1.5611,-1.5565,-1.5631,-1.5825,-1.5832,-1.5832,-1.5832,-1.5832,-1.5832,-1.5832,-1.5832,-1.5832,-1.5832,-1.5832,-1.5745,-1.5611,-1.5611,-1.5524,-1.5364,-1.5077,-1.487,-1.4723,-1.4583,-1.4436,-1.4302,-1.4302,-1.4208,-1.4088,-1.4088,-1.4088,-1.4088,-1.4088,-1.4088,-1.4088,-1.4088,-1.4088,-1.4055,-1.3901,-1.3868,-1.3828,-1.3687,-1.3534,-1.3427,-1.3427,-1.3066,-1.2822,-1.2822,-1.2505,-1.2305,-1.2305,-1.2305,-1.2251,-1.2104,-1.1964,-1.1764,-1.147,-1.1176,-1.0942,-1.0788,-1.0712,-1.0501,-1.0347,-1.02,-0.9993,-0.9699,-0.9253,-0.8821,-0.8614,-0.7869,-0.7136,-0.6292,-0.6039,-0.5565,-0.4806,-0.488,-0.4955,-0.5023,-0.4945,-0.4952,0.0,0.0,0.0,0.0,0.0,0.0,0.0,0.0,-0.9065,-0.9706,-1.0448,-1.1129,-1.1597,-1.2164,-1.2639,-1.2879,-1.3373,-1.3728,-1.3728,-1.3935,-1.4001,-1.3761,-1.3941,-1.4202,-1.4489,-1.4569,-1.473,-1.5023,-1.5317,-1.5478,-1.5478,-1.5705,-1.5832,-1.5832,-1.5832,-1.5832,-1.5832,-1.5832,-1.5832,-1.5832,-1.5832,-1.5832,-1.5832,-1.5832,-1.5832,-1.5832,-1.5832,-1.5832,-1.5832,-1.5832,-1.5832,-1.5805,-1.5571,-1.5337,-1.5117,-1.501,-1.481,-1.4603,-1.4603,-1.4456,-1.4249,-1.4188,-1.4168,-1.4162,-1.4108,-1.4088,-1.4088,-1.4088,-1.4088,-1.4088,-1.4088,-1.4088,-1.4088,-1.4088,-1.3901,-1.3728,-1.3728,-1.326,-1.2916,-1.2916,-1.2545,-1.2305,-1.2305,-1.2305,-1.2305,-1.2305,-1.2104,-1.1937,-1.1877,-1.1456,-1.1122,-1.1002,-1.0782,-1.0685,-1.0624,-1.0341,-1.008,-0.9786,-0.9649,-0.9193,-0.8416,-0.824,-0.7472,-0.6053,-0.6026,-0.5681,-0.4958,-0.4989,-0.5064,-0.5176,-0.5176,-0.5176,-0.7669,-0.7709,0.0,-0.8698,-0.8798,-0.9125,0.0,0.0,-1.0942,-1.1784,-1.2245,-1.2593,-1.2661,-1.3086,-1.3507,-1.354,-1.3821,-1.4041,-1.4041,-1.4068,-1.4075,-1.4041,-1.4068,-1.4202,-1.4489,-1.4763,-1.5037,-1.5324,-1.5618,-1.5785,-1.5785,-1.5812,-1.5832,-1.5832,-1.5832,-1.5832,-1.5832,-1.5832,-1.5832,-1.5832,-1.5832,-1.5832,-1.5832,-1.5832,-1.5832,-1.5832,-1.5832,-1.5832,-1.5832,-1.5832,-1.5832,-1.5825,-1.5792,-1.5758,-1.5671,-1.5157,-1.4943,-1.4917,-1.4917,-1.4897,-1.4823,-1.4556,-1.4476,-1.4422,-1.4168,-1.4088,-1.4088,-1.4088,-1.4088,-1.4088,-1.4088,-1.4088,-1.4088,-1.4088,-1.4062,-1.4041,-1.4041,-1.3574,-1.316,-1.316,-1.2692,-1.2305,-1.2305,-1.2305,-1.2305,-1.2305,-1.2271,-1.2164,-1.1904,-1.181,-1.157,-1.1049,-1.0962,-1.0842,-1.0645,-1.0598,-1.0381,-1.0087,-0.9449,-0.8842,-0.8428,-0.7763,-0.6997,-0.5992,-0.6142,-0.5786,-0.5108,-0.5243,-0.5321,-0.5335,-0.5335,-0.5335,-0.9025,0.0,0.0,0.0,-1.0428,-1.0815,-1.167,-1.181,-1.1904,-1.2452,-1.2939,-1.3267,-1.3267,-1.3614,-1.3901,0.0,-1.4148,-1.4282,-1.4115,-1.4229,-1.4208,-1.3868,-1.3981,-1.4202,-1.4489,-1.479,-1.5084,-1.5378,-1.5665,-1.5832,-1.5832,-1.5832,-1.5832,-1.5832,-1.5832,-1.5832,-1.5832,-1.5832,-1.5832,-1.5832,-1.5832,-1.5832,-1.5832,-1.5832,-1.5832,-1.5832,-1.5832,-1.5832,-1.5832,-1.5832,-1.5832,-1.5832,-1.5832,-1.5832,-1.5798,-1.5558,-1.5357,-1.5217,-1.5217,-1.5104,-1.4917,-1.4616,-1.4522,-1.4469,-1.4175,-1.4088,-1.4088,-1.4088,-1.4088,-1.4088,-1.4088,-1.4088,-1.4088,-1.4088,-1.4088,-1.4088,-1.4088,-1.3627,-1.3213,-1.3213,-1.2719,-1.2305,-1.2305,-1.2305,-1.2305,-1.2305,-1.2305,-1.2258,-1.2138,-1.1977,-1.1643,-1.1056,-1.0842,-1.0695,-1.0631,-1.0624,-1.0571,-1.0381,-1.0118,-0.9425,-0.8245,-0.7866,-0.7056,-0.568,-0.5678,-0.5585,-0.5267,-0.5328,-0.5428,-0.5428,-0.5454,-0.5494,-0.982,0.0,0.0,-1.1142,-1.1677,-1.2151,-1.2325,-1.2518,-1.2759,-1.3053,-1.3394,-1.3559,-1.3559,-1.3821,0.0,-1.3968,-1.4275,-1.4422,-1.4128,-1.4335,-1.4335,-1.3828,-1.3955,-1.4168,-1.4382,-1.4669,-1.4997,-1.5364,-1.5591,-1.5745,-1.5825,-1.5832,-1.5832,-1.5832,-1.5832,-1.5832,-1.5832,-1.5832,-1.5832,-1.5832,-1.5832,-1.5832,-1.5832,-1.5832,-1.5832,-1.5832,-1.5832,-1.5832,-1.5832,-1.5832,-1.5832,-1.5832,-1.5832,-1.5832,-1.5832,-1.5832,-1.5698,-1.5518,-1.5518,-1.5378,-1.5157,-1.4856,-1.471,-1.4589,-1.4295,-1.4155,-1.4088,-1.4088,-1.4088,-1.4088,-1.4088,-1.4088,-1.4088,-1.4088,-1.4088,-1.4088,-1.4088,-1.3687,-1.3307,-1.3227,-1.2786,-1.2398,-1.2318,-1.2305,-1.2305,-1.2305,-1.2305,-1.2305,-1.2305,-1.2051,-1.1677,-1.1169,-1.0855,-1.0712,-1.0631,-1.0624,-1.0624,-1.0624,-1.0624,-0.9843,-0.8091,-0.8027,-0.7181,-0.5428,-0.5428,-0.5428,-0.5428,-0.5428,-0.5449,-0.5426,-0.5538,-0.5633,0.0,0.0,-1.1116,-1.1697,-1.2358,-1.2872,-1.3454,-1.3512,-1.3687,-1.3981,-1.3834,-1.3559,-1.3559,-1.3654,-1.3661,-1.3661,-1.4142,-1.4422,-1.4128,-1.4335,-1.4409,-1.4108,-1.4082,-1.4088,0.0,-1.4362,-1.477,-1.5351,-1.5404,-1.5531,-1.5812,-1.5832,-1.5832,-1.5832,-1.5832,-1.5832,-1.5832,-1.5832,-1.5832,-1.5832,-1.5832,-1.5832,-1.5832,-1.5832,-1.5832,-1.5832,-1.5832,-1.5832,-1.5832,-1.5832,-1.5832,-1.5832,-1.5832,-1.5832,-1.5832,-1.5832,-1.5818,-1.5812,-1.5812,-1.5812,-1.5752,-1.5464,-1.5177,-1.4897,-1.4596,-1.4309,-1.4088,-1.4088,-1.4088,-1.4088,-1.4088,-1.4088,-1.4088,-1.4088,-1.4088,-1.4088,-1.4088,-1.3848,-1.3547,-1.3267,-1.2953,-1.2721,-1.2351,-1.2305,-1.2305,-1.2305,-1.2305,-1.2305,-1.2305,-1.2051,-1.175,-1.1443,-1.1149,-1.0868,-1.0651,-1.0624,-1.0624,-1.0624,-1.0624,-0.9843,-0.8091,-0.8027,-0.7181,-0.5428,-0.5428,-0.5428,-0.5428,-0.5428,-0.5437,-0.5583,-0.5589,-0.5742,0.0,0.0,-1.2011,-1.2605,-1.3053,-1.3447,-1.3848,-1.3941,-1.3908,-1.3814,-1.3561,-1.3293,-1.3086,-1.3046,-1.3113,-1.332,-1.4008,-1.4489,-1.4389,-1.4796,-1.485,-1.4168,-1.4255,0.0,0.0,0.0,0.0,-1.5077,-1.5291,-1.5524,-1.5812,-1.5832,-1.5832,-1.5832,-1.5832,-1.5832,-1.5832,-1.5832,-1.5832,-1.5832,-1.5832,-1.5832,-1.5832,-1.5832,-1.5832,-1.5832,-1.5832,-1.5832,-1.5832,-1.5832,-1.5832,-1.5832,-1.5832,-1.5832,-1.5832,-1.5832,-1.5832,-1.5832,-1.5832,-1.5832,-1.5785,-1.5491,-1.5204,-1.491,-1.4609,-1.4315,-1.4088,-1.4088,-1.4088,-1.4088,-1.4088,-1.4088,-1.4088,-1.4088,-1.4088,-1.4088,-1.4088,-1.3854,-1.3532,-1.3514,-1.3093,-1.2788,-1.2612,-1.2432,-1.2305,-1.2305,-1.2305,-1.2305,-1.2305,-1.2051,-1.183,-1.173,-1.1283,-1.0955,-1.0855,-1.0675,-1.0624,-1.0624,-1.0624,-0.9843,-0.8091,-0.8027,-0.7181,-0.5428,-0.5428,-0.541,-0.5511,-0.5511,-0.5589,-0.5732,-0.5833,-0.5935,0.0,-1.2011,-1.2605,-1.3213,-1.3581,-1.3821,-1.3908,-1.3928,-1.3814,-1.3407,-1.3006,-1.2672,-1.2546,-1.2331,-1.2318,-1.2946,-1.3701,-1.4275,-1.4489,-1.503,-1.515,-1.4482,-1.4563,-1.4529,0.0,0.0,0.0,-1.495,-1.5237,-1.5524,-1.5812,-1.5832,-1.5832,-1.5832,-1.5832,-1.5832,-1.5832,-1.5832,-1.5832,-1.5832,-1.5832,-1.5832,-1.5832,-1.5832,-1.5832,-1.5832,-1.5832,-1.5832,-1.5832,-1.5832,-1.5832,-1.5832,-1.5832,-1.5832,-1.5832,-1.5832,-1.5832,-1.5832,-1.5832,-1.5832,-1.5798,-1.5611,-1.5351,-1.5064,-1.477,-1.4476,-1.4222,-1.4115,-1.4088,-1.4088,-1.4088,-1.4088,-1.4088,-1.4088,-1.4088,-1.4088,-1.4088,-1.3935,-1.3768,-1.3585,-1.3247,-1.2879,-1.2842,-1.2498,-1.2305,-1.2305,-1.2305,-1.2305,-1.2305,-1.2138,-1.1984,-1.1877,-1.153,-1.1216,-1.1009,-1.0822,-1.0675,-1.0631,-1.0624,-0.9843,-0.8091,-0.8027,-0.7181,-0.5428,-0.5416,-0.5491,-0.5589,-0.564,-0.5739,-0.5884,-0.5983,-0.6061,-1.1777,-1.2439,-1.2953,-1.352,-1.3868,-1.3988,-1.3707,-1.3607,-1.3407,-1.2896,-1.2291,-1.1797,0.0,0.0,-1.1369,-1.2593,-1.3247,-1.3868,-1.4462,-1.505,-1.5311,0.0,0.0,0.0,0.0,0.0,0.0,-1.4983,0.0,-1.5524,-1.5812,-1.5832,-1.5832,-1.5832,-1.5832,-1.5832,-1.5832,-1.5832,-1.5832,-1.5832,-1.5832,-1.5832,-1.5832,-1.5832,-1.5832,-1.5832,-1.5832,-1.5832,-1.5832,-1.5832,-1.5832,-1.5832,-1.5832,-1.5832,-1.5832,-1.5832,-1.5832,-1.5832,-1.5832,-1.5832,-1.5832,-1.5832,-1.5631,-1.5344,-1.507,-1.477,-1.4462,-1.4188,-1.4095,-1.4088,-1.4088,-1.4088,-1.4088,-1.4088,-1.4088,-1.4088,-1.4088,-1.4088,-1.4001,-1.3721,-1.342,-1.3113,-1.2876,-1.2498,-1.2305,-1.2305,-1.2305,-1.2305,-1.2305,-1.2305,-1.2198,-1.1917,-1.1877,-1.1643,-1.1082,-1.1022,-1.0902,-1.0685,-1.0601,-0.981,-0.8107,-0.7987,-0.7143,-0.5439,-0.5521,-0.5603,-0.5613,-0.5745,-0.5891,-0.604,-0.604,-0.6122,-1.2705,-1.33,-1.3781,-1.3935,-1.3868,-1.3734,-1.3579,-1.3126,-1.2538,-1.2171,-1.1525,-1.0893,-1.0601,0.0,0.0,-1.2042,-1.3153,0.0,-1.477,-1.5351,0.0,0.0,0.0,-1.5204,-1.4983,-1.5157,0.0,0.0,-1.5351,-1.5524,-1.5812,-1.5832,-1.5832,-1.5832,-1.5832,-1.5832,-1.5832,-1.5832,-1.5832,-1.5832,-1.5832,-1.5832,-1.5832,-1.5832,-1.5832,-1.5832,-1.5832,-1.5832,-1.5832,-1.5832,-1.5832,-1.5832,-1.5832,-1.5832,-1.5832,-1.5832,-1.5832,-1.5832,-1.5832,-1.5832,-1.5832,-1.5832,-1.5631,-1.5384,-1.5311,-1.4923,-1.4502,-1.4429,-1.4255,-1.4088,-1.4088,-1.4088,-1.4088,-1.4088,-1.4088,-1.4088,-1.4088,-1.4088,-1.4062,-1.3988,-1.3561,-1.3113,-1.2876,-1.2498,-1.2305,-1.2305,-1.2305,-1.2305,-1.2305,-1.2305,-1.2271,-1.2204,-1.1997,-1.181,-1.1657,-1.1443,-1.1283,-1.1209,-1.0516,-0.9535,-0.8343,-0.7683,-0.6741,-0.56,-0.5674,-0.5803,-0.5918,-0.5952,-0.6051,-0.6203,-0.6203,-0.6224,-1.3273,-1.3734,-1.4088,-1.4088,-1.3868,-1.354,-1.3146,-1.2565,-1.1884,-1.1076,-1.0521,0.0,0.0,0.0,0.0,0.0,0.0,0.0,-1.4629,-1.5271,-1.5625,0.0,-1.5585,0.0,-1.5357,-1.5491,-1.5585,0.0,-1.5585,-1.5658,-1.5818,-1.5832,-1.5832,-1.5832,-1.5832,-1.5832,-1.5832,-1.5832,-1.5832,-1.5832,-1.5832,-1.5832,-1.5832,-1.5832,-1.5832,-1.5832,0.0,-1.5832,-1.5832,-1.5832,-1.5832,-1.5832,-1.5832,-1.5832,-1.5832,-1.5832,-1.5832,-1.5832,-1.5832,-1.5832,-1.5832,-1.5832,-1.5718,-1.5565,-1.5438,-1.5077,-1.4689,-1.4556,-1.4309,-1.4088,-1.4088,-1.4088,-1.4088,-1.4088,-1.4088,-1.4088,-1.4088,-1.4088,-1.4048,-1.3915,-1.352,-1.3113,-1.2876,-1.2498,-1.2305,-1.2305,-1.2305,-1.2305,-1.2305,-1.2305,-1.2305,-1.2305,-1.2158,-1.2004,-1.1877,-1.1717,-1.1563,-1.143,-1.0861,-0.9955,-0.8579,-0.7999,-0.7099,-0.5684,-0.5827,-0.5942,-0.603,-0.6098,-0.6176,-0.6338,-0.6338,-0.6338,-1.3614,-1.3895,-1.4075,-1.4041,-1.3774,-1.33,-1.2438,-1.1904,-1.1209,-0.9893,0.0,0.0,-0.8838,0.0,-0.9626,-1.0802,0.0,-1.2806,-1.4255,-1.497,-1.5444,-1.5738,-1.5805,-1.5832,-1.5832,-1.5832,-1.5832,-1.5832,-1.5832,-1.5832,-1.5832,-1.5832,-1.5832,-1.5832,-1.5832,-1.5832,-1.5832,-1.5832,-1.5832,-1.5832,-1.5832,-1.5832,-1.5832,-1.5832,-1.5832,-1.5832,-1.5832,0.0,-1.5832,-1.5832,-1.5832,-1.5832,-1.5832,-1.5832,-1.5832,-1.5832,-1.5832,-1.5832,-1.5832,-1.5832,-1.5832,-1.5832,-1.5832,-1.5785,-1.5531,-1.5224,-1.491,-1.4656,-1.4342,-1.4088,-1.4088,-1.4088,-1.4088,-1.4088,-1.4088,-1.4088,-1.4088,-1.4088,-1.4008,-1.3748,-1.3434,-1.3126,-1.2852,-1.2525,-1.2305,-1.2305,-1.2305,-1.2305,-1.2305,-1.2305,-1.2305,-1.2305,-1.2305,-1.2204,-1.1951,-1.1924,-1.1817,-1.1557,-1.1398,-1.0533,-0.874,-0.8558,-0.7633,-0.5833,-0.5983,-0.6061,-0.6061,-0.6196,-0.6338,-0.6338,-0.6338,-0.6338,-1.3861,-1.4048,-1.4028,-1.3781,-1.3307,-1.2732,-1.2091,-1.0969,0.0,0.0,0.0,-0.8277,-0.8424,-0.8884,0.0,-1.0802,0.0,0.0,0.0,0.0,-1.515,0.0,0.0,0.0,0.0,0.0,0.0,0.0,0.0,-1.5832,-1.5832,-1.5832,-1.5832,-1.5832,-1.5832,-1.5832,-1.5832,-1.5832,-1.5832,-1.5832,-1.5832,-1.5832,-1.5832,-1.5832,-1.5832,-1.5832,-1.5832,0.0,-1.5832,-1.5832,-1.5832,-1.5832,-1.5832,-1.5832,-1.5832,-1.5832,-1.5832,-1.5832,-1.5832,-1.5832,-1.5832,-1.5832,-1.5832,-1.5818,-1.5765,-1.5384,-1.495,-1.4903,-1.4502,-1.4088,-1.4088,-1.4088,-1.4088,-1.4088,-1.4088,-1.4088,-1.4088,-1.4088,-1.4075,-1.4021,-1.3581,-1.3193,-1.314,-1.2672,-1.2305,-1.2305,-1.2305,-1.2305,-1.2305,-1.2305,-1.2305,-1.2305,-1.2305,-1.2278,-1.2231,-1.2225,-1.2204,-1.2151,-1.1321,-1.034,-0.9057,-0.8342,-0.7313,-0.5993,-0.6142,-0.622,-0.622,-0.6247,-0.6338,-0.6338,-0.6338,-0.6338,-1.3734,-1.3968,-1.4015,-1.3714,-1.3193,-1.2587,-1.1617,0.0,0.0,0.0,0.0,-0.7829,-0.7702,0.0,0.0,0.0,0.0,0.0,0.0,0.0,0.0,0.0,0.0,0.0,0.0,0.0,0.0,0.0,0.0,-1.5832,-1.5832,-1.5832,-1.5832,-1.5832,-1.5832,-1.5832,-1.5832,-1.5832,-1.5832,-1.5832,-1.5832,-1.5832,-1.5832,-1.5832,-1.5832,-1.5832,-1.5832,0.0,-1.5832,-1.5832,-1.5832,-1.5832,-1.5832,-1.5832,-1.5832,-1.5832,-1.5832,-1.5832,-1.5832,-1.5832,-1.5805,-1.5651,-1.5605,-1.5605,-1.5605,-1.5197,-1.4736,-1.4736,-1.4422,-1.4088,-1.4088,-1.4088,-1.4088,-1.4088,-1.4088,-1.4088,-1.4088,-1.4088,-1.4088,-1.4088,-1.3614,-1.3213,-1.3213,-1.2705,-1.2305,-1.2305,-1.2305,-1.2305,-1.2305,-1.2305,-1.2305,-1.2305,-1.2305,-1.2305,-1.2305,-1.2305,-1.2077,-1.1545,-1.1087,-1.006,-0.8468,-0.8036,-0.7287,-0.6152,-0.6224,-0.6338,-0.6338,-0.6338,-0.6338,-0.6338,-0.6338,-0.6338,-1.3527,-1.3814,-1.3921,-1.3621,-1.3053,-1.2325,-1.1076,-1.008,0.0,0.0,0.0,-0.7563,-0.7194,0.0,0.0,0.0,0.0,0.0,0.0,0.0,0.0,0.0,0.0,0.0,0.0,0.0,0.0,0.0,0.0,0.0,-1.5832,-1.5832,-1.5832,-1.5832,-1.5832,-1.5832,-1.5832,-1.5832,-1.5832,-1.5832,-1.5832,-1.5832,-1.5832,-1.5832,-1.5832,-1.5832,-1.5832,0.0,0.0,-1.5832,-1.5832,-1.5832,-1.5832,-1.5832,-1.5832,-1.5832,-1.5792,-1.5732,-1.5732,-1.5698,-1.5605,-1.5378,-1.5344,-1.5384,-1.5324,-1.4937,-1.4522,-1.4522,-1.4309,-1.4088,-1.4088,-1.4088,-1.4088,-1.4088,-1.4088,-1.4088,-1.4088,-1.4088,-1.4088,-1.4088,-1.3614,-1.3213,-1.3213,-1.2705,-1.2305,-1.2305,-1.2305,-1.2305,-1.2305,-1.2305,-1.2305,-1.2305,-1.2305,-1.2305,-1.2305,-1.2305,-1.1842,-1.0858,-1.0783,-0.9884,-0.7859,-0.7783,-0.7326,-0.6338,-0.6338,-0.6338,-0.6338,-0.6338,-0.6338,-0.6338,-0.6338,-0.6338,-1.3414,-1.3579,-1.3614,-1.332,-1.2592,-1.1643,-1.0461,0.0,0.0,0.0,-0.7295,-0.7174,-0.7426,0.0,0.0,0.0,0.0,0.0,0.0,0.0,0.0,0.0,0.0,0.0,0.0,0.0,0.0,0.0,0.0,0.0,-1.5832,-1.5832,-1.5832,-1.5832,-1.5832,-1.5832,-1.5832,-1.5832,-1.5832,-1.5832,-1.5832,-1.5832,-1.5832,-1.5832,-1.5832,-1.5832,-1.5832,0.0,0.0,-1.5832,-1.5832,-1.5832,-1.5832,-1.5832,-1.5832,-1.5832,-1.5665,-1.5438,-1.5438,-1.5264,-1.5037,-1.501,-1.5177,-1.5344,-1.5084,-1.4776,-1.4522,-1.4522,-1.4309,-1.4088,-1.4088,-1.4088,-1.4088,-1.4088,-1.4088,-1.4088,-1.4088,-1.4088,-1.4088,-1.4088,-1.3614,-1.3213,-1.3213,-1.2705,-1.2305,-1.2305,-1.2305,-1.2305,-1.2305,-1.2305,-1.2305,-1.2305,-1.2305,-1.2305,-1.2305,-1.2305,-1.1842,-1.0858,-1.0783,-0.9884,-0.7859,-0.7783,-0.7326,-0.6338,-0.6338,-0.6338,-0.6338,-0.6338,-0.6338,-0.6338,-0.6338,-0.6338,-1.2639,-1.3106,-1.3307,-1.3006,-1.2258,-1.1343,-1.0341,0.0,0.0,-0.7641,-0.7228,-0.7061,-0.7174,-0.7341,-0.7682,0.0,0.0,0.0,0.0,0.0,0.0,0.0,0.0,0.0,0.0,0.0,0.0,0.0,0.0,0.0,-1.5832,-1.5832,-1.5832,-1.5832,-1.5832,-1.5832,-1.5832,-1.5832,-1.5832,-1.5832,-1.5832,-1.5832,-1.5832,-1.5832,-1.5832,-1.5832,-1.5832,0.0,0.0,-1.5832,-1.5832,-1.5832,-1.5832,-1.5718,-1.5571,-1.5571,-1.5384,-1.5137,-1.5137,-1.5064,-1.4937,-1.4756,-1.4776,-1.485,-1.473,-1.4496,-1.4262,-1.4262,-1.4175,-1.4088,-1.4088,-1.4088,-1.4088,-1.4088,-1.4088,-1.4088,-1.4088,-1.4088,-1.4035,-1.3854,-1.3487,-1.3153,-1.2966,-1.2579,-1.2305,-1.2305,-1.2305,-1.2305,-1.2305,-1.2305,-1.2305,-1.2305,-1.2305,-1.2305,-1.2305,-1.2305,-1.162,-0.997,-0.9895,-0.8988,-0.6945,-0.6872,-0.6718,-0.6338,-0.6338,-0.6338,-0.6338,-0.6338,-0.6338,-0.6338,-0.6338,-0.6338,-1.1857,-1.2425,-1.2759,-1.2614,-1.1824,-1.0942,0.0,0.0,-0.807,-0.7462,-0.7168,-0.6979,-0.6979,-0.7194,-0.7435,0.0,-0.8123,-0.8751,-0.984,0.0,0.0,0.0,0.0,0.0,0.0,0.0,0.0,0.0,0.0,0.0,0.0,-1.5832,-1.5832,-1.5832,-1.5832,-1.5832,-1.5832,-1.5832,-1.5832,-1.5832,-1.5832,-1.5832,-1.5832,-1.5832,-1.5832,-1.5832,-1.5832,0.0,0.0,-1.5705,-1.5651,-1.5571,-1.5571,-1.5444,-1.5271,-1.5271,-1.5084,-1.4836,-1.4836,-1.4776,-1.4669,-1.4462,-1.4396,-1.4396,-1.4396,-1.4249,-1.4088,-1.4088,-1.4088,-1.4088,-1.4088,-1.4088,-1.4088,-1.4088,-1.4088,-1.4088,-1.4088,-1.4015,-1.3895,-1.3687,-1.3333,-1.3006,-1.2862,-1.2498,-1.2305,-1.2305,-1.2305,-1.2305,-1.2305,-1.2305,-1.2305,-1.2305,-1.2305,-1.2305,-1.2305,-1.2305,-1.1477,-0.9448,-0.9296,-0.8389,-0.6416,-0.6338,-0.6338,-0.6338,-0.6338,-0.6338,-0.6338,-0.6338,-0.6338,-0.6338,-0.6338,-0.6338,-1.1196,-1.1657,-1.1884,-1.1877,-1.1216,-1.0334,0.0,-0.8512,-0.7716,-0.7111,-0.6985,-0.6979,-0.6979,-0.6985,-0.7128,-0.7466,-0.8024,0.0,0.0,0.0,0.0,0.0,0.0,0.0,0.0,0.0,0.0,0.0,0.0,0.0,0.0,-1.5832,-1.5832,-1.5832,-1.5832,-1.5832,-1.5832,-1.5832,-1.5832,-1.5832,-1.5832,-1.5832,-1.5832,-1.5832,-1.5832,0.0,0.0,0.0,0.0,-1.5398,-1.5231,-1.497,-1.497,-1.497,-1.497,-1.497,-1.4776,-1.4522,-1.4522,-1.4335,-1.4095,-1.4095,-1.4088,-1.4088,-1.4088,-1.4088,-1.4088,-1.4088,-1.4088,-1.4088,-1.4088,-1.4088,-1.4088,-1.4088,-1.4088,-1.4088,-1.4088,-1.3854,-1.3566,-1.3559,-1.316,-1.2829,-1.2822,-1.2498,-1.2305,-1.2305,-1.2305,-1.2305,-1.2305,-1.2305,-1.2305,-1.2305,-1.2305,-1.2305,-1.2305,-1.2305,-1.1477,-0.9448,-0.9296,-0.8389,-0.6416,-0.6338,-0.6338,-0.6338,-0.6338,-0.6338,-0.6338,-0.6338,-0.6338,-0.6338,-0.6338,-0.6338,-0.9741,-1.0294,-1.0628,-1.0428,-1.0013,-0.9479,-0.8804,-0.8277,-0.7709,-0.7105,-0.6979,-0.6979,-0.6979,-0.6979,-0.7255,-0.7969,0.0,0.0,0.0,0.0,0.0,0.0,0.0,0.0,0.0,0.0,0.0,0.0,0.0,0.0,0.0,-1.5645,-1.5625,-1.5818,-1.5832,-1.5832,-1.5832,-1.5832,-1.5832,-1.5832,-1.5832,-1.5832,-1.5832,-1.5832,-1.5832,0.0,0.0,0.0,0.0,-1.5184,-1.505,-1.4963,-1.4963,-1.4836,-1.4663,-1.4663,-1.4476,-1.4222,-1.4222,-1.4162,-1.4088,-1.4088,-1.4088,-1.4088,-1.4088,-1.4088,-1.4088,-1.4088,-1.4088,-1.4088,-1.4088,-1.4088,-1.4088,-1.4088,-1.4088,-1.4088,-1.4088,-1.3854,-1.3587,-1.3387,-1.3019,-1.2761,-1.2478,-1.2365,-1.2305,-1.2305,-1.2305,-1.2305,-1.2305,-1.2305,-1.2305,-1.2305,-1.2305,-1.2305,-1.2305,-1.1694,-1.0714,-0.9372,-0.8694,-0.7706,-0.6338,-0.6338,-0.6338,-0.6338,-0.6338,-0.6338,-0.6338,-0.6338,-0.6338,-0.6338,-0.6338,-0.6338,0.0,-0.9178,-0.9579,-0.9399,-0.9132,-0.8758,-0.817,-0.7802,-0.7404,-0.6961,-0.686,-0.6894,-0.7001,-0.6979,-0.7248,-0.7923,0.0,0.0,0.0,0.0,0.0,0.0,0.0,0.0,0.0,0.0,0.0,0.0,0.0,0.0,0.0,-1.5331,-1.5317,-1.5498,-1.5504,-1.5504,-1.5504,-1.5504,-1.5504,-1.5504,-1.5504,-1.5504,-1.5504,-1.5504,-1.5504,0.0,0.0,0.0,0.0,-1.487,-1.473,-1.4629,-1.4629,-1.4522,-1.4355,-1.4355,-1.4242,-1.4088,-1.4088,-1.4088,-1.4088,-1.4088,-1.4088,-1.4088,-1.4088,-1.4088,-1.4088,-1.4088,-1.4088,-1.4088,-1.4088,-1.4088,-1.4088,-1.4088,-1.4088,-1.4055,-1.3941,-1.3687,-1.3394,-1.3093,-1.2792,-1.2518,-1.2338,-1.2305,-1.2305,-1.2305,-1.2305,-1.2305,-1.2305,-1.2305,-1.2305,-1.2305,-1.2305,-1.215,-1.1768,-1.1162,-1.019,-0.8841,-0.8161,-0.7326,-0.6338,-0.6338,-0.6338,-0.6338,-0.6338,-0.6338,-0.6338,-0.6338,-0.6338,-0.6338,-0.6338,-0.6338,0.0,-0.8203,-0.8644,-0.8624,-0.843,-0.8145,-0.7553,-0.7174,0.0,-0.662,-0.6573,-0.668,-0.6967,-0.7041,-0.7168,-0.7547,0.0,0.0,0.0,0.0,0.0,0.0,0.0,0.0,0.0,0.0,0.0,0.0,0.0,0.0,0.0,-1.4943,-1.493,-1.493,-1.491,-1.4923,-1.4963,-1.4963,-1.4963,-1.4963,-1.4963,-1.4963,-1.4963,-1.4963,-1.4963,0.0,0.0,0.0,0.0,-1.4496,-1.4329,-1.4088,-1.4088,-1.4088,-1.4088,-1.4088,-1.4088,-1.4088,-1.4088,-1.4088,-1.4088,-1.4088,-1.4088,-1.4088,-1.4088,-1.4088,-1.4088,-1.4088,-1.4088,-1.4088,-1.4088,-1.4088,-1.4088,-1.4088,-1.4075,-1.3981,-1.3701,-1.34,-1.3093,-1.2882,-1.2505,-1.2305,-1.2305,-1.2305,-1.2305,-1.2305,-1.2305,-1.2305,-1.2305,-1.2305,-1.2305,-1.2305,-1.2224,-1.1774,-1.0783,-1.0714,-0.9884,-0.7931,-0.7706,-0.7249,-0.6338,-0.6338,-0.6338,-0.6338,-0.6338,-0.6338,-0.6338,-0.6338,-0.6338,-0.6338,-0.6338,-0.6338,-0.6159,0.0,-0.7061,-0.6875,-0.6935,-0.6914,0.0,-0.6619,0.0,0.0,0.0,-0.668,-0.6967,-0.7208,-0.7609,0.0,0.0,0.0,0.0,0.0,0.0,0.0,0.0,0.0,0.0,0.0,0.0,0.0,0.0,0.0,0.0,-1.475,-1.4623,-1.4623,-1.4409,-1.4509,-1.4963,-1.4963,-1.4963,-1.4963,-1.4963,-1.4963,-1.4963,-1.4963,-1.4963,0.0,0.0,0.0,-1.4502,-1.4282,-1.4148,-1.4088,-1.4088,-1.4088,-1.4088,-1.4088,-1.4088,-1.4088,-1.4088,-1.4088,-1.4088,-1.4088,-1.4088,-1.4088,-1.4088,-1.4088,-1.4088,-1.4088,-1.4088,-1.4088,-1.4088,-1.4088,-1.4088,-1.4088,-1.3915,-1.3728,-1.3661,-1.3227,-1.2909,-1.2835,-1.2505,-1.2305,-1.2305,-1.2305,-1.2305,-1.2305,-1.2305,-1.2305,-1.2305,-1.2305,-1.2305,-1.2305,-1.162,-1.0714,-0.9744,-0.9669,-0.9145,-0.7859,-0.7099,-0.6567,-0.6338,-0.6338,-0.6338,-0.6338,-0.6338,-0.6338,-0.6338,-0.6338,-0.6338,-0.6338,-0.6338,-0.6338,-0.5511,-0.6139,-0.6754,-0.6593,-0.6774,-0.6914,-0.662,0.0,0.0,0.0,0.0,0.0,-0.7148,0.0,0.0,0.0,0.0,0.0,0.0,0.0,0.0,0.0,0.0,0.0,0.0,0.0,0.0,0.0,0.0,0.0,-1.4563,-1.4409,-1.4322,-1.4322,-1.4168,-1.4242,-1.4556,-1.4563,-1.4563,-1.4563,-1.4563,-1.4563,-1.4563,-1.4563,-1.4563,0.0,0.0,0.0,-1.4309,-1.4155,-1.4088,-1.4088,-1.4088,-1.4088,-1.4088,-1.4088,-1.4088,-1.4088,-1.4088,-1.4088,-1.4088,-1.4088,-1.4088,-1.4088,-1.4088,-1.4088,-1.4088,-1.4088,-1.4088,-1.4088,-1.4088,-1.4088,-1.4055,-1.3915,-1.3761,-1.3567,-1.3293,-1.2973,-1.2782,-1.2565,-1.2412,-1.2305,-1.2305,-1.2305,-1.2305,-1.2305,-1.2305,-1.2305,-1.2305,-1.2305,-1.215,-1.1694,-1.1539,-1.0714,-0.8765,-0.9069,-0.8694,-0.7176,-0.7022,-0.7022,-0.7022,-0.7022,-0.6795,-0.6338,-0.6338,-0.6338,-0.6338,-0.6338,-0.6338,-0.6338,-0.6338,-0.6338,-0.5324,-0.6166,-0.6945,-0.6854,-0.7114,-0.7321,0.0,0.0,0.0,0.0,0.0,0.0,0.0,0.0,0.0,0.0,0.0,0.0,0.0,0.0,0.0,0.0,0.0,0.0,0.0,0.0,0.0,0.0,0.0,-1.4088,-1.4088,-1.4088,-1.4088,-1.4088,-1.4088,-1.4088,-1.4088,-1.4088,-1.4088,-1.4088,-1.4088,-1.4088,-1.4088,-1.4088,-1.4088,-1.4088,0.0,0.0,-1.4088,-1.4088,-1.4088,-1.4088,-1.4088,-1.4088,-1.4088,-1.4088,-1.4088,-1.4088,-1.4088,-1.4088,-1.4088,-1.4088,-1.4088,-1.4088,-1.4088,-1.4088,-1.4088,-1.4088,-1.4055,-1.4021,-1.4021,-1.3988,-1.3888,-1.3641,-1.354,-1.3367,-1.2936,-1.2788,-1.2605,-1.2351,-1.2305,-1.2305,-1.2305,-1.2305,-1.2305,-1.2305,-1.2305,-1.2305,-1.2305,-1.2305,-1.1996,-1.1087,-1.162,-1.1019,-0.8461,-0.8917,-0.8542,-0.6872,-0.7403,-0.7783,-0.7783,-0.7783,-0.7326,-0.6338,-0.6338,-0.6338,-0.6338,-0.6338,-0.6338,-0.6338,-0.6338,-0.6338,-0.5511,-0.6319,-0.6799,-0.6099,-0.6506,-0.7014,0.0,0.0,0.0,0.0,0.0,0.0,0.0,0.0,0.0,0.0,0.0,0.0,0.0,0.0,0.0,0.0,0.0,0.0,0.0,0.0,0.0,0.0,0.0,0.0,-1.4088,-1.4088,-1.4088,-1.4088,-1.4088,-1.4088,-1.4088,-1.4088,-1.4088,-1.4088,-1.4088,-1.4088,-1.4088,-1.4088,-1.4088,-1.4088,0.0,-1.4088,-1.4088,-1.4088,-1.4088,-1.4088,-1.4088,-1.4088,-1.4088,-1.4088,-1.4088,-1.4088,-1.4088,-1.4088,-1.4088,-1.4088,-1.4088,-1.4088,-1.4088,-1.4088,-1.4088,-1.4088,-1.3908,-1.3707,-1.3707,-1.3527,-1.3333,-1.3287,-1.3073,-1.2936,-1.2842,-1.2545,-1.2358,-1.2311,-1.2305,-1.2305,-1.2305,-1.2305,-1.2305,-1.2305,-1.2305,-1.2305,-1.2305,-1.2305,-1.2224,-1.2077,-1.1465,-1.0858,-1.0409,-0.9669,-0.915,-0.8846,-0.8161,-0.7783,-0.7783,-0.7783,-0.7326,-0.6338,-0.6338,-0.6338,-0.6338,-0.6338,-0.6338,-0.6338,-0.6338,-0.6338,-0.5093,-0.5885,-0.6493,-0.6253,-0.6981,-0.7715,0.0,0.0,0.0,0.0,0.0,0.0,0.0,0.0,0.0,0.0,0.0,0.0,0.0,0.0,0.0,0.0,0.0,0.0,0.0,0.0,0.0,0.0,0.0,0.0,-1.4088,-1.4088,-1.4088,-1.4088,-1.4088,-1.4088,-1.4088,-1.4088,-1.4088,-1.4088,-1.4088,-1.4088,-1.4088,-1.4088,-1.4088,-1.4088,0.0,-1.4088,-1.4088,-1.4088,-1.4088,-1.4088,-1.4088,-1.4088,-1.4088,-1.4088,-1.4088,-1.4088,-1.4088,-1.4088,-1.4088,-1.4088,-1.4088,-1.4088,-1.4088,-1.4088,-1.4055,-1.3895,-1.3748,-1.3559,-1.3559,-1.3427,-1.3166,-1.2999,-1.2929,-1.2775,-1.2545,-1.2398,-1.2305,-1.2305,-1.2305,-1.2305,-1.2305,-1.2305,-1.2305,-1.2305,-1.2305,-1.2305,-1.2305,-1.2305,-1.2077,-1.1545,-1.1545,-1.1168,-1.0115,-1.0045,-1.0115,-1.0115,-0.9664,-0.921,-0.8618,-0.8613,-0.7859,-0.6338,-0.6338,-0.6338,-0.6338,-0.6338,-0.6338,-0.6338,-0.6338,-0.6338,-0.4894,-0.5585,-0.6297,-0.6687,0.0,0.0,0.0,0.0,0.0,0.0,0.0,0.0,0.0,0.0,0.0,0.0,0.0,0.0,0.0,0.0,0.0,0.0,0.0,0.0,0.0,0.0,0.0,0.0,0.0,0.0,-1.3888,-1.3881,-1.3881,-1.3881,-1.3881,-1.3881,-1.3881,-1.3881,-1.3955,-1.4088,-1.4088,-1.4048,-1.3988,-1.4055,-1.4048,-1.3988,-1.4055,-1.4088,-1.4088,-1.4088,-1.4088,-1.4088,-1.4088,-1.4088,-1.4088,-1.4088,-1.4088,-1.4088,-1.4088,-1.4088,-1.4088,-1.4088,-1.4088,-1.4075,-1.4008,-1.3981,-1.3921,-1.3627,-1.3487,-1.3434,-1.3434,-1.322,-1.2939,-1.2699,-1.2721,-1.2579,-1.2351,-1.2305,-1.2305,-1.2305,-1.2305,-1.2305,-1.2305,-1.2305,-1.2305,-1.2305,-1.2305,-1.2305,-1.2305,-1.2305,-1.1996,-1.1236,-1.1842,-1.17,-1.0126,-1.049,-1.0783,-1.0783,-1.0559,-0.9965,-0.8993,-0.8917,-0.8089,-0.6338,-0.6338,-0.6338,-0.6338,-0.6338,-0.6338,-0.6338,-0.6338,-0.6338,-0.5424,-0.5898,-0.6398,-0.7238,0.0,0.0,0.0,0.0,0.0,0.0,0.0,0.0,0.0,0.0,0.0,0.0,0.0,0.0,0.0,0.0,0.0,0.0,0.0,0.0,0.0,0.0,0.0,0.0,0.0,0.0,-1.3287,-1.3273,-1.3273,-1.3273,-1.3273,-1.3273,-1.3273,-1.3273,-1.3547,-1.4088,-1.4088,-1.3941,-1.3687,-1.3961,-1.3935,-1.3687,-1.3968,-1.4088,-1.4088,-1.4088,-1.4088,-1.4088,-1.4088,-1.4088,-1.4088,-1.4088,-1.4088,-1.4088,-1.4088,-1.4088,-1.4088,-1.4088,-1.4088,-1.4035,-1.3761,-1.3674,-1.3614,-1.332,-1.3033,-1.2889,-1.2889,-1.2592,-1.2358,-1.2338,-1.2338,-1.2325,-1.2305,-1.2305,-1.2305,-1.2305,-1.2305,-1.2305,-1.2305,-1.2305,-1.2305,-1.2305,-1.2305,-1.2305,-1.2305,-1.2305,-1.2305,-1.2224,-1.2224,-1.2224,-1.2077,-1.1316,-1.0783,-1.0783,-0.9895,-0.8993,-0.7936,-0.7936,-0.7403,-0.6338,-0.6338,-0.6338,-0.6338,-0.6338,-0.6338,-0.6338,-0.6338,-0.6338,-0.4709,-0.5377,-0.6092,-0.6967,0.0,0.0,0.0,0.0,0.0,0.0,0.0,0.0,0.0,0.0,0.0,0.0,0.0,0.0,0.0,0.0,0.0,0.0,0.0,0.0,0.0,0.0,0.0,0.0,0.0,0.0,-1.322,-1.3213,-1.3213,-1.3213,-1.3213,-1.3213,-1.3213,-1.3213,-1.332,-1.354,-1.354,-1.348,-1.338,-1.3494,-1.348,-1.338,-1.3494,-1.354,-1.354,-1.354,-1.354,-1.354,-1.354,-1.354,-1.3567,-1.3748,-1.3808,-1.3841,-1.4021,-1.3968,-1.3808,-1.3808,-1.3694,-1.352,-1.3407,-1.3373,-1.3313,-1.3006,-1.2916,-1.2822,-1.2822,-1.2525,-1.2305,-1.2305,-1.2305,-1.2305,-1.2305,-1.2305,-1.2305,-1.2305,-1.2305,-1.2305,-1.2305,-1.2305,-1.2305,-1.2305,-1.2305,-1.2305,-1.2305,-1.2305,-1.2305,-1.2305,-1.2305,-1.2077,-1.1391,-1.1013,-1.026,-0.8988,-0.9145,-0.8841,-0.7859,-0.7783,-0.7326,-0.6338,-0.6338,-0.6338,-0.6338,-0.6338,-0.6338,-0.6338,-0.6338,-0.6338,-0.4542,-0.5251,-0.6039,0.0,0.0,0.0,0.0,0.0,0.0,0.0,0.0,0.0,0.0,0.0,0.0,0.0,0.0,0.0,0.0,0.0,0.0,0.0,0.0,0.0,0.0,0.0,0.0,0.0,0.0,0.0,0.0,-1.2926,-1.2926,-1.2926,-1.2926,-1.2926,-1.2926,-1.2926,-1.2926,-1.2926,-1.2926,-1.2973,-1.3066,-1.3166,-1.316,-1.3066,-1.3166,-1.3213,-1.3213,-1.3213,-1.3213,-1.3213,-1.3213,-1.3213,-1.3233,-1.3434,-1.3507,-1.3534,-1.3741,-1.3674,-1.3507,-1.3507,-1.3373,-1.3193,-1.3093,-1.3066,-1.2999,-1.2692,-1.2605,-1.2605,-1.2605,-1.2452,-1.2305,-1.2305,-1.2305,-1.2305,-1.2305,-1.2305,-1.2305,-1.2305,-1.2305,-1.2305,-1.2305,-1.2305,-1.2305,-1.2305,-1.2305,-1.2305,-1.2305,-1.2305,-1.2305,-1.2305,-1.2305,-1.1996,-1.1316,-1.0484,-0.9432,-0.808,-0.8237,-0.8008,-0.7326,-0.7326,-0.7022,-0.6338,-0.6338,-0.6338,-0.6338,-0.6338,-0.6338,-0.6338,-0.6338,-0.6338,-0.5197,-0.5739,0.0,0.0,0.0,0.0,0.0,0.0,0.0,0.0,0.0,0.0,0.0,0.0,0.0,0.0,0.0,0.0,0.0,0.0,0.0,0.0,0.0,0.0,0.0,0.0,0.0,0.0,0.0,0.0,0.0,-1.2305,-1.2305,-1.2305,-1.2305,-1.2305,-1.2305,-1.2305,-1.2305,-1.2305,-1.2305,-1.2458,-1.2829,-1.306,-1.3033,-1.2835,-1.3066,-1.32,-1.32,-1.32,-1.32,-1.32,-1.32,-1.32,-1.32,-1.32,-1.3206,-1.3206,-1.3213,-1.3206,-1.3206,-1.3206,-1.32,-1.314,-1.2916,-1.2822,-1.2755,-1.2385,-1.2305,-1.2305,-1.2305,-1.2305,-1.2305,-1.2305,-1.2305,-1.2305,-1.2305,-1.2305,-1.2305,-1.2305,-1.2305,-1.2305,-1.2305,-1.2305,-1.2305,-1.2305,-1.2305,-1.2305,-1.2305,-1.2305,-1.2305,-1.2305,-1.2305,-1.2305,-1.2305,-0.9879,-0.83,-0.83,-0.7019,-0.6338,-0.6338,-0.6338,-0.6338,-0.6338,-0.6338,-0.6338,-0.6338,-0.6338,-0.6338,-0.6338,-0.6338,-0.6338,-0.4914,0.0,0.0,0.0,0.0,0.0,0.0,0.0,0.0,0.0,0.0,0.0,0.0,0.0,0.0,0.0,0.0,0.0,0.0,0.0,0.0,0.0,0.0,0.0,0.0,0.0,0.0,0.0,0.0,0.0,0.0,-1.2305,-1.2305,-1.2305,-1.2305,-1.2305,-1.2305,-1.2305,-1.2305,-1.2305,-1.2305,-1.2345,-1.2438,-1.2525,-1.2518,-1.2438,-1.2532,-1.2572,-1.2572,-1.2572,-1.2572,-1.2572,-1.2572,-1.2572,-1.2599,-1.2806,-1.2886,-1.2913,-1.3133,-1.3066,-1.2886,-1.2886,-1.2739,-1.2552,-1.2458,-1.2438,-1.2418,-1.2325,-1.2305,-1.2305,-1.2305,-1.2305,-1.2305,-1.2305,-1.2305,-1.2305,-1.2305,-1.2305,-1.2305,-1.2305,-1.2305,-1.2305,-1.2305,-1.2305,-1.2305,-1.2305,-1.2305,-1.2305,-1.2305,-1.2305,-1.2305,-1.2305,-1.2305,-1.2305,-1.2305,-1.0271,-0.8385,-0.7019,-0.6486,-0.6338,-0.6338,-0.6338,-0.6338,-0.6338,-0.6338,-0.6338,-0.6338,-0.6338,-0.6338,-0.6338,-0.6338,-0.6338,-0.5405,0.0,0.0,0.0,0.0,0.0,0.0,0.0,0.0,0.0,0.0,0.0,0.0,0.0,0.0,0.0,0.0,0.0,0.0,0.0,0.0,0.0,0.0,0.0,0.0,0.0,0.0,0.0,0.0,0.0,0.0,-1.2305,-1.2305,-1.2305,-1.2305,-1.2305,-1.2305,-1.2305,-1.2305,-1.2305,-1.2305,-1.2305,-1.2305,-1.2305,-1.2305,-1.2305,-1.2305,-1.2305,-1.2305,-1.2305,-1.2305,-1.2305,-1.2305,-1.2305,-1.2325,-1.2505,-1.2565,-1.2599,-1.2786,-1.2726,-1.2565,-1.2565,-1.2452,-1.2305,-1.2305,-1.2305,-1.2305,-1.2305,-1.2305,-1.2305,-1.2305,-1.2305,-1.2305,-1.2305,-1.2305,-1.2305,-1.2305,-1.2305,-1.2305,-1.2305,-1.2305,-1.2305,-1.2305,-1.2305,-1.2305,-1.2305,-1.2305,-1.2305,-1.2305,-1.2305,-1.2305,-1.2305,-1.2305,-1.2305,-1.2305,-0.9744,-0.7557,-0.6416,-0.6338,-0.6338,-0.6338,-0.6338,-0.6338,-0.6338,-0.6338,-0.6338,-0.6338,-0.6338,-0.6338,-0.6338,-0.6338,-0.6338,0.0,0.0,0.0,0.0,0.0,0.0,0.0,0.0,0.0,0.0,0.0,0.0,0.0,0.0,0.0,0.0,0.0,0.0,0.0,0.0,0.0,0.0,0.0,0.0,0.0,0.0,0.0,0.0,0.0,0.0,0.0,-1.2225,-1.2225,-1.2225,-1.2225,-1.2225,-1.2225,-1.2225,-1.2225,-1.2225,-1.2225,-1.2225,-1.2225,-1.2278,-1.2305,-1.2305,-1.2305,-1.2305,-1.2305,-1.2305,-1.2305,-1.2305,-1.2305,-1.2305,-1.2305,-1.2305,-1.2305,-1.2305,-1.2305,-1.2305,-1.2305,-1.2305,-1.2305,-1.2305,-1.2305,-1.2305,-1.2305,-1.2305,-1.2305,-1.2305,-1.2305,-1.2305,-1.2305,-1.2305,-1.2305,-1.2305,-1.2305,-1.2305,-1.2305,-1.2305,-1.2305,-1.2305,-1.2305,-1.2305,-1.2305,-1.2305,-1.2305,-1.2305,-1.2305,-1.2305,-1.2305,-1.2305,-1.2305,-1.215,-1.1774,-0.838,-0.6338,-0.6338,-0.6338,-0.6338,-0.6338,-0.6338,-0.6338,-0.6338,-0.6338,-0.6338,-0.6338,-0.6338,-0.6338,-0.6338,-0.6338,-0.6338,0.0,0.0,0.0,0.0,0.0,0.0,0.0,0.0,0.0,0.0,0.0,0.0,0.0,0.0,0.0,0.0,0.0,0.0,0.0,0.0,0.0,0.0,0.0,0.0,0.0,0.0,0.0,0.0,0.0,0.0,-1.1617,-1.1617,-1.1617,-1.1617,-1.1617,-1.1617,-1.1617,-1.1617,-1.1617,0.0,-1.1617,-1.1617,-1.163,-1.2091,-1.2305,-1.2305,-1.2305,-1.2305,-1.2305,-1.2305,-1.2305,-1.2305,-1.2305,-1.2305,-1.2305,-1.2305,-1.2305,-1.2305,-1.2305,-1.2305,-1.2305,-1.2305,-1.2305,-1.2305,-1.2305,-1.2305,-1.2305,-1.2305,-1.2305,-1.2305,-1.2305,-1.2305,-1.2305,-1.2305,-1.2305,-1.2305,-1.2305,-1.2305,-1.2305,-1.2305,-1.2305,-1.2305,-1.2305,-1.2305,-1.2305,-1.2305,-1.2305,-1.2305,-1.2305,-1.2305,-1.2305,-1.2305,-1.2305,-1.1019,-0.7855,-0.6795,-0.6338,-0.6338,-0.6338,-0.6338,-0.6338,-0.6338,-0.6338,-0.6338,-0.6338,-0.6338,-0.6338,-0.6338,-0.6338,-0.6338,-0.6338,-0.6338,0.0,0.0,0.0,0.0,0.0,0.0,0.0,0.0,0.0,0.0,0.0,0.0,0.0,0.0,0.0,0.0,0.0,0.0,0.0,0.0,0.0,0.0,0.0,0.0,0.0,0.0,0.0,0.0,0.0,-1.1423,-1.1423,-1.1423,-1.1423,-1.1423,-1.1423,-1.1423,-1.1423,-1.1423,-1.1423,-1.1423,-1.1423,-1.1423,-1.1436,-1.1744,-1.1884,-1.1891,-1.2031,-1.2098,-1.2104,-1.2245,-1.2305,-1.2305,-1.2305,-1.2305,-1.2305,-1.2305,-1.2305,-1.2305,-1.2305,-1.2305,-1.2305,-1.2305,-1.2305,-1.2305,-1.2305,-1.2305,-1.2305,-1.2305,-1.2305,-1.2305,-1.2305,-1.2305,-1.2305,-1.2305,-1.2305,-1.2305,-1.2305,-1.2305,-1.2305,-1.2305,-1.2305,-1.2305,-1.2305,-1.2305,-1.2305,-1.2305,-1.2305,-1.2305,-1.2305,-1.2305,-1.2305,-1.2305,-1.0565,-0.8609,-0.649,-0.6338,-0.6338,-0.6338,-0.6338,-0.6338,-0.6338,-0.6338,-0.6338,-0.6338,-0.6338,-0.6338,-0.6338,-0.6338,-0.6338,-0.6338,-0.6338,-0.6338,0.0,0.0,0.0,0.0,0.0,0.0,0.0,0.0,0.0,0.0,0.0,0.0,0.0,0.0,0.0,0.0,0.0,0.0,0.0,0.0,0.0,0.0,0.0,0.0,0.0,0.0,0.0,0.0,0.0,-1.1276,-1.1276,-1.1276,-1.1276,-1.1276,-1.1276,-1.1276,-1.1276,-1.1276,-1.1276,-1.1276,-1.1276,-1.1276,-1.1276,-1.1276,-1.1329,-1.1443,-1.1683,-1.179,-1.181,-1.2051,-1.2184,-1.2225,-1.2225,-1.2258,-1.2305,-1.2305,-1.2305,-1.2305,-1.2305,-1.2305,-1.2305,-1.2305,-1.2305,-1.2305,-1.2305,-1.2305,-1.2305,-1.2305,-1.2305,-1.2305,-1.2305,-1.2305,-1.2305,-1.2305,-1.2305,-1.2305,-1.2305,-1.2305,-1.2305,-1.2305,-1.2305,-1.2305,-1.2305,-1.2305,-1.2305,-1.2305,-1.2305,-1.2305,-1.2305,-1.2305,-1.2003,-1.1316,-0.8309,-0.6338,-0.6338,-0.6338,-0.6338,-0.6338,-0.6338,-0.6338,-0.6338,-0.6338,-0.6338,-0.6338,-0.6338,-0.6338,-0.6338,-0.6338,-0.6338,-0.6338,-0.6338,-0.6338,0.0,0.0,0.0,0.0,0.0,0.0,0.0,0.0,0.0,0.0,0.0,0.0,0.0,0.0,0.0,0.0,0.0,0.0,0.0,0.0,0.0,0.0,0.0,0.0,0.0,0.0,0.0,0.0,-1.0739,-1.0739,-1.0739,-1.0739,-1.0739,-1.0739,-1.0739,-1.0739,-1.0739,-1.0739,-1.0739,-1.0739,-1.0739,-1.0739,-1.0739,-1.0739,-1.0949,-1.143,-1.147,-1.1483,-1.149,-1.153,-1.1697,-1.1924,-1.1924,-1.2084,-1.2305,-1.2305,-1.2305,-1.2305,-1.2305,-1.2305,-1.2305,-1.2305,-1.2305,-1.2305,-1.2305,-1.2305,-1.2305,-1.2305,-1.2305,-1.2305,-1.2305,-1.2305,-1.2305,-1.2305,-1.2305,-1.2305,-1.2305,-1.2305,-1.2305,-1.2305,-1.2305,-1.2305,-1.2305,-1.2305,-1.2305,-1.2305,-1.2305,-1.2305,-1.2305,-1.2305,-1.0944,-0.7476,-0.6641,-0.6338,-0.6338,-0.6338,-0.6338,-0.6338,-0.6338,-0.6338,-0.6338,-0.6338,-0.6338,-0.6338,-0.6338,-0.6338,-0.6338,-0.6338,-0.6338,-0.6338,-0.6338,-0.6338,0.0,0.0,0.0,0.0,0.0,0.0,0.0,0.0,0.0,0.0,0.0,0.0,0.0,0.0,0.0,0.0,0.0,0.0,0.0,0.0,0.0,0.0,0.0,0.0,0.0,0.0,0.0,0.0,-1.0624,-1.0624,-1.0624,-1.0624,-1.0624,-1.0624,-1.0624,-1.0624,-1.0624,-1.0624,-1.0624,-1.0624,-1.0624,-1.0624,-1.0624,-1.0624,-1.0701,-1.0949,-1.1109,-1.1182,-1.1196,-1.1356,-1.1503,-1.1623,-1.1623,-1.1697,-1.181,-1.181,-1.1917,-1.2058,-1.2058,-1.2164,-1.2305,-1.2305,-1.2305,-1.2305,-1.2305,-1.2305,-1.2305,-1.2305,-1.2305,-1.2305,-1.2305,-1.2305,-1.2305,-1.2305,-1.2305,-1.2305,-1.2305,-1.2305,-1.2305,-1.2305,-1.2305,-1.2305,-1.2305,-1.2305,-1.2305,-1.2305,-1.2305,-1.1471,-0.921,-0.8908,-0.8228,-0.649,-0.6338,-0.6338,-0.6338,-0.6338,-0.6338,-0.6338,-0.6338,-0.6338,-0.6338,-0.6338,-0.6338,-0.6338,-0.6338,-0.6217,-0.6132,-0.6132,-0.6088,-0.6003,-0.6003,-0.6003,0.0,0.0,0.0,0.0,0.0,0.0,0.0,0.0,0.0,0.0,0.0,0.0,0.0,0.0,0.0,0.0,0.0,0.0,0.0,0.0,0.0,0.0,0.0,0.0,0.0,0.0,0.0,0.0,-1.0577,-1.0591,-1.0454,-1.0521,-1.0624,-1.0624,-1.0624,-1.0624,-1.0624,-1.0624,-1.0624,-1.0624,-1.0624,-1.0624,-1.0624,-1.0624,-1.0624,-1.0631,-1.0788,-1.0882,-1.0902,-1.1116,-1.1249,-1.1316,-1.1316,-1.1363,-1.1423,-1.1423,-1.1563,-1.1757,-1.1757,-1.1897,-1.2091,-1.2171,-1.2191,-1.2204,-1.2278,-1.2305,-1.2305,-1.2305,-1.2305,-1.2305,-1.2305,-1.2305,-1.2305,-1.2305,-1.2305,-1.2305,-1.2305,-1.2305,-1.2305,-1.2305,-1.2305,-1.2305,-1.2305,-1.2305,-1.2305,-1.2305,-1.2305,-1.1242,-0.8232,-0.7855,-0.7855,-0.7855,-0.7855,-0.7855,-0.7855,-0.6868,-0.6338,-0.6338,-0.6338,-0.6338,-0.6338,-0.6338,-0.6224,-0.6146,-0.6169,-0.6132,-0.603,-0.5989,-0.5915,-0.58,-0.58,-0.58,0.0,0.0,0.0,0.0,0.0,0.0,0.0,0.0,0.0,0.0,0.0,0.0,0.0,0.0,0.0,0.0,0.0,0.0,0.0,0.0,0.0,0.0,0.0,0.0,0.0,0.0,0.0,0.0,-1.0401,-1.0441,-1.0154,-1.0408,-1.0624,-1.0624,-1.0624,-1.0624,-1.0624,-1.0624,-1.0624,-1.0624,-1.0624,-1.0624,-1.0624,-1.0624,-1.0624,-1.0624,-1.0638,-1.0645,-1.0651,-1.0665,-1.0768,-1.1015,-1.1015,-1.1182,-1.1423,-1.1423,-1.1436,-1.145,-1.145,-1.1456,-1.1516,-1.1797,-1.1891,-1.1944,-1.2218,-1.2305,-1.2305,-1.2305,-1.2305,-1.2305,-1.2305,-1.2305,-1.2305,-1.2305,-1.2305,-1.2305,-1.2305,-1.2305,-1.2305,-1.2305,-1.2305,-1.2305,-1.2305,-1.2305,-1.2305,-1.2305,-1.2305,-1.2224,-1.1996,-1.2003,-1.2003,-1.2003,-1.2003,-1.2003,-1.2003,-0.8456,-0.6338,-0.6338,-0.6338,-0.6338,-0.6338,-0.6338,-0.6122,-0.583,-0.5925,-0.5993,-0.603,-0.5884,-0.581,-0.58,-0.58,-0.58,0.0,0.0,0.0,0.0,0.0,0.0,0.0,0.0,0.0,0.0,0.0,0.0,0.0,0.0,0.0,0.0,0.0,0.0,0.0,0.0,0.0,0.0,0.0,0.0,0.0,0.0,0.0,0.0,0.0,-0.9947,-0.9846,-0.994,-1.0,-1.0,-1.0,-1.0,-1.0,-1.0,-1.0,-1.0,-1.0,-1.0,-1.0007,-1.0187,-1.0274,-1.0287,-1.0481,-1.0624,-1.0624,-1.0624,-1.0685,-1.0715,-1.0715,-1.0782,-1.0868,-1.0868,-1.0989,-1.1149,-1.1149,-1.1269,-1.1443,-1.155,-1.167,-1.179,-1.1897,-1.2104,-1.2305,-1.2305,-1.2305,-1.2305,-1.2305,-1.2118,-1.1897,-1.177,-1.1737,-1.1844,-1.2225,-1.2305,-1.2305,-1.2305,-1.2305,-1.2305,-1.2305,-1.2305,-1.2305,-1.2305,-1.2305,-1.2305,-1.2305,-1.2305,-1.2305,-1.2305,-1.2305,-1.1242,-0.8685,-0.7096,-0.6338,-0.6338,-0.6338,-0.6338,-0.6338,-0.6338,-0.6115,-0.5806,-0.5654,-0.5633,-0.5745,-0.5691,-0.5613,-0.5518,-0.5518,-0.5518,0.0,0.0,0.0,0.0,0.0,0.0,0.0,0.0,0.0,0.0,0.0,0.0,0.0,0.0,0.0,0.0,0.0,0.0,0.0,0.0,0.0,0.0,0.0,0.0,0.0,0.0,0.0,0.0,0.0,0.0,-0.9539,-0.9626,-0.9686,-0.9686,-0.9686,-0.9686,-0.9686,-0.9686,-0.9686,-0.9686,-0.9686,-0.9686,-0.9693,-0.988,-0.9973,-0.998,-1.018,-1.0436,-1.0624,-1.0624,-1.0624,-1.0624,-1.0624,-1.0624,-1.0624,-1.0624,-1.0681,-1.0848,-1.0848,-1.0975,-1.1149,-1.1249,-1.139,-1.1536,-1.1603,-1.1937,-1.2218,-1.183,-1.1717,-1.1717,-1.1717,-1.1623,-1.1503,-1.1443,-1.1476,-1.161,-1.1937,-1.2164,-1.2305,-1.2305,-1.2305,-1.2305,-1.2305,-1.2305,-1.2305,-1.2305,-1.2305,-1.2305,-1.2305,-1.2305,-1.2305,-1.2305,-1.1093,-0.921,-0.649,-0.6338,-0.6338,-0.6338,-0.6338,-0.6338,-0.6338,-0.6143,-0.5861,-0.5657,-0.546,-0.541,-0.5511,-0.5511,-0.546,-0.5428,-0.5428,-0.5428,0.0,0.0,0.0,0.0,0.0,0.0,0.0,0.0,0.0,0.0,0.0,0.0,0.0,0.0,0.0,0.0,0.0,0.0,0.0,0.0,0.0,0.0,0.0,0.0,0.0,0.0,0.0,0.0,-0.9492,-0.9532,-0.919,-0.9499,-0.9659,-0.9659,-0.9659,-0.9659,-0.9659,-0.9659,-0.9659,-0.9659,-0.9659,-0.9659,-0.9659,-0.9666,-0.9666,-0.9673,-0.9679,-1.0007,-1.0598,-1.0604,-1.0618,-1.0624,-1.0624,-1.0624,-1.0624,-1.0624,-1.0624,-1.0624,-1.0624,-1.0624,-1.0672,-1.0889,-1.1042,-1.1149,-1.1343,-1.1797,-1.2017,-1.0882,-1.0624,-1.0624,-1.0624,-1.0835,-1.1162,-1.1356,-1.155,-1.163,-1.1443,-1.185,-1.2265,-1.2291,-1.2305,-1.2305,-1.2305,-1.2305,-1.2305,-1.2305,-1.2305,-1.2305,-1.2305,-1.2305,-1.2224,-1.215,-0.8609,-0.6338,-0.6338,-0.6338,-0.6254,-0.6314,-0.6311,-0.6311,-0.6311,-0.5741,-0.5428,-0.5428,-0.5428,-0.5428,-0.5428,-0.5428,-0.5428,-0.5428,-0.5428,-0.5428,-0.3566,0.0,0.0,0.0,0.0,0.0,0.0,0.0,0.0,0.0,0.0,0.0,0.0,0.0,0.0,0.0,0.0,0.0,0.0,0.0,0.0,0.0,0.0,0.0,0.0,0.0,0.0,0.0,-0.9005,-0.9018,-0.8931,-0.9005,-0.9051,-0.9051,-0.9051,-0.9051,-0.9051,-0.9051,-0.9051,-0.9051,-0.9051,-0.9051,-0.9058,-0.9265,-0.9359,-0.9372,-0.9593,-0.9773,-0.994,-1.0154,-1.0367,-1.0624,-1.0624,-1.0624,-1.0624,-1.0624,-1.0624,-1.0624,-1.0624,-1.0624,-1.0638,-1.0719,-1.0695,-1.0728,-1.0782,-1.0915,-1.0975,-1.0712,-1.0624,-1.0624,-1.0624,-1.0641,-1.0735,-1.0788,-1.0842,-1.0862,-1.0815,-1.0929,-1.1289,-1.2138,-1.2305,-1.2305,-1.2305,-1.2305,-1.2305,-1.2305,-1.2305,-1.2305,-1.2305,-1.2305,-1.1168,-0.8304,-0.6945,-0.6338,-0.6338,-0.6338,-0.6149,-0.5706,-0.5679,-0.5679,-0.5679,-0.5518,-0.5428,-0.5428,-0.5428,-0.5428,-0.5428,-0.5428,-0.5428,-0.5428,-0.5428,-0.5428,0.0,0.0,0.0,0.0,0.0,0.0,0.0,0.0,0.0,0.0,0.0,0.0,0.0,0.0,0.0,0.0,0.0,0.0,0.0,0.0,0.0,0.0,0.0,0.0,0.0,-0.8804,-0.8804,-0.8804,-0.8804,-0.8804,-0.8804,-0.8804,-0.8804,-0.8804,-0.8804,-0.8804,-0.8804,-0.8804,-0.8804,-0.8804,-0.8804,-0.8804,-0.8811,-0.8985,-0.9058,-0.9072,-0.9245,-0.9385,-0.9512,-0.9679,-0.9927,-1.0268,-1.0327,-1.0374,-1.0388,-1.0577,-1.0624,-1.0624,-1.0624,-1.0624,-1.0624,-1.0624,-1.0624,-1.0624,-1.0624,-1.0624,-1.0624,-1.0624,-1.0624,-1.0624,-1.0624,-1.0624,-1.0624,-1.0624,-1.0624,-1.0624,-1.0624,-1.0624,-1.0974,-1.2078,-1.1911,-1.1577,-1.1577,-1.1577,-1.1577,-1.1577,-1.1577,-1.1577,-1.1577,-1.0289,-0.8517,-0.6172,-0.5957,-0.5957,-0.5957,-0.5957,-0.5806,-0.5452,-0.5428,-0.5428,-0.5428,-0.5428,-0.5428,-0.5428,-0.5428,-0.5428,-0.5428,-0.5428,-0.5428,-0.5428,-0.5428,-0.5428,0.0,0.0,0.0,0.0,0.0,0.0,-0.5678,-0.5598,0.0,0.0,0.0,0.0,0.0,0.0,0.0,0.0,0.0,0.0,0.0,0.0,0.0,0.0,0.0,0.0,-0.8804,-0.8804,-0.8804,-0.8804,-0.8804,-0.8804,-0.8804,-0.8804,-0.8804,-0.8804,-0.8804,-0.8804,-0.8804,-0.8804,-0.8804,-0.8804,-0.8804,-0.8804,-0.8804,-0.8804,-0.8804,-0.8804,-0.8804,-0.8958,-0.9137,-0.9137,-0.9385,-0.9706,-0.9967,-1.0067,-1.01,-1.0367,-1.0544,-1.0514,-1.0514,-1.0598,-1.0624,-1.0624,-1.0624,-1.0624,-1.0624,-1.0624,-1.0624,-1.0624,-1.0624,-1.0624,-1.0624,-1.0624,-1.0624,-1.0624,-1.0624,-1.0624,-1.0624,-1.0624,-1.0868,-1.1904,-1.1269,-1.0624,-1.0624,-1.0624,-1.0624,-1.0624,-1.0624,-1.0624,-1.0624,-0.7572,-0.5428,-0.5428,-0.5428,-0.5428,-0.5428,-0.5428,-0.5428,-0.5428,-0.5428,-0.5428,-0.5428,-0.5428,-0.5428,-0.5428,-0.5428,-0.5428,-0.5428,-0.5428,-0.5428,-0.5428,-0.5428,-0.5428,0.0,-0.5277,-0.5371,0.0,0.0,0.0,-0.4576,-0.4669,0.0,0.0,0.0,0.0,0.0,0.0,0.0,0.0,0.0,0.0,0.0,0.0,0.0,0.0,0.0,0.0,-0.8804,-0.8804,-0.8804,-0.8804,-0.8804,-0.8804,-0.8804,-0.8804,-0.8804,-0.8804,-0.8804,-0.8804,-0.8804,-0.8804,-0.8804,-0.8804,-0.8804,-0.8804,-0.8804,-0.8804,-0.8804,-0.8804,-0.8804,-0.8838,-0.8891,-0.8891,-0.9205,-0.9693,-0.9746,-0.9766,-0.9773,-0.9833,-1.0,-1.02,-1.02,-1.0361,-1.0624,-1.0624,-1.0624,-1.0624,-1.0624,-1.0624,-1.0624,-1.0624,-1.0624,-1.0624,-1.0624,-1.0624,-1.0624,-1.0624,-1.0624,-1.0624,-1.0624,-1.0624,-1.0692,-1.092,-1.0779,-1.0624,-1.0624,-1.0624,-1.0624,-1.0624,-1.0624,-1.0624,-1.0624,-0.7572,-0.5428,-0.5428,-0.5428,-0.5428,-0.5428,-0.5428,-0.5428,-0.5428,-0.5428,-0.5428,-0.5428,-0.5428,-0.5428,-0.5428,-0.5428,-0.5428,-0.5428,-0.5428,-0.5428,-0.5428,-0.5428,-0.5428,0.0,0.0,-0.5898,-0.5752,0.0,0.0,0.0,0.0,-0.4847,0.0,0.0,0.0,0.0,0.0,0.0,0.0,0.0,0.0,0.0,0.0,0.0,0.0,0.0,0.0,-0.8577,-0.8591,-0.8651,-0.8798,-0.8804,-0.8804,-0.8804,-0.8804,-0.8804,-0.8804,-0.8804,-0.8804,-0.8804,-0.8804,-0.8804,-0.8804,-0.8804,-0.8804,-0.8804,-0.8804,-0.8804,-0.8804,-0.8804,-0.8804,-0.8804,-0.8804,-0.8985,-0.9259,-0.9406,-0.9459,-0.9479,-0.9626,-0.978,-0.99,-0.99,-1.0,-1.012,-1.012,-1.0221,-1.0341,-1.0341,-1.0441,-1.0624,-1.0624,-1.0624,-1.0624,-1.0624,-1.0624,-1.0624,-1.0624,-1.0624,-1.0624,-1.0624,-1.0624,-1.0624,-1.0624,-1.0624,-1.0624,-1.0624,-1.0624,-1.0624,-1.0624,-1.0624,-0.997,-0.8221,-0.647,-0.5428,-0.5428,-0.5428,-0.5428,-0.5428,-0.5428,-0.5428,-0.5428,-0.5428,-0.5428,-0.5428,-0.5428,-0.5428,-0.5428,-0.5428,-0.5428,-0.5428,-0.5428,-0.5428,-0.5428,-0.5428,-0.5428,0.0,0.0,0.0,0.0,0.0,-0.5773,0.0,0.0,0.0,-0.5397,0.0,0.0,0.0,0.0,0.0,0.0,0.0,0.0,0.0,0.0,0.0,0.0,0.0,0.0,0.0,-0.8199,-0.8257,-0.8611,-0.853,-0.8537,-0.8711,-0.8724,-0.8751,-0.8804,-0.8804,-0.8804,-0.8804,-0.8804,-0.8804,-0.8804,-0.8804,-0.8804,-0.8804,-0.8804,-0.8804,-0.8804,-0.8804,-0.8804,-0.8804,-0.8804,-0.8804,-0.8831,-0.901,-0.9103,-0.913,-0.9426,-0.9552,-0.9599,-0.9599,-0.9633,-0.9686,-0.9686,-0.984,-1.0033,-1.0033,-1.0241,-1.0474,-1.0474,-1.0577,-1.0624,-1.0624,-1.0624,-1.0624,-1.0624,-1.0624,-1.0624,-1.0624,-1.0624,-1.0624,-1.0624,-1.0624,-1.0624,-1.0624,-1.0624,-1.0364,-0.9709,-0.9582,-0.8608,-0.5752,-0.5428,-0.5428,-0.5428,-0.5428,-0.5428,-0.5428,-0.5428,-0.5428,-0.5428,-0.5428,-0.5428,-0.5428,-0.5428,-0.5428,-0.5428,-0.5428,-0.5428,-0.5428,-0.5428,-0.5428,-0.5428,-0.5428,-0.5428,0.0,0.0,0.0,0.0,-0.6949,0.0,0.0,0.0,-0.5411,-0.4696,0.0,0.0,0.0,0.0,0.0,0.0,0.0,0.0,0.0,0.0,0.0,0.0,0.0,0.0,0.0,-0.7554,-0.7415,-0.7935,-0.7483,-0.7575,-0.8383,-0.8424,-0.8544,-0.8798,-0.8804,-0.8804,-0.8804,-0.8804,-0.8804,-0.8804,-0.8804,-0.8804,-0.8804,-0.8804,-0.8804,-0.8804,-0.8804,-0.8804,-0.8804,-0.8804,-0.8804,-0.8811,-0.8844,-0.8858,-0.8864,-0.8898,-0.9065,-0.9236,-0.9236,-0.9459,-0.9686,-0.9686,-0.9706,-0.9733,-0.9733,-0.9933,-1.0167,-1.0167,-1.0354,-1.0624,-1.0624,-1.0624,-1.0624,-1.0624,-1.0624,-1.0624,-1.0624,-1.0624,-1.0624,-1.0624,-1.0624,-1.0624,-1.0624,-1.0624,-0.9582,-0.647,-0.6013,-0.5818,-0.5428,-0.5428,-0.5428,-0.5428,-0.5428,-0.5428,-0.5428,-0.5428,-0.5428,-0.5428,-0.5428,-0.5428,-0.5428,-0.5428,-0.5428,-0.5428,-0.5428,-0.5428,-0.5428,-0.5428,-0.5428,-0.5428,-0.5428,-0.5428,0.0,0.0,0.0,0.0,0.0,0.0,-0.5909,0.0,-0.5469,0.0,0.0,0.0,0.0,0.0,0.0,0.0,0.0,0.0,0.0,0.0,0.0,0.0,0.0,0.0,0.0,0.0,0.0,0.0,-0.7125,-0.7261,-0.7863,-0.8232,-0.843,-0.855,-0.8717,-0.8804,-0.8804,-0.8804,-0.8804,-0.8804,-0.8804,-0.8804,-0.8804,-0.8804,-0.8804,-0.8804,-0.8804,-0.8804,-0.8804,-0.8804,-0.8804,-0.8804,-0.8804,-0.8804,-0.8804,-0.8804,-0.8884,-0.8985,-0.8985,-0.9072,-0.9198,-0.9372,-0.9426,-0.9459,-0.9633,-0.9773,-0.9886,-1.0,-1.0127,-1.0335,-1.0564,-1.0624,-1.0624,-1.0624,-1.0624,-1.0624,-1.0624,-1.0624,-1.0624,-1.0624,-1.0624,-0.997,-0.7962,-0.7572,-0.7055,-0.5624,-0.5428,-0.5428,-0.5428,-0.5428,-0.5428,-0.5428,-0.7181,-0.8415,-0.8415,-0.6535,-0.5428,-0.5428,-0.5428,-0.5428,-0.5428,-0.5428,-0.5428,-0.5428,-0.5428,-0.5428,-0.5428,-0.5428,-0.5428,-0.5428,-0.5428,-0.5428,-0.7642,0.0,0.0,0.0,0.0,0.0,0.0,0.0,0.0,0.0,0.0,0.0,0.0,0.0,0.0,0.0,0.0,0.0,0.0,0.0,0.0,0.0,0.0,0.0,0.0,0.0,0.0,0.0,0.0,-0.6693,-0.7308,-0.7762,-0.8116,-0.837,-0.8577,-0.8731,-0.8804,-0.8804,-0.8804,-0.8804,-0.8804,-0.8804,-0.8804,-0.8804,-0.8804,-0.8804,-0.8804,-0.8804,-0.8804,-0.8804,-0.8804,-0.8804,-0.8804,-0.8804,-0.8804,-0.8804,-0.8804,-0.8804,-0.8804,-0.8804,-0.8844,-0.9051,-0.9064,-0.9158,-0.9379,-0.9499,-0.9599,-0.9766,-0.9893,-1.0067,-1.0524,-1.0624,-1.0624,-1.0624,-1.0624,-1.0624,-1.0624,-0.9843,-0.9454,-1.0428,-1.0624,-0.9779,-0.7246,-0.6793,-0.6793,-0.6793,-0.6793,-0.6793,-0.6793,-0.6793,-0.6793,-0.6793,-0.8221,-0.9192,-0.9192,-0.6859,-0.5428,-0.5428,-0.5428,-0.5428,-0.5428,-0.5428,-0.5428,-0.5428,-0.5428,-0.5428,-0.5428,-0.5428,-0.5428,-0.5428,-0.5428,-0.5428,0.0,0.0,0.0,-0.6977,0.0,0.0,0.0,0.0,-0.6982,0.0,0.0,0.0,0.0,0.0,0.0,0.0,0.0,0.0,0.0,0.0,0.0,0.0,0.0,0.0,0.0,0.0,0.0,0.0,0.0,0.0,-0.6919,-0.7054,-0.7468,-0.8393,-0.8383,-0.8524,-0.8804,-0.8804,-0.8804,-0.8804,-0.8804,-0.8804,-0.8804,-0.8804,-0.8804,-0.8804,-0.8804,-0.8804,-0.8804,-0.8804,-0.8804,-0.8804,-0.8804,-0.8804,-0.8804,-0.8804,-0.8804,-0.8804,-0.8804,-0.8804,-0.8804,-0.8818,-0.8824,-0.8824,-0.8831,-0.9031,-0.9223,-0.9379,-0.9686,-1.0067,-1.0524,-1.0624,-1.0624,-1.0624,-1.0624,-1.0624,-1.0624,-0.7962,-0.6535,-0.997,-1.0624,-1.0561,-1.0428,-1.0428,-1.0428,-1.0428,-1.0428,-1.0428,-1.0428,-1.0428,-1.0428,-1.0428,-0.7507,-0.5557,-0.5557,-0.5491,-0.5428,-0.5428,-0.5428,-0.5428,-0.5428,-0.5428,-0.5428,-0.5428,-0.5428,-0.5428,-0.5428,-0.5428,-0.5428,-0.5428,-0.5428,-0.5428,0.0,0.0,-1.016,-0.8511,0.0,0.0,0.0,0.0,0.0,0.0,0.0,0.0,0.0,0.0,0.0,0.0,0.0,0.0,0.0,0.0,0.0,0.0,0.0,0.0,0.0,0.0,0.0,0.0,-0.492,0.0,0.0,-0.6814,-0.7348,-0.8056,-0.827,-0.8517,-0.8804,-0.8804,-0.8804,-0.8804,-0.8804,-0.8804,-0.8804,-0.8804,-0.8804,-0.8804,-0.8804,-0.8804,-0.8804,-0.8804,-0.8804,-0.8804,-0.8804,-0.8804,-0.8804,-0.8804,-0.8804,-0.8804,-0.8804,-0.8804,-0.8804,-0.8804,-0.8804,-0.8804,-0.8804,-0.8878,-0.8958,-0.8998,-0.9098,-0.9232,-0.9365,-0.9399,-0.9399,-0.9399,-0.9993,-1.0624,-1.0624,-0.9646,-0.9192,-1.0364,-1.0624,-1.0624,-1.0624,-1.0624,-1.0624,-1.0624,-1.0624,-1.0624,-1.0624,-1.0624,-0.9716,-0.7377,-0.6079,-0.5428,-0.5428,-0.5428,-0.5428,-0.5428,-0.5428,-0.5428,-0.5428,-0.5428,-0.5428,-0.5428,-0.5428,-0.5428,-0.5428,-0.5428,-0.5428,-0.5428,-0.5428,-0.5428,-1.0582,-1.0955,0.0,-0.9486,-0.936,0.0,-0.7887,0.0,0.0,0.0,0.0,0.0,0.0,0.0,0.0,0.0,0.0,0.0,0.0,0.0,0.0,0.0,0.0,0.0,0.0,0.0,-0.457,-0.4529,0.0,0.0,0.0,0.0,-0.6987,-0.7543,-0.8003,-0.8357,-0.8651,-0.8758,-0.8804,-0.8804,-0.8804,-0.8804,-0.8804,-0.8804,-0.8804,-0.8804,-0.8804,-0.8804,-0.8804,-0.8804,-0.8804,-0.8804,-0.8804,-0.8804,-0.8804,-0.8804,-0.8804,-0.8804,-0.8804,-0.8804,-0.8804,-0.8804,-0.8804,-0.8804,-0.8804,-0.8804,-0.8804,-0.8804,-0.8804,-0.8804,-0.8804,-0.8804,-0.8804,-0.8804,-0.9385,-0.9933,-0.9933,-1.01,-1.0247,-1.0247,-1.0477,-1.0624,-1.0624,-1.0624,-1.0624,-1.0624,-1.0624,-1.0624,-1.0624,-0.9518,-0.7897,-0.5624,-0.5428,-0.5428,-0.5428,-0.5428,-0.5428,-0.5428,-0.5428,-0.5428,-0.5428,-0.5428,-0.5428,-0.5428,-0.5428,-0.5428,-0.5428,-0.5428,-0.5428,-0.5428,-0.5428,-0.5428]},{"header":{"parameterUnit":"m.s-1","parameterCategory":1,"la1":30.6,"la2":29.2853,"lo1":-89.7004,"lo2":-87.6739,"dy":0.0162,"dx":0.0183,"nx":112,"ny":82,"refTime":"2024-07-12T00:00:00:Z","depth":0,"parameterNumber":3,"parameterNumberName":"V-component_of_WINDS"},"data":[0.0,0.0,0.0,0.0,0.0,0.0,0.0,0.0,0.0,0.0,0.0,0.0,0.0,0.0,0.0,0.0,0.0,0.0,0.0,0.0,0.0,0.0,0.0,0.0,0.0,0.0,0.0,0.0,0.0,0.0,0.0,0.0,0.0,0.0,0.0,0.0,0.0,0.0,0.0,0.0,0.0,0.0,0.0,0.0,0.0,0.0,0.0,0.0,0.0,0.0,0.0,0.0,0.0,0.0,0.0,0.0,0.0,0.0,0.0,0.0,0.0,0.0,0.0,0.0,0.0,0.0,0.0,0.0,0.0,0.0,0.0,0.0,0.0,0.0,0.0,0.0,0.0,0.0,0.0,0.0,0.0,0.0,0.0,0.0,0.0,0.0,0.0,0.0,0.0,0.0,0.0,-1.9822,-2.2538,-2.419,-2.419,-2.419,-2.2795,-1.9525,0.0,0.0,0.0,0.0,0.0,0.0,0.0,0.0,0.0,0.0,0.0,0.0,0.0,0.0,0.0,0.0,0.0,0.0,0.0,0.0,0.0,0.0,0.0,0.0,0.0,0.0,0.0,0.0,0.0,0.0,0.0,0.0,0.0,0.0,0.0,0.0,0.0,0.0,0.0,0.0,0.0,0.0,0.0,0.0,0.0,0.0,0.0,0.0,0.0,0.0,0.0,0.0,0.0,0.0,0.0,0.0,0.0,0.0,0.0,0.0,0.0,0.0,0.0,0.0,0.0,0.0,0.0,0.0,0.0,0.0,0.0,0.0,0.0,0.0,0.0,0.0,0.0,0.0,0.0,0.0,0.0,0.0,0.0,0.0,0.0,0.0,0.0,0.0,0.0,0.0,0.0,0.0,0.0,0.0,0.0,0.0,0.0,0.0,0.0,0.0,0.0,0.0,0.0,0.0,-1.8577,-2.2978,-2.3896,-2.419,-2.419,-2.419,-2.2795,-1.9525,0.0,0.0,0.0,0.0,0.0,0.0,0.0,0.0,0.0,0.0,0.0,0.0,0.0,0.0,0.0,0.0,0.0,0.0,0.0,0.0,0.0,0.0,0.0,0.0,0.0,0.0,0.0,0.0,0.0,0.0,0.0,0.0,0.0,0.0,0.0,0.0,0.0,0.0,0.0,0.0,0.0,0.0,0.0,0.0,0.0,0.0,0.0,0.0,0.0,0.0,0.0,0.0,0.0,0.0,0.0,0.0,0.0,0.0,0.0,0.0,0.0,0.0,0.0,0.0,0.0,0.0,0.0,0.0,0.0,0.0,0.0,0.0,0.0,0.0,0.0,0.0,0.0,0.0,0.0,0.0,0.0,0.0,0.0,0.0,0.0,0.0,0.0,0.0,0.0,0.0,0.0,0.0,0.0,0.0,0.0,0.0,0.0,0.0,0.0,0.0,0.0,0.0,0.0,-1.7509,-1.9748,-2.3768,-2.419,-2.419,-2.419,-2.419,-2.2795,-1.9525,-1.7803,0.0,0.0,0.0,0.0,0.0,0.0,0.0,0.0,0.0,0.0,0.0,0.0,0.0,0.0,0.0,0.0,0.0,0.0,0.0,0.0,0.0,0.0,0.0,0.0,0.0,0.0,0.0,0.0,0.0,0.0,0.0,0.0,0.0,0.0,0.0,0.0,0.0,0.0,0.0,0.0,0.0,0.0,0.0,0.0,0.0,0.0,0.0,0.0,0.0,0.0,0.0,0.0,0.0,0.0,0.0,0.0,0.0,0.0,0.0,0.0,0.0,0.0,0.0,0.0,0.0,0.0,0.0,0.0,0.0,0.0,0.0,0.0,0.0,0.0,0.0,0.0,0.0,0.0,0.0,0.0,0.0,0.0,0.0,0.0,0.0,0.0,0.0,0.0,0.0,0.0,0.0,0.0,0.0,0.0,0.0,0.0,0.0,0.0,0.0,0.0,0.0,0.0,-1.9399,-2.0996,-2.3896,-2.419,-2.419,-2.419,-2.3841,-2.2391,-1.9473,-1.7436,0.0,0.0,0.0,0.0,0.0,0.0,0.0,0.0,0.0,0.0,0.0,0.0,0.0,0.0,0.0,0.0,0.0,0.0,0.0,0.0,0.0,0.0,0.0,0.0,0.0,0.0,0.0,0.0,0.0,0.0,0.0,0.0,0.0,0.0,0.0,0.0,0.0,0.0,0.0,0.0,0.0,0.0,0.0,0.0,0.0,0.0,0.0,0.0,0.0,0.0,0.0,0.0,0.0,0.0,0.0,0.0,0.0,0.0,0.0,0.0,0.0,0.0,0.0,0.0,0.0,0.0,0.0,0.0,0.0,0.0,0.0,0.0,0.0,0.0,0.0,0.0,0.0,0.0,0.0,0.0,0.0,0.0,0.0,0.0,0.0,0.0,0.0,0.0,0.0,0.0,0.0,0.0,0.0,0.0,0.0,0.0,0.0,0.0,0.0,0.0,0.0,0.0,-1.973,-2.2299,-2.4025,-2.419,-2.419,-2.419,-2.2832,-2.1215,-1.9399,-1.639,0.0,0.0,0.0,0.0,0.0,0.0,0.0,0.0,0.0,0.0,0.0,0.0,0.0,0.0,0.0,0.0,0.0,0.0,0.0,0.0,0.0,0.0,0.0,0.0,0.0,0.0,0.0,0.0,0.0,0.0,0.0,0.0,0.0,0.0,0.0,0.0,0.0,0.0,0.0,0.0,0.0,0.0,0.0,0.0,0.0,0.0,0.0,0.0,0.0,0.0,0.0,0.0,0.0,0.0,0.0,0.0,0.0,0.0,0.0,0.0,0.0,0.0,0.0,0.0,0.0,0.0,0.0,0.0,0.0,0.0,0.0,0.0,0.0,0.0,0.0,0.0,0.0,0.0,0.0,0.0,0.0,0.0,0.0,0.0,0.0,0.0,0.0,0.0,0.0,0.0,0.0,0.0,0.0,0.0,0.0,0.0,0.0,0.0,0.0,0.0,0.0,0.0,-1.9292,-2.1804,0.0,-2.419,-2.419,-2.419,-2.3639,-2.1932,-1.8757,0.0,0.0,0.0,0.0,0.0,0.0,0.0,0.0,0.0,0.0,0.0,0.0,0.0,0.0,0.0,0.0,0.0,0.0,0.0,0.0,0.0,0.0,0.0,0.0,0.0,0.0,0.0,0.0,0.0,0.0,0.0,0.0,0.0,0.0,0.0,0.0,0.0,0.0,0.0,0.0,0.0,0.0,0.0,0.0,0.0,0.0,0.0,0.0,0.0,0.0,0.0,0.0,0.0,0.0,0.0,0.0,0.0,0.0,0.0,0.0,0.0,0.0,0.0,0.0,0.0,0.0,0.0,0.0,0.0,0.0,0.0,0.0,0.0,0.0,0.0,0.0,0.0,0.0,0.0,0.0,0.0,0.0,0.0,0.0,0.0,0.0,0.0,0.0,0.0,0.0,0.0,0.0,0.0,0.0,0.0,0.0,0.0,0.0,0.0,0.0,0.0,0.0,-1.6652,-1.9476,-2.2042,0.0,-2.419,-2.419,-2.419,-2.3474,-2.162,-1.8317,0.0,0.0,0.0,0.0,0.0,0.0,0.0,0.0,0.0,0.0,0.0,0.0,0.0,0.0,0.0,0.0,0.0,0.0,0.0,0.0,0.0,0.0,0.0,0.0,0.0,0.0,0.0,0.0,0.0,0.0,0.0,0.0,0.0,0.0,0.0,0.0,0.0,0.0,0.0,0.0,0.0,0.0,0.0,0.0,0.0,0.0,0.0,0.0,0.0,0.0,0.0,0.0,0.0,0.0,0.0,0.0,0.0,0.0,0.0,0.0,0.0,0.0,0.0,0.0,0.0,0.0,0.0,0.0,0.0,0.0,0.0,0.0,0.0,0.0,0.0,0.0,0.0,0.0,0.0,0.0,0.0,0.0,0.0,0.0,0.0,0.0,0.0,0.0,0.0,0.0,0.0,0.0,0.0,0.0,0.0,0.0,0.0,0.0,0.0,0.0,0.0,0.0,-1.6817,-2.0484,-2.3327,-2.4116,-2.419,-2.419,-2.419,-2.1951,-1.9842,0.0,0.0,0.0,0.0,0.0,0.0,0.0,0.0,0.0,0.0,0.0,0.0,0.0,0.0,0.0,0.0,0.0,0.0,0.0,0.0,0.0,0.0,0.0,0.0,0.0,0.0,0.0,0.0,0.0,0.0,0.0,0.0,0.0,0.0,0.0,0.0,0.0,0.0,0.0,0.0,0.0,0.0,0.0,0.0,0.0,0.0,0.0,0.0,0.0,0.0,0.0,0.0,0.0,0.0,0.0,0.0,0.0,0.0,0.0,0.0,0.0,0.0,0.0,0.0,0.0,0.0,0.0,0.0,0.0,0.0,0.0,0.0,0.0,0.0,0.0,0.0,0.0,0.0,0.0,0.0,0.0,0.0,0.0,0.0,0.0,0.0,0.0,0.0,0.0,0.0,0.0,0.0,0.0,0.0,0.0,0.0,0.0,0.0,0.0,0.0,0.0,0.0,0.0,-1.7642,-2.1327,-2.3933,-2.4171,-2.419,-2.419,-2.419,-2.3529,-2.1675,-1.8317,0.0,0.0,0.0,0.0,0.0,0.0,0.0,0.0,0.0,0.0,0.0,0.0,0.0,0.0,0.0,0.0,0.0,0.0,0.0,0.0,0.0,0.0,0.0,0.0,0.0,0.0,0.0,0.0,0.0,0.0,0.0,0.0,0.0,0.0,0.0,0.0,0.0,0.0,0.0,0.0,0.0,0.0,0.0,0.0,0.0,0.0,0.0,0.0,0.0,0.0,0.0,0.0,0.0,0.0,0.0,0.0,0.0,0.0,0.0,0.0,0.0,0.0,0.0,0.0,0.0,0.0,0.0,0.0,0.0,0.0,0.0,0.0,0.0,0.0,0.0,0.0,0.0,0.0,0.0,0.0,0.0,0.0,0.0,0.0,0.0,0.0,0.0,0.0,0.0,0.0,0.0,0.0,0.0,0.0,0.0,0.0,0.0,0.0,0.0,0.0,0.0,0.0,-1.8005,-2.1675,-2.419,-2.419,-2.419,-2.419,-2.419,-2.3914,-2.2244,-1.8794,0.0,0.0,0.0,0.0,0.0,0.0,0.0,0.0,0.0,0.0,0.0,0.0,0.0,0.0,0.0,0.0,0.0,0.0,0.0,0.0,0.0,0.0,0.0,0.0,0.0,0.0,0.0,0.0,0.0,0.0,0.0,0.0,0.0,0.0,0.0,0.0,0.0,0.0,0.0,0.0,0.0,0.0,0.0,0.0,0.0,0.0,0.0,0.0,0.0,0.0,0.0,0.0,0.0,0.0,0.0,0.0,0.0,0.0,0.0,0.0,0.0,0.0,0.0,0.0,0.0,0.0,0.0,0.0,0.0,0.0,0.0,0.0,0.0,0.0,0.0,0.0,0.0,0.0,0.0,0.0,0.0,0.0,0.0,0.0,0.0,0.0,0.0,0.0,0.0,0.0,0.0,0.0,0.0,0.0,0.0,0.0,0.0,0.0,0.0,0.0,0.0,0.0,-1.8096,-2.1712,-2.419,-2.419,-2.419,-2.419,-2.419,-2.3529,-2.2097,-1.9675,0.0,0.0,0.0,0.0,0.0,0.0,0.0,0.0,0.0,0.0,0.0,0.0,0.0,0.0,0.0,0.0,0.0,0.0,0.0,0.0,0.0,0.0,0.0,0.0,0.0,0.0,0.0,0.0,0.0,0.0,0.0,0.0,0.0,0.0,0.0,0.0,0.0,0.0,0.0,0.0,0.0,0.0,0.0,0.0,0.0,0.0,0.0,0.0,0.0,0.0,0.0,0.0,0.0,0.0,0.0,0.0,0.0,0.0,0.0,0.0,-1.6298,0.0,0.0,0.0,0.0,0.0,0.0,0.0,0.0,0.0,0.0,0.0,0.0,0.0,0.0,0.0,0.0,0.0,0.0,0.0,0.0,0.0,0.0,0.0,0.0,0.0,0.0,0.0,0.0,0.0,0.0,0.0,0.0,0.0,0.0,0.0,0.0,0.0,0.0,0.0,0.0,0.0,-1.8849,-2.2061,-2.419,-2.419,-2.419,-2.419,-2.419,-2.4043,-2.318,-2.138,-1.8996,0.0,0.0,0.0,0.0,0.0,0.0,0.0,0.0,0.0,0.0,0.0,0.0,0.0,0.0,0.0,0.0,0.0,0.0,0.0,0.0,0.0,0.0,0.0,0.0,0.0,0.0,0.0,0.0,0.0,0.0,0.0,0.0,0.0,0.0,0.0,0.0,0.0,0.0,0.0,0.0,0.0,0.0,0.0,0.0,0.0,0.0,0.0,0.0,0.0,0.0,0.0,0.0,0.0,0.0,0.0,0.0,0.0,0.0,0.0,0.0,-1.8023,0.0,0.0,0.0,0.0,0.0,0.0,0.0,0.0,0.0,0.0,0.0,0.0,0.0,0.0,0.0,0.0,0.0,0.0,0.0,0.0,0.0,0.0,0.0,0.0,0.0,0.0,0.0,0.0,0.0,0.0,0.0,0.0,0.0,0.0,0.0,0.0,0.0,0.0,0.0,0.0,-1.9675,-2.2409,-2.419,-2.419,-2.419,-2.419,-2.419,-2.419,-2.3676,-2.2446,-2.0439,0.0,0.0,0.0,0.0,0.0,0.0,0.0,0.0,0.0,0.0,0.0,0.0,0.0,0.0,0.0,0.0,0.0,0.0,0.0,0.0,0.0,0.0,0.0,0.0,0.0,0.0,0.0,0.0,0.0,0.0,0.0,0.0,0.0,0.0,0.0,0.0,0.0,0.0,0.0,0.0,0.0,0.0,0.0,0.0,0.0,0.0,0.0,0.0,0.0,0.0,0.0,0.0,0.0,-2.9953,-2.8705,-2.892,-2.6539,-2.5786,-2.6172,-2.2556,-2.1859,-2.307,-2.0317,0.0,0.0,0.0,0.0,0.0,0.0,0.0,0.0,0.0,0.0,0.0,0.0,0.0,0.0,0.0,0.0,0.0,0.0,0.0,0.0,0.0,0.0,0.0,0.0,-2.4153,-2.4318,0.0,0.0,0.0,0.0,0.0,0.0,0.0,0.0,0.0,0.0,0.0,0.0,-2.0519,-2.2758,-2.419,-2.419,-2.419,-2.419,-2.419,-2.419,-2.3914,-2.3254,-2.1657,-2.0165,0.0,0.0,0.0,0.0,0.0,0.0,0.0,0.0,0.0,0.0,0.0,0.0,0.0,0.0,0.0,0.0,0.0,0.0,0.0,0.0,0.0,0.0,0.0,0.0,0.0,0.0,0.0,0.0,0.0,0.0,0.0,0.0,-1.3372,-1.4885,0.0,0.0,0.0,0.0,0.0,0.0,0.0,0.0,0.0,0.0,0.0,0.0,0.0,-2.1161,-2.6389,-2.815,-2.9195,-2.9677,-3.1898,-3.1568,-2.9012,-3.0008,-2.9769,-2.8535,-2.7967,0.0,-2.5933,-2.4135,0.0,0.0,0.0,0.0,0.0,0.0,0.0,0.0,0.0,0.0,0.0,0.0,0.0,0.0,0.0,0.0,0.0,0.0,0.0,0.0,0.0,0.0,-2.597,-2.597,-2.6209,-2.6245,0.0,-2.252,-1.9549,-1.795,-1.7055,0.0,0.0,0.0,0.0,0.0,0.0,0.0,-2.14,-2.3125,-2.419,-2.419,-2.419,-2.419,-2.419,-2.419,-2.4153,-2.4043,-2.252,-2.1545,-2.1342,-1.8342,0.0,0.0,0.0,0.0,0.0,0.0,0.0,0.0,0.0,0.0,0.0,0.0,0.0,0.0,0.0,0.0,0.0,0.0,0.0,0.0,0.0,0.0,0.0,0.0,0.0,0.0,0.0,0.0,0.0,-1.3133,-1.5068,-1.6243,-1.6867,-1.7014,0.0,0.0,0.0,0.0,0.0,0.0,0.0,0.0,0.0,-2.2795,-2.3199,-2.608,-3.1641,-3.1715,-3.1715,-3.1715,-3.221,-3.2192,-3.1733,-3.243,-3.2357,-3.1715,-3.1715,-3.1311,-3.0448,-2.7934,-2.4979,-2.1877,0.0,0.0,0.0,0.0,-1.6274,-1.872,-2.4795,-2.6906,0.0,-2.6906,0.0,0.0,0.0,0.0,0.0,0.0,0.0,0.0,0.0,0.0,-2.8631,-2.8631,-2.898,-2.9053,-2.8154,-2.6536,-2.4519,0.0,-2.0886,-1.9622,-1.7436,0.0,0.0,0.0,0.0,-2.1307,-2.2942,-2.3749,-2.4373,-2.4814,-2.4465,-2.419,-2.419,-2.419,-2.419,-2.419,-2.3529,-2.2942,-2.2483,-2.0696,-1.8882,0.0,0.0,0.0,0.0,0.0,0.0,0.0,0.0,0.0,0.0,0.0,0.0,0.0,0.0,0.0,0.0,0.0,0.0,0.0,0.0,0.0,0.0,0.0,0.0,0.0,0.0,0.0,0.0,-1.5105,-1.7087,-1.8302,-1.9693,-2.0244,0.0,0.0,0.0,0.0,0.0,0.0,-2.4116,-2.575,-2.6979,-2.7787,-2.7824,-2.9751,-3.3752,-3.3807,-3.4211,-3.5037,-3.3844,-3.388,-3.5055,-3.5055,-3.5055,-3.5055,-3.5055,-3.5055,-3.4798,-3.1568,-2.8833,-2.6539,-2.5328,-2.3602,-2.1785,-2.1785,-2.3841,-2.6998,-2.9402,-3.0246,-3.0246,-3.0246,-2.9654,-2.8535,-2.6153,0.0,0.0,0.0,0.0,-2.6888,-2.8099,-2.9457,-3.0503,-3.0503,-3.0962,-3.1072,-2.9879,-2.9622,-2.8668,0.0,-2.4337,-2.3088,-2.0427,0.0,0.0,0.0,0.0,-2.3235,-2.463,-2.4814,-2.4961,-2.5366,-2.485,-2.441,-2.4208,-2.419,-2.419,-2.419,-2.419,-2.3933,-2.3327,-2.2538,-2.1066,-1.8841,0.0,0.0,0.0,0.0,0.0,0.0,0.0,0.0,0.0,0.0,0.0,0.0,0.0,0.0,0.0,0.0,0.0,0.0,0.0,0.0,0.0,0.0,0.0,0.0,0.0,0.0,0.0,0.0,0.0,-2.2409,-2.3437,0.0,0.0,0.0,0.0,-2.3768,-2.463,-2.5825,-2.7457,-2.9072,-2.9641,-2.8938,-3.0375,-3.2008,-3.377,-3.3807,-3.5367,-3.845,-3.8377,-3.8377,-3.845,-3.845,-3.845,-3.845,-3.845,-3.845,-3.8212,-3.4908,-3.3458,-3.3311,-3.322,-3.1292,-2.8498,-2.8498,-3.0558,-3.333,-3.3495,-3.355,-3.355,-3.355,-3.1494,-2.8957,-2.881,-2.8172,0.0,0.0,-2.8741,-2.9989,-3.0063,-3.0705,-3.1329,-3.1329,-3.1366,-3.1366,-3.1292,-3.1274,-3.032,0.0,-2.6447,-2.6117,-2.5201,0.0,-2.509,-2.5054,-2.5146,-2.5511,-2.6374,-2.6484,-2.6209,-2.5495,-2.5366,-2.5035,-2.4263,-2.419,-2.419,-2.419,-2.419,-2.4171,-2.4135,-2.3382,-2.2134,-2.0427,-1.8116,0.0,0.0,0.0,0.0,0.0,0.0,0.0,0.0,0.0,0.0,0.0,0.0,0.0,0.0,0.0,0.0,0.0,0.0,0.0,0.0,0.0,0.0,0.0,0.0,0.0,0.0,0.0,0.0,-2.4979,-2.6025,0.0,-2.683,-2.6612,-2.6667,-2.7255,-2.8503,-2.9732,-3.0834,-3.2412,-3.3275,-3.3183,-3.4064,-3.4302,-3.3807,-3.5899,-3.7551,-3.8707,-3.8707,-3.8707,-3.8707,-3.8707,-3.8707,-3.8707,-3.8707,-3.8707,-3.8615,-3.7441,-3.6945,-3.6853,-3.5807,-3.4706,-3.3568,-3.2504,-3.3495,-3.555,-3.6597,-3.6285,-3.522,-3.4156,-3.232,-3.054,-3.054,-3.0338,-3.021,-3.0742,-3.1311,-3.1861,-3.2375,-3.2724,-3.2944,-3.2944,-3.2944,-3.2797,-3.2284,-3.2173,-3.1678,-3.0008,-2.8851,-2.7732,-2.6392,-2.6172,-2.5988,-2.5495,-2.5841,-2.6465,-2.7273,-2.6924,-2.6686,-2.6906,-2.6027,-2.5293,-2.5017,-2.4502,-2.419,-2.419,-2.419,-2.419,-2.419,-2.3914,-2.3033,-2.1507,-2.0092,-1.7994,0.0,0.0,0.0,0.0,0.0,0.0,0.0,0.0,0.0,0.0,0.0,0.0,0.0,0.0,0.0,0.0,0.0,0.0,0.0,0.0,0.0,0.0,0.0,0.0,0.0,0.0,-2.43,-2.6722,-2.8191,-2.9219,-2.9769,-3.0063,-3.0424,-3.0974,-3.2008,-3.2981,-3.3807,-3.4706,-3.5349,-3.5752,-3.5569,-3.5459,-3.5459,-3.7606,-3.8707,-3.8707,-3.8707,-3.8707,-3.8707,-3.8707,-3.8707,-3.8707,-3.8707,-3.8707,-3.8707,-3.8707,-3.8707,-3.8597,-3.7533,-3.711,-3.6982,-3.5862,-3.5936,-3.6688,-3.7588,-3.7184,-3.6119,-3.5,-3.3917,-3.3036,-3.3036,-3.3036,-3.3091,-3.3348,-3.3421,-3.3476,-3.3733,-3.3807,-3.3807,-3.3807,-3.3807,-3.3642,-3.3128,-3.2999,-3.2779,-3.1953,-3.0723,-2.9384,-2.8062,-2.7824,-2.7548,-2.6741,-2.7071,-2.7603,-2.8136,-2.775,-2.7512,-2.7769,-2.6833,-2.5991,-2.5458,-2.4905,-2.4483,-2.4208,-2.419,-2.419,-2.419,-2.3989,-2.3286,-2.2027,-2.0714,-1.9054,-1.7007,0.0,0.0,0.0,0.0,0.0,0.0,0.0,0.0,0.0,0.0,0.0,0.0,0.0,0.0,0.0,0.0,0.0,0.0,0.0,0.0,0.0,0.0,0.0,-2.2115,-2.4704,-2.7016,-2.7842,-3.0026,-3.1476,-3.1494,-3.2247,-3.3366,-3.4917,-3.5045,-3.5459,-3.6285,-3.5862,-3.5844,-3.6413,-3.4816,-3.5477,-3.867,-3.8707,-3.8707,-3.8707,-3.8707,-3.8707,-3.8707,-3.8799,-3.8854,-3.8854,-3.8817,-3.8781,-3.8762,-3.8744,-3.8726,-3.8707,-3.8707,-3.8707,-3.8707,-3.8707,-3.8046,-3.7074,-3.656,-3.6358,-3.634,-3.634,-3.6321,-3.6303,-3.6303,-3.6303,-3.6119,-3.5265,-3.5027,-3.4844,-3.4045,-3.3844,-3.3825,-3.3807,-3.3807,-3.3807,-3.3807,-3.3807,-3.3568,-3.2797,-3.2008,-3.1201,-3.0375,-3.0246,-2.9971,-2.914,-2.903,0.0,-2.8994,-2.8994,-2.8705,-2.7915,-2.7805,-2.7145,-2.5568,-2.5421,-2.5072,-2.4245,-2.419,-2.419,-2.419,-2.3581,-2.2848,-2.2064,-1.9968,-1.8868,-1.8837,0.0,0.0,0.0,0.0,0.0,0.0,0.0,0.0,0.0,0.0,0.0,0.0,0.0,0.0,0.0,0.0,0.0,0.0,0.0,0.0,0.0,0.0,-2.6392,-2.6172,-2.7915,-2.9732,-3.1127,-3.2375,-3.3366,-3.3954,-3.478,-3.5477,-3.5917,-3.6486,-3.6909,-3.7147,-3.7569,-3.8248,-3.9184,-3.801,-3.779,-3.8689,-3.8707,-3.8707,-3.8707,-3.8707,-3.8707,-3.8781,-4.1111,-4.2176,-4.2139,-4.135,-4.0579,-3.9863,-3.9643,-3.9239,-3.8707,-3.8707,-3.8707,-3.8707,-3.8707,-3.8505,-3.8248,-3.8083,-3.7661,-3.7165,-3.7165,-3.678,-3.6303,-3.6303,-3.6303,-3.6248,-3.6009,-3.5936,-3.5752,-3.4908,-3.4688,-3.4523,-3.3935,-3.3807,-3.3807,-3.3807,-3.3807,-3.3733,-3.3513,-3.3293,-3.2687,-3.1311,-3.1072,-3.0797,-2.9989,-2.9879,0.0,-2.9067,-2.8994,-2.8925,-2.8705,-2.8154,-2.7383,-2.6355,-2.5731,-2.5072,-2.4245,-2.419,-2.419,-2.419,-2.4026,-2.3619,-2.2967,-2.1502,-2.0401,0.0,0.0,0.0,0.0,0.0,0.0,0.0,0.0,0.0,0.0,0.0,0.0,0.0,0.0,0.0,0.0,0.0,0.0,0.0,0.0,0.0,0.0,-2.7493,-2.9934,-3.0265,-3.1109,-3.2063,-3.2999,-3.4137,-3.5165,-3.5973,-3.6505,-3.6927,-3.7276,-3.8046,-3.8505,-3.8505,-3.9056,-3.9662,-4.0286,-4.0579,-4.0708,-4.0708,-4.0708,-4.0708,-4.0708,-4.0708,-4.0708,-4.0763,-4.2635,-4.324,-4.2782,-4.2158,-4.1423,-4.0634,-4.0469,-4.0139,0.0,0.0,0.0,0.0,0.0,-3.8707,-3.8707,-3.8707,-3.8395,-3.7991,-3.7991,-3.7679,-3.7312,-3.7312,-3.7312,-3.7239,-3.689,-3.6798,-3.6597,-3.5771,-3.555,-3.544,-3.4963,-3.4578,-3.4302,-3.4302,-3.4045,-3.3807,-3.3807,-3.3807,0.0,-3.2559,-3.2118,-3.1623,-3.0815,-3.0411,-3.0026,-2.9567,-2.9195,-2.8994,-2.8994,-2.8594,-2.7989,-2.7163,-2.6374,0.0,0.0,0.0,-2.4062,-2.3805,-2.3786,0.0,0.0,0.0,0.0,0.0,0.0,0.0,0.0,-2.0754,-2.0427,0.0,0.0,0.0,0.0,0.0,0.0,0.0,0.0,0.0,0.0,0.0,0.0,0.0,0.0,0.0,0.0,-3.043,-3.3164,-3.3972,-3.4156,-3.4174,-3.4082,-3.5459,-3.6707,-3.7422,-3.7672,-3.8065,-3.8781,-3.957,-4.0029,-4.0029,0.0,0.0,0.0,0.0,-4.3369,-4.3497,-4.3497,-4.3497,-4.3497,-4.3497,-4.3497,-4.3497,-4.3497,-4.2965,-4.2066,-4.2066,-4.1754,-4.1258,-4.1258,-4.1185,-4.0965,-3.9441,-3.8836,-3.8817,-3.8726,-3.8707,-3.8707,-3.8707,0.0,0.0,-3.8707,-3.8707,-3.8707,-3.8707,-3.8707,-3.856,-3.7826,-3.7624,-3.7441,-3.6633,-3.6431,-3.6413,-3.6321,-3.5716,-3.5137,-3.5137,-3.4523,-3.3935,-3.3935,-3.3862,-3.3807,-3.3807,-3.322,-3.2467,-3.1659,-3.0925,-3.0411,-3.0228,-2.9586,-2.9085,-2.8994,0.0,0.0,-2.786,-2.7145,-2.6392,-2.5605,-2.4816,-2.4045,-2.3334,-2.3363,-2.3547,-2.3914,-2.4014,-2.4533,-2.5437,-2.5553,-2.5986,-2.664,-2.2015,-2.1543,0.0,0.0,0.0,0.0,0.0,0.0,0.0,0.0,0.0,0.0,0.0,0.0,0.0,0.0,0.0,-3.1164,-3.3175,-3.4853,-3.5697,-3.6376,-3.6523,-3.5881,-3.667,-3.7342,-3.7489,-3.8652,-3.9496,-3.9662,-4.0414,-4.0873,-4.0873,-4.0928,-4.1258,-4.1901,-4.2103,-4.2598,-4.3479,-4.3497,-4.3497,-4.3497,0.0,0.0,-4.3497,-4.3497,-4.3387,-4.3185,-4.3185,-4.2763,-4.2066,-4.2066,-4.1699,-4.102,-4.0047,-3.9662,-3.9588,-3.8946,-3.8707,-3.8707,-3.8707,-3.8707,-3.8707,-3.8707,-3.8707,-3.8707,-3.8707,-3.8707,0.0,-3.8505,-3.8469,-3.8285,-3.7477,-3.7257,-3.7092,-3.645,-3.6174,-3.6046,-3.6046,-3.5385,-3.4752,-3.4752,-3.4247,-3.3807,-3.3807,-3.3678,-3.3293,-3.2504,-3.2247,-3.1678,-3.0375,-3.0063,-2.9732,-2.9067,-2.8994,-2.8686,-2.786,-2.7658,-2.7218,-2.6429,-2.5762,-2.5005,-2.4063,-2.4335,-2.453,-2.4601,-2.5393,-2.5998,-2.6351,-2.7044,-2.7486,-2.7601,-2.5928,-2.5851,0.0,0.0,0.0,0.0,0.0,0.0,0.0,0.0,0.0,0.0,0.0,-2.6502,-2.8099,0.0,-3.2394,-3.3605,-3.5183,-3.6395,-3.6835,-3.7588,-3.779,-3.7,-3.7606,-3.8248,-3.8652,-3.9423,-4.0065,-4.0469,-4.1258,-4.1699,-4.1699,-4.2084,-4.2488,-4.2892,-4.2763,-4.2947,-4.3479,-4.3497,-4.3497,-4.3497,-4.3497,-4.3497,-4.3497,-4.3497,-4.3497,-4.3497,-4.3497,-4.3259,-4.2892,-4.2892,-4.2653,-4.2213,-4.1423,-4.0855,-4.0451,-4.0065,-3.9662,-3.9294,-3.9294,-3.9038,-3.8707,-3.8707,-3.8707,-3.8707,-3.8707,-3.8707,-3.8707,-3.8707,-3.8707,-3.8615,-3.8193,-3.8102,-3.7991,-3.7606,-3.7184,-3.689,-3.689,-3.5899,-3.499,-3.499,-3.4357,-3.3807,-3.3807,-3.3807,-3.366,-3.3256,-3.2871,-3.232,-3.1513,-3.0705,-3.0063,-2.9641,-2.9232,-2.8851,-2.8429,-2.8026,-2.7457,-2.6649,-2.6311,-2.5985,-2.556,-2.5738,-2.5951,-2.6208,-2.6689,-2.7051,-2.7255,-2.7678,-2.8102,-2.8486,-2.8044,-2.8082,0.0,0.0,0.0,0.0,0.0,0.0,0.0,0.0,-2.4905,-2.6667,-2.8705,-3.0577,-3.1861,-3.3421,-3.4724,-3.5385,-3.6743,-3.7716,-3.7716,-3.8285,-3.8469,-3.7808,-3.8303,-3.9019,-3.9808,-4.0029,-4.0469,-4.1277,-4.2084,-4.2525,-4.2525,-4.3149,-4.3497,-4.3497,-4.3497,-4.3497,-4.3497,-4.3497,-4.3497,-4.3497,-4.3497,-4.3497,-4.3497,-4.3497,-4.3497,-4.3497,-4.3497,-4.3497,-4.3497,-4.3497,-4.3497,-4.3424,-4.2782,-4.2139,-4.1534,-4.124,-4.0689,-4.012,-4.012,-3.9717,-3.9148,-3.8982,-3.8927,-3.8909,-3.8762,-3.8707,-3.8707,-3.8707,-3.8707,-3.8707,-3.8707,-3.8707,-3.8707,-3.8707,-3.8193,-3.7716,-3.7716,-3.6431,-3.5247,-3.5247,-3.4468,-3.3807,-3.3807,-3.3807,-3.3807,-3.3807,-3.3256,-3.2797,-3.2632,-3.1476,-3.0558,-3.0228,-2.9622,-2.9159,-2.8994,-2.8411,-2.7695,-2.6888,-2.6875,-2.689,-2.6898,-2.6952,-2.7175,-2.7586,-2.7752,-2.7924,-2.8121,-2.8294,-2.8717,-2.9352,-2.9352,-2.9352,-2.107,-2.1325,0.0,-2.4062,-2.4171,-2.5071,0.0,0.0,-3.0063,-3.2375,-3.3642,-3.4367,-3.455,-3.5954,-3.711,-3.7202,-3.7973,-3.8579,-3.8579,-3.8652,-3.867,-3.8579,-3.8652,-3.9019,-3.9808,-4.0561,-4.1313,-4.2103,-4.291,-4.3369,-4.3369,-4.3442,-4.3497,-4.3497,-4.3497,-4.3497,-4.3497,-4.3497,-4.3497,-4.3497,-4.3497,-4.3497,-4.3497,-4.3497,-4.3497,-4.3497,-4.3497,-4.3497,-4.3497,-4.3497,-4.3497,-4.3479,-4.3387,-4.3296,-4.3057,-4.1644,-4.1056,-4.0983,-4.0983,-4.0928,-4.0726,-3.9992,-3.9772,-3.9625,-3.8927,-3.8707,-3.8707,-3.8707,-3.8707,-3.8707,-3.8707,-3.8707,-3.8707,-3.8707,-3.8634,-3.8579,-3.8579,-3.7294,-3.6156,-3.6156,-3.4871,-3.3807,-3.3807,-3.3807,-3.3807,-3.3807,-3.3715,-3.3421,-3.2706,-3.2449,-3.1788,-3.0356,-3.0118,-2.9787,-2.9049,-2.892,-2.8521,-2.7714,-2.7835,-2.7623,-2.6935,-2.7073,-2.7301,-2.7599,-2.8286,-2.876,-2.8967,-2.9737,-3.0179,-3.0256,-3.0256,-3.0256,-2.4795,0.0,0.0,0.0,-2.865,-2.9714,-3.2063,-3.2449,-3.2706,-3.4211,-3.555,-3.645,-3.645,-3.7404,-3.8193,0.0,-3.8872,-3.9239,-3.8781,-3.9093,-3.9038,-3.8102,-3.8414,-3.9019,-3.9808,-4.0634,-4.1442,-4.2249,-4.3039,-4.3497,-4.3497,-4.3497,-4.3497,-4.3497,-4.3497,-4.3497,-4.3497,-4.3497,-4.3497,-4.3497,-4.3497,-4.3497,-4.3497,-4.3497,-4.3497,-4.3497,-4.3497,-4.3497,-4.3497,-4.3497,-4.3497,-4.3497,-4.3497,-4.3497,-4.3406,-4.2745,-4.2194,-4.1809,-4.1809,-4.1497,-4.0983,-4.0157,-3.99,-3.9753,-3.8946,-3.8707,-3.8707,-3.8707,-3.8707,-3.8707,-3.8707,-3.8707,-3.8707,-3.8707,-3.8707,-3.8707,-3.8707,-3.7441,-3.6303,-3.6303,-3.4945,-3.3807,-3.3807,-3.3807,-3.3807,-3.3807,-3.3807,-3.3678,-3.3348,-3.2908,-3.199,-3.0375,-2.9787,-2.9384,-2.9012,-2.8994,-2.8847,-2.8521,-2.8574,-2.8584,-2.8519,-2.8606,-2.8837,-2.9219,-2.9557,-2.9774,-2.9871,-3.0217,-3.0398,-3.0398,-3.0929,-3.116,-2.6979,0.0,0.0,-3.0613,-3.2082,-3.3385,-3.3862,-3.4394,-3.5055,-3.5862,-3.6798,-3.7507,-3.7507,-3.7973,0.0,-3.8377,-3.9221,-3.9625,-3.8817,-3.9386,-3.9386,-3.7991,-3.834,-3.8927,-3.9515,-4.0304,-4.1203,-4.2213,-4.2837,-4.3259,-4.3479,-4.3497,-4.3497,-4.3497,-4.3497,-4.3497,-4.3497,-4.3497,-4.3497,-4.3497,-4.3497,-4.3497,-4.3497,-4.3497,-4.3497,-4.3497,-4.3497,-4.3497,-4.3497,-4.3497,-4.3497,-4.3497,-4.3497,-4.3497,-4.3497,-4.3497,-4.313,-4.2635,-4.2635,-4.2249,-4.1644,-4.0818,-4.0414,-4.0084,-3.9276,-3.8891,-3.8707,-3.8707,-3.8707,-3.8707,-3.8707,-3.8707,-3.8707,-3.8707,-3.8707,-3.8707,-3.8707,-3.7606,-3.656,-3.634,-3.5128,-3.4064,-3.3844,-3.3807,-3.3807,-3.3807,-3.3807,-3.3807,-3.3807,-3.3109,-3.2082,-3.0687,-2.9824,-2.9232,-2.9012,-2.8994,-2.8994,-2.8994,-2.8994,-2.9206,-2.9678,-2.9696,-2.9912,-3.0398,-3.0398,-3.0398,-3.0398,-3.0398,-3.0513,-3.0775,-3.141,-3.1948,0.0,0.0,-3.054,-3.2137,-3.3725,-3.5367,-3.6964,-3.7379,-3.7606,-3.8414,-3.801,-3.7507,-3.7507,-3.7514,-3.7533,-3.7533,-3.8854,-3.9625,-3.8817,-3.9386,-3.9588,-3.8762,-3.8689,-3.8707,0.0,-3.946,-4.0579,-4.2176,-4.2323,-4.2671,-4.3442,-4.3497,-4.3497,-4.3497,-4.3497,-4.3497,-4.3497,-4.3497,-4.3497,-4.3497,-4.3497,-4.3497,-4.3497,-4.3497,-4.3497,-4.3497,-4.3497,-4.3497,-4.3497,-4.3497,-4.3497,-4.3497,-4.3497,-4.3497,-4.3497,-4.3497,-4.3461,-4.3442,-4.3442,-4.3442,-4.3277,-4.2488,-4.1699,-4.0928,-4.0102,-3.9313,-3.8707,-3.8707,-3.8707,-3.8707,-3.8707,-3.8707,-3.8707,-3.8707,-3.8707,-3.8707,-3.8707,-3.8046,-3.7221,-3.645,-3.5587,-3.4715,-3.3935,-3.3807,-3.3807,-3.3807,-3.3807,-3.3807,-3.3807,-3.3109,-3.2284,-3.1439,-3.0632,-2.9861,-2.9067,-2.8994,-2.8994,-2.8994,-2.8994,-2.9206,-2.9678,-2.9696,-2.9912,-3.0398,-3.0398,-3.0398,-3.0398,-3.0398,-3.0833,-3.166,-3.1698,-3.2564,0.0,0.0,-3.2999,-3.4633,-3.5862,-3.6945,-3.8046,-3.8303,-3.8212,-3.7955,-3.7257,-3.6523,-3.5954,-3.5844,-3.6028,-3.6597,-3.8487,-3.9808,-3.9533,-4.0653,-4.0799,-3.8927,-3.9166,0.0,0.0,0.0,0.0,-4.1423,-4.2011,-4.2653,-4.3442,-4.3497,-4.3497,-4.3497,-4.3497,-4.3497,-4.3497,-4.3497,-4.3497,-4.3497,-4.3497,-4.3497,-4.3497,-4.3497,-4.3497,-4.3497,-4.3497,-4.3497,-4.3497,-4.3497,-4.3497,-4.3497,-4.3497,-4.3497,-4.3497,-4.3497,-4.3497,-4.3497,-4.3497,-4.3497,-4.3369,-4.2561,-4.1772,-4.0965,-4.0139,-3.9331,-3.8707,-3.8707,-3.8707,-3.8707,-3.8707,-3.8707,-3.8707,-3.8707,-3.8707,-3.8707,-3.8707,-3.8065,-3.7434,-3.7129,-3.5973,-3.4899,-3.4651,-3.4156,-3.3807,-3.3807,-3.3807,-3.3807,-3.3807,-3.3109,-3.2504,-3.2228,-3.0999,-3.0099,-2.9824,-2.9329,-2.8994,-2.8994,-2.8994,-2.9206,-2.9678,-2.9696,-2.9912,-3.0398,-3.0398,-3.0679,-3.1256,-3.1256,-3.1698,-3.2506,-3.3083,-3.366,0.0,-3.2999,-3.4633,-3.6303,-3.7312,-3.7973,-3.8212,-3.8267,-3.7955,-3.6835,-3.5734,-3.4816,-3.4238,-3.3652,-3.3844,-3.5569,-3.7643,-3.9221,-3.9808,-4.1295,-4.1625,-3.979,-4.001,-3.9918,0.0,0.0,0.0,-4.1075,-4.1864,-4.2653,-4.3442,-4.3497,-4.3497,-4.3497,-4.3497,-4.3497,-4.3497,-4.3497,-4.3497,-4.3497,-4.3497,-4.3497,-4.3497,-4.3497,-4.3497,-4.3497,-4.3497,-4.3497,-4.3497,-4.3497,-4.3497,-4.3497,-4.3497,-4.3497,-4.3497,-4.3497,-4.3497,-4.3497,-4.3497,-4.3497,-4.3406,-4.2892,-4.2176,-4.1387,-4.0579,-3.9772,-3.9074,-3.8781,-3.8707,-3.8707,-3.8707,-3.8707,-3.8707,-3.8707,-3.8707,-3.8707,-3.8707,-3.8285,-3.7826,-3.7581,-3.6395,-3.5385,-3.5045,-3.4339,-3.3807,-3.3807,-3.3807,-3.3807,-3.3807,-3.3348,-3.2926,-3.2632,-3.1678,-3.0815,-3.0246,-2.9732,-2.9329,-2.9012,-2.8994,-2.9206,-2.9678,-2.9696,-2.9912,-3.0398,-3.0717,-3.1141,-3.1698,-3.1987,-3.2545,-3.3372,-3.393,-3.4372,-3.2357,-3.3945,-3.5587,-3.7147,-3.8102,-3.8432,-3.7661,-3.7386,-3.6835,-3.5192,-3.3542,-3.2412,0.0,0.0,-3.1237,-3.4367,-3.6395,-3.8102,-3.9735,-4.135,-4.2066,0.0,0.0,0.0,0.0,0.0,0.0,-4.1167,0.0,-4.2653,-4.3442,-4.3497,-4.3497,-4.3497,-4.3497,-4.3497,-4.3497,-4.3497,-4.3497,-4.3497,-4.3497,-4.3497,-4.3497,-4.3497,-4.3497,-4.3497,-4.3497,-4.3497,-4.3497,-4.3497,-4.3497,-4.3497,-4.3497,-4.3497,-4.3497,-4.3497,-4.3497,-4.3497,-4.3497,-4.3497,-4.3497,-4.3497,-4.2947,-4.2158,-4.1405,-4.0579,-3.9735,-3.8982,-3.8726,-3.8707,-3.8707,-3.8707,-3.8707,-3.8707,-3.8707,-3.8707,-3.8707,-3.8707,-3.8469,-3.7698,-3.6872,-3.6028,-3.5137,-3.4339,-3.3807,-3.3807,-3.3807,-3.3807,-3.3807,-3.3807,-3.3513,-3.2742,-3.2632,-3.199,-3.0448,-3.0283,-2.9953,-2.9159,-2.9127,-2.932,-2.9735,-2.9808,-3.0041,-3.0456,-3.1314,-3.1775,-3.1833,-3.2583,-3.341,-3.4257,-3.4257,-3.4718,-3.4908,-3.6541,-3.7863,-3.8285,-3.8102,-3.7734,-3.7562,-3.6064,-3.4449,-3.344,-3.1451,-2.9727,-2.9127,0.0,0.0,-3.2863,-3.6138,0.0,-4.0579,-4.2176,0.0,0.0,0.0,-4.1772,-4.1167,-4.1644,0.0,0.0,-4.2176,-4.2653,-4.3442,-4.3497,-4.3497,-4.3497,-4.3497,-4.3497,-4.3497,-4.3497,-4.3497,-4.3497,-4.3497,-4.3497,-4.3497,-4.3497,-4.3497,-4.3497,-4.3497,-4.3497,-4.3497,-4.3497,-4.3497,-4.3497,-4.3497,-4.3497,-4.3497,-4.3497,-4.3497,-4.3497,-4.3497,-4.3497,-4.3497,-4.3497,-4.2947,-4.2268,-4.2066,-4.1001,-3.9845,-3.9643,-3.9166,-3.8707,-3.8707,-3.8707,-3.8707,-3.8707,-3.8707,-3.8707,-3.8707,-3.8707,-3.8634,-3.8432,-3.7257,-3.6028,-3.5137,-3.4339,-3.3807,-3.3807,-3.3807,-3.3807,-3.3807,-3.3807,-3.3715,-3.3532,-3.2963,-3.2449,-3.2027,-3.1439,-3.0999,-3.0797,-3.0979,-3.0947,-3.0602,-3.1398,-3.1713,-3.1359,-3.2179,-3.291,-3.3564,-3.3757,-3.4314,-3.518,-3.518,-3.5295,-3.6468,-3.7734,-3.8707,-3.8707,-3.8102,-3.7202,-3.6119,-3.4523,-3.2651,-3.043,-2.8906,0.0,0.0,0.0,0.0,0.0,0.0,0.0,-4.0194,-4.1956,-4.2928,0.0,-4.2818,0.0,-4.2194,-4.2561,-4.2818,0.0,-4.2818,-4.302,-4.3461,-4.3497,-4.3497,-4.3497,-4.3497,-4.3497,-4.3497,-4.3497,-4.3497,-4.3497,-4.3497,-4.3497,-4.3497,-4.3497,-4.3497,-4.3497,0.0,-4.3497,-4.3497,-4.3497,-4.3497,-4.3497,-4.3497,-4.3497,-4.3497,-4.3497,-4.3497,-4.3497,-4.3497,-4.3497,-4.3497,-4.3497,-4.3185,-4.2763,-4.2415,-4.1423,-4.0359,-3.9992,-3.9313,-3.8707,-3.8707,-3.8707,-3.8707,-3.8707,-3.8707,-3.8707,-3.8707,-3.8707,-3.8597,-3.823,-3.7147,-3.6028,-3.5137,-3.4339,-3.3807,-3.3807,-3.3807,-3.3807,-3.3807,-3.3807,-3.3807,-3.3807,-3.3403,-3.2981,-3.2632,-3.2192,-3.177,-3.1403,-3.1542,-3.1573,-3.1469,-3.2084,-3.2355,-3.2237,-3.3045,-3.3699,-3.4199,-3.4584,-3.5026,-3.5493,-3.5493,-3.5493,-3.7404,-3.8175,-3.867,-3.8579,-3.7845,-3.6541,-3.4174,-3.2706,-3.0797,-2.7181,0.0,0.0,-2.4281,0.0,-2.6447,-2.9677,0.0,-3.5183,-3.9166,-4.113,-4.2433,-4.324,-4.3424,-4.3497,-4.3497,-4.3497,-4.3497,-4.3497,-4.3497,-4.3497,-4.3497,-4.3497,-4.3497,-4.3497,-4.3497,-4.3497,-4.3497,-4.3497,-4.3497,-4.3497,-4.3497,-4.3497,-4.3497,-4.3497,-4.3497,-4.3497,-4.3497,0.0,-4.3497,-4.3497,-4.3497,-4.3497,-4.3497,-4.3497,-4.3497,-4.3497,-4.3497,-4.3497,-4.3497,-4.3497,-4.3497,-4.3497,-4.3497,-4.3369,-4.2671,-4.1827,-4.0965,-4.0267,-3.9405,-3.8707,-3.8707,-3.8707,-3.8707,-3.8707,-3.8707,-3.8707,-3.8707,-3.8707,-3.8487,-3.7771,-3.6909,-3.6064,-3.5312,-3.4412,-3.3807,-3.3807,-3.3807,-3.3807,-3.3807,-3.3807,-3.3807,-3.3807,-3.3807,-3.3532,-3.2834,-3.2761,-3.2467,-3.1751,-3.1746,-3.1941,-3.2336,-3.2506,-3.2735,-3.3083,-3.393,-3.4372,-3.4372,-3.5141,-3.5493,-3.5493,-3.5493,-3.5493,-3.8083,-3.8597,-3.8542,-3.7863,-3.656,-3.4981,-3.322,-3.0136,0.0,0.0,0.0,-2.274,-2.3144,-2.441,0.0,-2.9677,0.0,0.0,0.0,0.0,-4.1625,0.0,0.0,0.0,0.0,0.0,0.0,0.0,0.0,-4.3497,-4.3497,-4.3497,-4.3497,-4.3497,-4.3497,-4.3497,-4.3497,-4.3497,-4.3497,-4.3497,-4.3497,-4.3497,-4.3497,-4.3497,-4.3497,-4.3497,-4.3497,0.0,-4.3497,-4.3497,-4.3497,-4.3497,-4.3497,-4.3497,-4.3497,-4.3497,-4.3497,-4.3497,-4.3497,-4.3497,-4.3497,-4.3497,-4.3497,-4.3461,-4.3314,-4.2268,-4.1075,-4.0946,-3.9845,-3.8707,-3.8707,-3.8707,-3.8707,-3.8707,-3.8707,-3.8707,-3.8707,-3.8707,-3.867,-3.8524,-3.7312,-3.6248,-3.6101,-3.4816,-3.3807,-3.3807,-3.3807,-3.3807,-3.3807,-3.3807,-3.3807,-3.3807,-3.3807,-3.3733,-3.3605,-3.3587,-3.3532,-3.3385,-3.3593,-3.356,-3.3221,-3.4092,-3.4407,-3.3987,-3.4834,-3.5276,-3.5276,-3.543,-3.5493,-3.5493,-3.5493,-3.5493,-3.7734,-3.8377,-3.8505,-3.7679,-3.6248,-3.4348,-3.1916,0.0,0.0,0.0,0.0,-2.1656,-2.1161,0.0,0.0,0.0,0.0,0.0,0.0,0.0,0.0,0.0,0.0,0.0,0.0,0.0,0.0,0.0,0.0,-4.3497,-4.3497,-4.3497,-4.3497,-4.3497,-4.3497,-4.3497,-4.3497,-4.3497,-4.3497,-4.3497,-4.3497,-4.3497,-4.3497,-4.3497,-4.3497,-4.3497,-4.3497,0.0,-4.3497,-4.3497,-4.3497,-4.3497,-4.3497,-4.3497,-4.3497,-4.3497,-4.3497,-4.3497,-4.3497,-4.3497,-4.3424,-4.3002,-4.2873,-4.2873,-4.2873,-4.1754,-4.0487,-4.0487,-3.9625,-3.8707,-3.8707,-3.8707,-3.8707,-3.8707,-3.8707,-3.8707,-3.8707,-3.8707,-3.8707,-3.8707,-3.7404,-3.6303,-3.6303,-3.4908,-3.3807,-3.3807,-3.3807,-3.3807,-3.3807,-3.3807,-3.3807,-3.3807,-3.3807,-3.3807,-3.3807,-3.3807,-3.3868,-3.4012,-3.4123,-3.4236,-3.4282,-3.4807,-3.5031,-3.4891,-3.5295,-3.5493,-3.5493,-3.5493,-3.5493,-3.5493,-3.5493,-3.5493,-3.7165,-3.7955,-3.8248,-3.7422,-3.5862,-3.3633,-3.043,-2.7695,0.0,0.0,0.0,-2.0921,-1.9767,0.0,0.0,0.0,0.0,0.0,0.0,0.0,0.0,0.0,0.0,0.0,0.0,0.0,0.0,0.0,0.0,0.0,-4.3497,-4.3497,-4.3497,-4.3497,-4.3497,-4.3497,-4.3497,-4.3497,-4.3497,-4.3497,-4.3497,-4.3497,-4.3497,-4.3497,-4.3497,-4.3497,-4.3497,0.0,0.0,-4.3497,-4.3497,-4.3497,-4.3497,-4.3497,-4.3497,-4.3497,-4.3387,-4.3222,-4.3222,-4.313,-4.2873,-4.2249,-4.2158,-4.2268,-4.2103,-4.1038,-3.99,-3.99,-3.9313,-3.8707,-3.8707,-3.8707,-3.8707,-3.8707,-3.8707,-3.8707,-3.8707,-3.8707,-3.8707,-3.8707,-3.7404,-3.6303,-3.6303,-3.4908,-3.3807,-3.3807,-3.3807,-3.3807,-3.3807,-3.3807,-3.3807,-3.3807,-3.3807,-3.3807,-3.3807,-3.3807,-3.391,-3.4176,-3.42,-3.447,-3.5088,-3.5105,-3.5223,-3.5493,-3.5493,-3.5493,-3.5493,-3.5493,-3.5493,-3.5493,-3.5493,-3.5493,-3.6853,-3.7562,-3.7404,-3.6597,-3.4596,-3.199,-2.8741,0.0,0.0,0.0,-2.0042,-1.9711,-2.0264,0.0,0.0,0.0,0.0,0.0,0.0,0.0,0.0,0.0,0.0,0.0,0.0,0.0,0.0,0.0,0.0,0.0,-4.3497,-4.3497,-4.3497,-4.3497,-4.3497,-4.3497,-4.3497,-4.3497,-4.3497,-4.3497,-4.3497,-4.3497,-4.3497,-4.3497,-4.3497,-4.3497,-4.3497,0.0,0.0,-4.3497,-4.3497,-4.3497,-4.3497,-4.3497,-4.3497,-4.3497,-4.3039,-4.2415,-4.2415,-4.1937,-4.1313,-4.124,-4.1699,-4.2158,-4.1442,-4.0598,-3.99,-3.99,-3.9313,-3.8707,-3.8707,-3.8707,-3.8707,-3.8707,-3.8707,-3.8707,-3.8707,-3.8707,-3.8707,-3.8707,-3.7404,-3.6303,-3.6303,-3.4908,-3.3807,-3.3807,-3.3807,-3.3807,-3.3807,-3.3807,-3.3807,-3.3807,-3.3807,-3.3807,-3.3807,-3.3807,-3.391,-3.4176,-3.42,-3.447,-3.5088,-3.5105,-3.5223,-3.5493,-3.5493,-3.5493,-3.5493,-3.5493,-3.5493,-3.5493,-3.5493,-3.5493,-3.4724,-3.6009,-3.656,-3.5734,-3.3678,-3.1164,-2.8411,0.0,0.0,-2.0851,-1.9858,-1.9399,-1.9711,-2.017,-2.1106,0.0,0.0,0.0,0.0,0.0,0.0,0.0,0.0,0.0,0.0,0.0,0.0,0.0,0.0,0.0,-4.3497,-4.3497,-4.3497,-4.3497,-4.3497,-4.3497,-4.3497,-4.3497,-4.3497,-4.3497,-4.3497,-4.3497,-4.3497,-4.3497,-4.3497,-4.3497,-4.3497,0.0,0.0,-4.3497,-4.3497,-4.3497,-4.3497,-4.3185,-4.2782,-4.2782,-4.2268,-4.1589,-4.1589,-4.1387,-4.1038,-4.0543,-4.0598,-4.0799,-4.0469,-3.9827,-3.9184,-3.9184,-3.8946,-3.8707,-3.8707,-3.8707,-3.8707,-3.8707,-3.8707,-3.8707,-3.8707,-3.8707,-3.856,-3.8065,-3.7055,-3.6138,-3.5624,-3.4559,-3.3807,-3.3807,-3.3807,-3.3807,-3.3807,-3.3807,-3.3807,-3.3807,-3.3807,-3.3807,-3.3807,-3.3807,-3.3986,-3.4486,-3.4508,-3.4755,-3.532,-3.5354,-3.5383,-3.5493,-3.5493,-3.5493,-3.5493,-3.5493,-3.5493,-3.5493,-3.5493,-3.5493,-3.2577,-3.4137,-3.5055,-3.4422,-3.2485,-3.0063,0.0,0.0,-2.2171,-2.0501,-1.9693,-1.9305,-1.9305,-1.9767,-2.0427,0.0,-2.2318,-2.4043,-2.7034,0.0,0.0,0.0,0.0,0.0,0.0,0.0,0.0,0.0,0.0,0.0,0.0,-4.3497,-4.3497,-4.3497,-4.3497,-4.3497,-4.3497,-4.3497,-4.3497,-4.3497,-4.3497,-4.3497,-4.3497,-4.3497,-4.3497,-4.3497,-4.3497,0.0,0.0,-4.3149,-4.3002,-4.2782,-4.2782,-4.2433,-4.1956,-4.1956,-4.1442,-4.0763,-4.0763,-4.0598,-4.0304,-3.9735,-3.9551,-3.9551,-3.9551,-3.9148,-3.8707,-3.8707,-3.8707,-3.8707,-3.8707,-3.8707,-3.8707,-3.8707,-3.8707,-3.8707,-3.8707,-3.8505,-3.8175,-3.7606,-3.6633,-3.5734,-3.51,-3.4339,-3.3807,-3.3807,-3.3807,-3.3807,-3.3807,-3.3807,-3.3807,-3.3807,-3.3807,-3.3807,-3.3807,-3.3807,-3.4055,-3.4653,-3.4694,-3.4944,-3.5479,-3.5493,-3.5493,-3.5493,-3.5493,-3.5493,-3.5493,-3.5493,-3.5493,-3.5493,-3.5493,-3.5493,-3.076,-3.2027,-3.2651,-3.2632,-3.0815,-2.8393,0.0,-2.3548,-2.1343,-1.9672,-1.9323,-1.9305,-1.9305,-1.9323,-1.9583,-2.0374,-2.1896,0.0,0.0,0.0,0.0,0.0,0.0,0.0,0.0,0.0,0.0,0.0,0.0,0.0,0.0,-4.3497,-4.3497,-4.3497,-4.3497,-4.3497,-4.3497,-4.3497,-4.3497,-4.3497,-4.3497,-4.3497,-4.3497,-4.3497,-4.3497,0.0,0.0,0.0,0.0,-4.2304,-4.1846,-4.113,-4.113,-4.113,-4.113,-4.113,-4.0598,-3.99,-3.99,-3.9386,-3.8726,-3.8726,-3.8707,-3.8707,-3.8707,-3.8707,-3.8707,-3.8707,-3.8707,-3.8707,-3.8707,-3.8707,-3.8707,-3.8707,-3.8707,-3.8707,-3.8707,-3.8065,-3.7526,-3.7507,-3.6156,-3.5009,-3.499,-3.4339,-3.3807,-3.3807,-3.3807,-3.3807,-3.3807,-3.3807,-3.3807,-3.3807,-3.3807,-3.3807,-3.3807,-3.3807,-3.4055,-3.4653,-3.4694,-3.4944,-3.5479,-3.5493,-3.5493,-3.5493,-3.5493,-3.5493,-3.5493,-3.5493,-3.5493,-3.5493,-3.5493,-3.5493,-2.6946,-2.8282,-2.92,-2.865,-2.7512,-2.6043,-2.419,-2.274,-2.1325,-1.9654,-1.9305,-1.9305,-1.9305,-1.9305,-1.9932,-2.1896,0.0,0.0,0.0,0.0,0.0,0.0,0.0,0.0,0.0,0.0,0.0,0.0,0.0,0.0,0.0,-4.2983,-4.2928,-4.3461,-4.3497,-4.3497,-4.3497,-4.3497,-4.3497,-4.3497,-4.3497,-4.3497,-4.3497,-4.3497,-4.3497,0.0,0.0,0.0,0.0,-4.1717,-4.135,-4.1111,-4.1111,-4.0763,-4.0286,-4.0286,-3.9772,-3.9074,-3.9074,-3.8909,-3.8707,-3.8707,-3.8707,-3.8707,-3.8707,-3.8707,-3.8707,-3.8707,-3.8707,-3.8707,-3.8707,-3.8707,-3.8707,-3.8707,-3.8707,-3.8707,-3.8707,-3.8065,-3.7331,-3.678,-3.5771,-3.4825,-3.4284,-3.3972,-3.3807,-3.3807,-3.3807,-3.3807,-3.3807,-3.3807,-3.3807,-3.3807,-3.3807,-3.3807,-3.3807,-3.3961,-3.4242,-3.4674,-3.487,-3.5122,-3.5493,-3.5493,-3.5493,-3.5493,-3.5493,-3.5493,-3.5493,-3.5493,-3.5493,-3.5493,-3.5493,-3.5493,0.0,-2.5217,-2.6319,-2.5823,-2.5089,-2.4061,-2.2446,-2.1437,-2.048,-1.9124,-1.8849,-1.8941,-1.9234,-1.9305,-1.9913,-2.1767,0.0,0.0,0.0,0.0,0.0,0.0,0.0,0.0,0.0,0.0,0.0,0.0,0.0,0.0,0.0,-4.2121,-4.2084,-4.258,-4.2598,-4.2598,-4.2598,-4.2598,-4.2598,-4.2598,-4.2598,-4.2598,-4.2598,-4.2598,-4.2598,0.0,0.0,0.0,0.0,-4.0855,-4.0469,-4.0194,-4.0194,-3.99,-3.9441,-3.9441,-3.9129,-3.8707,-3.8707,-3.8707,-3.8707,-3.8707,-3.8707,-3.8707,-3.8707,-3.8707,-3.8707,-3.8707,-3.8707,-3.8707,-3.8707,-3.8707,-3.8707,-3.8707,-3.8707,-3.8615,-3.8303,-3.7606,-3.6798,-3.5973,-3.5147,-3.4394,-3.3899,-3.3807,-3.3807,-3.3807,-3.3807,-3.3807,-3.3807,-3.3807,-3.3807,-3.3807,-3.3807,-3.3842,-3.3935,-3.4099,-3.4401,-3.4813,-3.4999,-3.5223,-3.5493,-3.5493,-3.5493,-3.5493,-3.5493,-3.5493,-3.5493,-3.5493,-3.5493,-3.5493,-3.5493,-3.5493,0.0,-2.2538,-2.3749,-2.3694,-2.3162,-2.2227,-2.0613,-1.9711,0.0,-1.8188,-1.806,-1.8353,-1.9143,-1.9344,-1.9693,-2.0594,0.0,0.0,0.0,0.0,0.0,0.0,0.0,0.0,0.0,0.0,0.0,0.0,0.0,0.0,0.0,-4.1056,-4.102,-4.102,-4.0965,-4.1001,-4.1111,-4.1111,-4.1111,-4.1111,-4.1111,-4.1111,-4.1111,-4.1111,-4.1111,0.0,0.0,0.0,0.0,-3.9827,-3.9368,-3.8707,-3.8707,-3.8707,-3.8707,-3.8707,-3.8707,-3.8707,-3.8707,-3.8707,-3.8707,-3.8707,-3.8707,-3.8707,-3.8707,-3.8707,-3.8707,-3.8707,-3.8707,-3.8707,-3.8707,-3.8707,-3.8707,-3.8707,-3.867,-3.8414,-3.7643,-3.6817,-3.5973,-3.5155,-3.4357,-3.3807,-3.3807,-3.3807,-3.3807,-3.3807,-3.3807,-3.3807,-3.3807,-3.3807,-3.3807,-3.3807,-3.3815,-3.3954,-3.42,-3.4242,-3.447,-3.5051,-3.5122,-3.5239,-3.5493,-3.5493,-3.5493,-3.5493,-3.5493,-3.5493,-3.5493,-3.5493,-3.5493,-3.5493,-3.5493,-3.5493,-1.6922,0.0,-1.9399,-1.8761,-1.8926,-1.8996,0.0,-1.8064,0.0,0.0,0.0,-1.8353,-1.9143,-1.9803,-2.0904,0.0,0.0,0.0,0.0,0.0,0.0,0.0,0.0,0.0,0.0,0.0,0.0,0.0,0.0,0.0,0.0,-4.0524,-4.0175,-4.0175,-3.9588,-3.9863,-4.1111,-4.1111,-4.1111,-4.1111,-4.1111,-4.1111,-4.1111,-4.1111,-4.1111,0.0,0.0,0.0,-3.9845,-3.9239,-3.8872,-3.8707,-3.8707,-3.8707,-3.8707,-3.8707,-3.8707,-3.8707,-3.8707,-3.8707,-3.8707,-3.8707,-3.8707,-3.8707,-3.8707,-3.8707,-3.8707,-3.8707,-3.8707,-3.8707,-3.8707,-3.8707,-3.8707,-3.8707,-3.823,-3.7716,-3.7533,-3.634,-3.5229,-3.5027,-3.4357,-3.3807,-3.3807,-3.3807,-3.3807,-3.3807,-3.3807,-3.3807,-3.3807,-3.3807,-3.3807,-3.3807,-3.3986,-3.4242,-3.4551,-3.4572,-3.4734,-3.5088,-3.5289,-3.5432,-3.5493,-3.5493,-3.5493,-3.5493,-3.5493,-3.5493,-3.5493,-3.5493,-3.5493,-3.5493,-3.5493,-3.5493,-1.5141,-1.6867,-1.8555,-1.8115,-1.861,-1.8996,-1.8188,0.0,0.0,0.0,0.0,0.0,-1.9638,0.0,0.0,0.0,0.0,0.0,0.0,0.0,0.0,0.0,0.0,0.0,0.0,0.0,0.0,0.0,0.0,0.0,-4.001,-3.9588,-3.935,-3.935,-3.8927,-3.9129,-3.9992,-4.001,-4.001,-4.001,-4.001,-4.001,-4.001,-4.001,-4.001,0.0,0.0,0.0,-3.9313,-3.8891,-3.8707,-3.8707,-3.8707,-3.8707,-3.8707,-3.8707,-3.8707,-3.8707,-3.8707,-3.8707,-3.8707,-3.8707,-3.8707,-3.8707,-3.8707,-3.8707,-3.8707,-3.8707,-3.8707,-3.8707,-3.8707,-3.8707,-3.8615,-3.823,-3.7808,-3.7276,-3.6523,-3.5642,-3.488,-3.4523,-3.41,-3.3807,-3.3807,-3.3807,-3.3807,-3.3807,-3.3807,-3.3807,-3.3807,-3.3807,-3.3842,-3.3961,-3.3993,-3.4242,-3.4832,-3.4754,-3.487,-3.5273,-3.5304,-3.5304,-3.5304,-3.5304,-3.5369,-3.5493,-3.5493,-3.5493,-3.5493,-3.5493,-3.5493,-3.5493,-3.5493,-3.5493,-1.4628,-1.694,-1.9213,-1.8831,-1.9546,-2.0115,0.0,0.0,0.0,0.0,0.0,0.0,0.0,0.0,0.0,0.0,0.0,0.0,0.0,0.0,0.0,0.0,0.0,0.0,0.0,0.0,0.0,0.0,0.0,-3.8707,-3.8707,-3.8707,-3.8707,-3.8707,-3.8707,-3.8707,-3.8707,-3.8707,-3.8707,-3.8707,-3.8707,-3.8707,-3.8707,-3.8707,-3.8707,-3.8707,0.0,0.0,-3.8707,-3.8707,-3.8707,-3.8707,-3.8707,-3.8707,-3.8707,-3.8707,-3.8707,-3.8707,-3.8707,-3.8707,-3.8707,-3.8707,-3.8707,-3.8707,-3.8707,-3.8707,-3.8707,-3.8707,-3.8615,-3.8524,-3.8524,-3.8432,-3.8157,-3.7477,-3.7202,-3.6725,-3.5302,-3.4899,-3.4633,-3.3935,-3.3807,-3.3807,-3.3807,-3.3807,-3.3807,-3.3807,-3.3807,-3.3807,-3.3807,-3.3807,-3.3876,-3.4123,-3.3986,-3.4165,-3.4907,-3.4793,-3.4908,-3.5354,-3.5207,-3.5105,-3.5105,-3.5105,-3.5223,-3.5493,-3.5493,-3.5493,-3.5493,-3.5493,-3.5493,-3.5493,-3.5493,-3.5493,-1.5141,-1.7362,-1.8809,-1.6757,-1.7876,-1.9271,0.0,0.0,0.0,0.0,0.0,0.0,0.0,0.0,0.0,0.0,0.0,0.0,0.0,0.0,0.0,0.0,0.0,0.0,0.0,0.0,0.0,0.0,0.0,0.0,-3.8707,-3.8707,-3.8707,-3.8707,-3.8707,-3.8707,-3.8707,-3.8707,-3.8707,-3.8707,-3.8707,-3.8707,-3.8707,-3.8707,-3.8707,-3.8707,0.0,-3.8707,-3.8707,-3.8707,-3.8707,-3.8707,-3.8707,-3.8707,-3.8707,-3.8707,-3.8707,-3.8707,-3.8707,-3.8707,-3.8707,-3.8707,-3.8707,-3.8707,-3.8707,-3.8707,-3.8707,-3.8707,-3.8212,-3.7661,-3.7661,-3.7165,-3.6633,-3.6505,-3.5917,-3.5302,-3.5045,-3.4468,-3.3954,-3.3825,-3.3807,-3.3807,-3.3807,-3.3807,-3.3807,-3.3807,-3.3807,-3.3807,-3.3807,-3.3807,-3.3815,-3.3868,-3.4018,-3.4176,-3.4315,-3.4572,-3.4753,-3.4832,-3.4999,-3.5105,-3.5105,-3.5105,-3.5223,-3.5493,-3.5493,-3.5493,-3.5493,-3.5493,-3.5493,-3.5493,-3.5493,-3.5493,-1.4088,-1.6169,-1.7839,-1.7179,-1.9179,-2.1198,0.0,0.0,0.0,0.0,0.0,0.0,0.0,0.0,0.0,0.0,0.0,0.0,0.0,0.0,0.0,0.0,0.0,0.0,0.0,0.0,0.0,0.0,0.0,0.0,-3.8707,-3.8707,-3.8707,-3.8707,-3.8707,-3.8707,-3.8707,-3.8707,-3.8707,-3.8707,-3.8707,-3.8707,-3.8707,-3.8707,-3.8707,-3.8707,0.0,-3.8707,-3.8707,-3.8707,-3.8707,-3.8707,-3.8707,-3.8707,-3.8707,-3.8707,-3.8707,-3.8707,-3.8707,-3.8707,-3.8707,-3.8707,-3.8707,-3.8707,-3.8707,-3.8707,-3.8615,-3.8175,-3.7771,-3.7507,-3.7507,-3.689,-3.6174,-3.5716,-3.5284,-3.4862,-3.4468,-3.4064,-3.3807,-3.3807,-3.3807,-3.3807,-3.3807,-3.3807,-3.3807,-3.3807,-3.3807,-3.3807,-3.3807,-3.3807,-3.3868,-3.4012,-3.4012,-3.4117,-3.4423,-3.4464,-3.4423,-3.4423,-3.4553,-3.4676,-3.4889,-3.487,-3.5088,-3.5493,-3.5493,-3.5493,-3.5493,-3.5493,-3.5493,-3.5493,-3.5493,-3.5493,-1.3537,-1.5343,-1.7183,-1.8372,0.0,0.0,0.0,0.0,0.0,0.0,0.0,0.0,0.0,0.0,0.0,0.0,0.0,0.0,0.0,0.0,0.0,0.0,0.0,0.0,0.0,0.0,0.0,0.0,0.0,0.0,-3.8157,-3.8138,-3.8138,-3.8138,-3.8138,-3.8138,-3.8138,-3.8138,-3.834,-3.8707,-3.8707,-3.8597,-3.8432,-3.8615,-3.8597,-3.8432,-3.8615,-3.8707,-3.8707,-3.8707,-3.8707,-3.8707,-3.8707,-3.8707,-3.8707,-3.8707,-3.8707,-3.8707,-3.8707,-3.8707,-3.8707,-3.8707,-3.8707,-3.867,-3.8487,-3.8414,-3.8248,-3.7441,-3.7055,-3.6909,-3.6909,-3.6321,-3.555,-3.489,-3.4715,-3.4559,-3.3935,-3.3807,-3.3807,-3.3807,-3.3807,-3.3807,-3.3807,-3.3807,-3.3807,-3.3807,-3.3807,-3.3807,-3.3807,-3.3807,-3.3876,-3.4074,-3.391,-3.3979,-3.4461,-3.4311,-3.42,-3.42,-3.4269,-3.4467,-3.4774,-3.4793,-3.5035,-3.5493,-3.5493,-3.5493,-3.5493,-3.5493,-3.5493,-3.5493,-3.5493,-3.5493,-1.4903,-1.6206,-1.7458,-1.9751,0.0,0.0,0.0,0.0,0.0,0.0,0.0,0.0,0.0,0.0,0.0,0.0,0.0,0.0,0.0,0.0,0.0,0.0,0.0,0.0,0.0,0.0,0.0,0.0,0.0,0.0,-3.6505,-3.6468,-3.6468,-3.6468,-3.6468,-3.6468,-3.6468,-3.6468,-3.7221,-3.8707,-3.8707,-3.8303,-3.7606,-3.8358,-3.8285,-3.7606,-3.8377,-3.8707,-3.8707,-3.8707,-3.8707,-3.8707,-3.8707,-3.8707,-3.8707,-3.8707,-3.8707,-3.8707,-3.8707,-3.8707,-3.8707,-3.8707,-3.8707,-3.856,-3.7808,-3.7569,-3.7404,-3.6597,-3.5807,-3.5174,-3.5174,-3.4596,-3.3954,-3.3899,-3.3899,-3.3862,-3.3807,-3.3807,-3.3807,-3.3807,-3.3807,-3.3807,-3.3807,-3.3807,-3.3807,-3.3807,-3.3807,-3.3807,-3.3807,-3.3807,-3.3807,-3.3815,-3.3815,-3.3815,-3.3868,-3.4068,-3.42,-3.42,-3.4508,-3.4774,-3.507,-3.507,-3.5207,-3.5493,-3.5493,-3.5493,-3.5493,-3.5493,-3.5493,-3.5493,-3.5493,-3.5493,-1.2939,-1.4774,-1.6738,-1.9143,0.0,0.0,0.0,0.0,0.0,0.0,0.0,0.0,0.0,0.0,0.0,0.0,0.0,0.0,0.0,0.0,0.0,0.0,0.0,0.0,0.0,0.0,0.0,0.0,0.0,0.0,-3.6321,-3.6303,-3.6303,-3.6303,-3.6303,-3.6303,-3.6303,-3.6303,-3.6597,-3.7202,-3.7202,-3.7037,-3.6762,-3.7074,-3.7037,-3.6762,-3.7074,-3.7202,-3.7202,-3.7202,-3.7202,-3.7202,-3.7202,-3.7202,-3.7276,-3.7771,-3.7936,-3.8028,-3.8524,-3.8377,-3.7936,-3.7936,-3.7624,-3.7147,-3.6835,-3.6743,-3.6578,-3.5734,-3.5247,-3.499,-3.499,-3.4412,-3.3807,-3.3807,-3.3807,-3.3807,-3.3807,-3.3807,-3.3807,-3.3807,-3.3807,-3.3807,-3.3807,-3.3807,-3.3807,-3.3807,-3.3807,-3.3807,-3.3807,-3.3807,-3.3807,-3.3807,-3.3807,-3.3868,-3.4043,-3.4147,-3.436,-3.4755,-3.4734,-3.4813,-3.5088,-3.5105,-3.5223,-3.5493,-3.5493,-3.5493,-3.5493,-3.5493,-3.5493,-3.5493,-3.5493,-3.5493,-1.248,-1.4426,-1.6591,0.0,0.0,0.0,0.0,0.0,0.0,0.0,0.0,0.0,0.0,0.0,0.0,0.0,0.0,0.0,0.0,0.0,0.0,0.0,0.0,0.0,0.0,0.0,0.0,0.0,0.0,0.0,0.0,-3.5514,-3.5514,-3.5514,-3.5514,-3.5514,-3.5514,-3.5514,-3.5514,-3.5514,-3.5514,-3.5642,-3.5899,-3.6174,-3.6156,-3.5899,-3.6174,-3.6303,-3.6303,-3.6303,-3.6303,-3.6303,-3.6303,-3.6303,-3.6358,-3.6909,-3.711,-3.7184,-3.7753,-3.7569,-3.711,-3.711,-3.6743,-3.6248,-3.5973,-3.5899,-3.5716,-3.4871,-3.4633,-3.4633,-3.4633,-3.4211,-3.3807,-3.3807,-3.3807,-3.3807,-3.3807,-3.3807,-3.3807,-3.3807,-3.3807,-3.3807,-3.3807,-3.3807,-3.3807,-3.3807,-3.3807,-3.3807,-3.3807,-3.3807,-3.3807,-3.3807,-3.3807,-3.3876,-3.4068,-3.4292,-3.4597,-3.4997,-3.4981,-3.5034,-3.5223,-3.5223,-3.5304,-3.5493,-3.5493,-3.5493,-3.5493,-3.5493,-3.5493,-3.5493,-3.5493,-3.5493,-1.4279,-1.5661,0.0,0.0,0.0,0.0,0.0,0.0,0.0,0.0,0.0,0.0,0.0,0.0,0.0,0.0,0.0,0.0,0.0,0.0,0.0,0.0,0.0,0.0,0.0,0.0,0.0,0.0,0.0,0.0,0.0,-3.3807,-3.3807,-3.3807,-3.3807,-3.3807,-3.3807,-3.3807,-3.3807,-3.3807,-3.3807,-3.4229,-3.5009,-3.5881,-3.5807,-3.5027,-3.5899,-3.6266,-3.6266,-3.6266,-3.6266,-3.6266,-3.6266,-3.6266,-3.6266,-3.6266,-3.6285,-3.6285,-3.6303,-3.6285,-3.6285,-3.6285,-3.6266,-3.6101,-3.5247,-3.499,-3.4807,-3.4027,-3.3807,-3.3807,-3.3807,-3.3807,-3.3807,-3.3807,-3.3807,-3.3807,-3.3807,-3.3807,-3.3807,-3.3807,-3.3807,-3.3807,-3.3807,-3.3807,-3.3807,-3.3807,-3.3807,-3.3807,-3.3807,-3.3807,-3.3807,-3.3807,-3.3807,-3.3807,-3.3807,-3.4451,-3.4906,-3.4906,-3.5285,-3.5493,-3.5493,-3.5493,-3.5493,-3.5493,-3.5493,-3.5493,-3.5493,-3.5493,-3.5493,-3.5493,-3.5493,-3.5493,-1.3592,0.0,0.0,0.0,0.0,0.0,0.0,0.0,0.0,0.0,0.0,0.0,0.0,0.0,0.0,0.0,0.0,0.0,0.0,0.0,0.0,0.0,0.0,0.0,0.0,0.0,0.0,0.0,0.0,0.0,0.0,-3.3807,-3.3807,-3.3807,-3.3807,-3.3807,-3.3807,-3.3807,-3.3807,-3.3807,-3.3807,-3.3917,-3.4174,-3.4412,-3.4394,-3.4174,-3.4431,-3.4541,-3.4541,-3.4541,-3.4541,-3.4541,-3.4541,-3.4541,-3.4614,-3.5183,-3.5404,-3.5477,-3.6083,-3.5899,-3.5404,-3.5404,-3.5,-3.4486,-3.4229,-3.4174,-3.4119,-3.3862,-3.3807,-3.3807,-3.3807,-3.3807,-3.3807,-3.3807,-3.3807,-3.3807,-3.3807,-3.3807,-3.3807,-3.3807,-3.3807,-3.3807,-3.3807,-3.3807,-3.3807,-3.3807,-3.3807,-3.3807,-3.3807,-3.3807,-3.3807,-3.3807,-3.3807,-3.3807,-3.3807,-3.4398,-3.4925,-3.5285,-3.5427,-3.5493,-3.5493,-3.5493,-3.5493,-3.5493,-3.5493,-3.5493,-3.5493,-3.5493,-3.5493,-3.5493,-3.5493,-3.5493,-1.4951,0.0,0.0,0.0,0.0,0.0,0.0,0.0,0.0,0.0,0.0,0.0,0.0,0.0,0.0,0.0,0.0,0.0,0.0,0.0,0.0,0.0,0.0,0.0,0.0,0.0,0.0,0.0,0.0,0.0,0.0,-3.3807,-3.3807,-3.3807,-3.3807,-3.3807,-3.3807,-3.3807,-3.3807,-3.3807,-3.3807,-3.3807,-3.3807,-3.3807,-3.3807,-3.3807,-3.3807,-3.3807,-3.3807,-3.3807,-3.3807,-3.3807,-3.3807,-3.3807,-3.3862,-3.4357,-3.4523,-3.4614,-3.5128,-3.4963,-3.4523,-3.4523,-3.4211,-3.3807,-3.3807,-3.3807,-3.3807,-3.3807,-3.3807,-3.3807,-3.3807,-3.3807,-3.3807,-3.3807,-3.3807,-3.3807,-3.3807,-3.3807,-3.3807,-3.3807,-3.3807,-3.3807,-3.3807,-3.3807,-3.3807,-3.3807,-3.3807,-3.3807,-3.3807,-3.3807,-3.3807,-3.3807,-3.3807,-3.3807,-3.3807,-3.4551,-3.5174,-3.5479,-3.5493,-3.5493,-3.5493,-3.5493,-3.5493,-3.5493,-3.5493,-3.5493,-3.5493,-3.5493,-3.5493,-3.5493,-3.5493,-3.5493,0.0,0.0,0.0,0.0,0.0,0.0,0.0,0.0,0.0,0.0,0.0,0.0,0.0,0.0,0.0,0.0,0.0,0.0,0.0,0.0,0.0,0.0,0.0,0.0,0.0,0.0,0.0,0.0,0.0,0.0,0.0,-3.3587,-3.3587,-3.3587,-3.3587,-3.3587,-3.3587,-3.3587,-3.3587,-3.3587,-3.3587,-3.3587,-3.3587,-3.3733,-3.3807,-3.3807,-3.3807,-3.3807,-3.3807,-3.3807,-3.3807,-3.3807,-3.3807,-3.3807,-3.3807,-3.3807,-3.3807,-3.3807,-3.3807,-3.3807,-3.3807,-3.3807,-3.3807,-3.3807,-3.3807,-3.3807,-3.3807,-3.3807,-3.3807,-3.3807,-3.3807,-3.3807,-3.3807,-3.3807,-3.3807,-3.3807,-3.3807,-3.3807,-3.3807,-3.3807,-3.3807,-3.3807,-3.3807,-3.3807,-3.3807,-3.3807,-3.3807,-3.3807,-3.3807,-3.3807,-3.3807,-3.3807,-3.3807,-3.3842,-3.3954,-3.4906,-3.5493,-3.5493,-3.5493,-3.5493,-3.5493,-3.5493,-3.5493,-3.5493,-3.5493,-3.5493,-3.5493,-3.5493,-3.5493,-3.5493,-3.5493,-3.5493,0.0,0.0,0.0,0.0,0.0,0.0,0.0,0.0,0.0,0.0,0.0,0.0,0.0,0.0,0.0,0.0,0.0,0.0,0.0,0.0,0.0,0.0,0.0,0.0,0.0,0.0,0.0,0.0,0.0,0.0,-3.1916,-3.1916,-3.1916,-3.1916,-3.1916,-3.1916,-3.1916,-3.1916,-3.1916,0.0,-3.1916,-3.1916,-3.1953,-3.322,-3.3807,-3.3807,-3.3807,-3.3807,-3.3807,-3.3807,-3.3807,-3.3807,-3.3807,-3.3807,-3.3807,-3.3807,-3.3807,-3.3807,-3.3807,-3.3807,-3.3807,-3.3807,-3.3807,-3.3807,-3.3807,-3.3807,-3.3807,-3.3807,-3.3807,-3.3807,-3.3807,-3.3807,-3.3807,-3.3807,-3.3807,-3.3807,-3.3807,-3.3807,-3.3807,-3.3807,-3.3807,-3.3807,-3.3807,-3.3807,-3.3807,-3.3807,-3.3807,-3.3807,-3.3807,-3.3807,-3.3807,-3.3807,-3.3807,-3.4165,-3.5069,-3.5369,-3.5493,-3.5493,-3.5493,-3.5493,-3.5493,-3.5493,-3.5493,-3.5493,-3.5493,-3.5493,-3.5493,-3.5493,-3.5493,-3.5493,-3.5493,-3.5493,0.0,0.0,0.0,0.0,0.0,0.0,0.0,0.0,0.0,0.0,0.0,0.0,0.0,0.0,0.0,0.0,0.0,0.0,0.0,0.0,0.0,0.0,0.0,0.0,0.0,0.0,0.0,0.0,0.0,-3.1384,-3.1384,-3.1384,-3.1384,-3.1384,-3.1384,-3.1384,-3.1384,-3.1384,-3.1384,-3.1384,-3.1384,-3.1384,-3.1421,-3.2265,-3.2651,-3.2669,-3.3054,-3.3238,-3.3256,-3.3642,-3.3807,-3.3807,-3.3807,-3.3807,-3.3807,-3.3807,-3.3807,-3.3807,-3.3807,-3.3807,-3.3807,-3.3807,-3.3807,-3.3807,-3.3807,-3.3807,-3.3807,-3.3807,-3.3807,-3.3807,-3.3807,-3.3807,-3.3807,-3.3807,-3.3807,-3.3807,-3.3807,-3.3807,-3.3807,-3.3807,-3.3807,-3.3807,-3.3807,-3.3807,-3.3807,-3.3807,-3.3807,-3.3807,-3.3807,-3.3807,-3.3807,-3.3807,-3.4288,-3.4851,-3.5446,-3.5493,-3.5493,-3.5493,-3.5493,-3.5493,-3.5493,-3.5493,-3.5493,-3.5493,-3.5493,-3.5493,-3.5493,-3.5493,-3.5493,-3.5493,-3.5493,-3.5493,0.0,0.0,0.0,0.0,0.0,0.0,0.0,0.0,0.0,0.0,0.0,0.0,0.0,0.0,0.0,0.0,0.0,0.0,0.0,0.0,0.0,0.0,0.0,0.0,0.0,0.0,0.0,0.0,0.0,-3.098,-3.098,-3.098,-3.098,-3.098,-3.098,-3.098,-3.098,-3.098,-3.098,-3.098,-3.098,-3.098,-3.098,-3.098,-3.1127,-3.1439,-3.21,-3.2394,-3.2449,-3.3109,-3.3476,-3.3587,-3.3587,-3.3678,-3.3807,-3.3807,-3.3807,-3.3807,-3.3807,-3.3807,-3.3807,-3.3807,-3.3807,-3.3807,-3.3807,-3.3807,-3.3807,-3.3807,-3.3807,-3.3807,-3.3807,-3.3807,-3.3807,-3.3807,-3.3807,-3.3807,-3.3807,-3.3807,-3.3807,-3.3807,-3.3807,-3.3807,-3.3807,-3.3807,-3.3807,-3.3807,-3.3807,-3.3807,-3.3807,-3.3807,-3.3895,-3.4068,-3.4944,-3.5493,-3.5493,-3.5493,-3.5493,-3.5493,-3.5493,-3.5493,-3.5493,-3.5493,-3.5493,-3.5493,-3.5493,-3.5493,-3.5493,-3.5493,-3.5493,-3.5493,-3.5493,-3.5493,0.0,0.0,0.0,0.0,0.0,0.0,0.0,0.0,0.0,0.0,0.0,0.0,0.0,0.0,0.0,0.0,0.0,0.0,0.0,0.0,0.0,0.0,0.0,0.0,0.0,0.0,0.0,0.0,-2.9305,-2.9305,-2.9305,-2.9305,-2.9305,-2.9305,-2.9305,-2.9305,-2.9305,-2.9305,-2.9305,-2.9305,-2.9305,-2.9305,-2.9305,-2.9305,-3.0081,-3.1403,-3.1513,-3.1549,-3.1568,-3.1678,-3.2137,-3.2761,-3.2761,-3.3201,-3.3807,-3.3807,-3.3807,-3.3807,-3.3807,-3.3807,-3.3807,-3.3807,-3.3807,-3.3807,-3.3807,-3.3807,-3.3807,-3.3807,-3.3807,-3.3807,-3.3807,-3.3807,-3.3807,-3.3807,-3.3807,-3.3807,-3.3807,-3.3807,-3.3807,-3.3807,-3.3807,-3.3807,-3.3807,-3.3807,-3.3807,-3.3807,-3.3807,-3.3807,-3.3807,-3.3807,-3.4189,-3.5171,-3.5398,-3.5493,-3.5493,-3.5493,-3.5493,-3.5493,-3.5493,-3.5493,-3.5493,-3.5493,-3.5493,-3.5493,-3.5493,-3.5493,-3.5493,-3.5493,-3.5493,-3.5493,-3.5493,-3.5493,0.0,0.0,0.0,0.0,0.0,0.0,0.0,0.0,0.0,0.0,0.0,0.0,0.0,0.0,0.0,0.0,0.0,0.0,0.0,0.0,0.0,0.0,0.0,0.0,0.0,0.0,0.0,0.0,-2.8994,-2.8994,-2.8994,-2.8994,-2.8994,-2.8994,-2.8994,-2.8994,-2.8994,-2.8994,-2.8994,-2.8994,-2.8994,-2.8994,-2.8994,-2.8994,-2.9402,-3.0081,-3.0522,-3.0723,-3.076,-3.1201,-3.1604,-3.1935,-3.1935,-3.2137,-3.2449,-3.2449,-3.2742,-3.3128,-3.3128,-3.3421,-3.3807,-3.3807,-3.3807,-3.3807,-3.3807,-3.3807,-3.3807,-3.3807,-3.3807,-3.3807,-3.3807,-3.3807,-3.3807,-3.3807,-3.3807,-3.3807,-3.3807,-3.3807,-3.3807,-3.3807,-3.3807,-3.3807,-3.3807,-3.3807,-3.3807,-3.3807,-3.3807,-3.4037,-3.4676,-3.4756,-3.4943,-3.5446,-3.5493,-3.5493,-3.5493,-3.5493,-3.5493,-3.5493,-3.5493,-3.5493,-3.5493,-3.5493,-3.5493,-3.5493,-3.5493,-3.5257,-3.4776,-3.4776,-3.4526,-3.4045,-3.4045,-3.4045,0.0,0.0,0.0,0.0,0.0,0.0,0.0,0.0,0.0,0.0,0.0,0.0,0.0,0.0,0.0,0.0,0.0,0.0,0.0,0.0,0.0,0.0,0.0,0.0,0.0,0.0,0.0,0.0,-2.8865,-2.8902,-2.8723,-2.8906,-2.8994,-2.8994,-2.8994,-2.8994,-2.8994,-2.8994,-2.8994,-2.8994,-2.8994,-2.8994,-2.8994,-2.8994,-2.8994,-2.9012,-2.9641,-2.9898,-2.9953,-3.054,-3.0907,-3.1091,-3.1091,-3.1219,-3.1384,-3.1384,-3.177,-3.2302,-3.2302,-3.2687,-3.322,-3.344,-3.3495,-3.3532,-3.3733,-3.3807,-3.3807,-3.3807,-3.3807,-3.3807,-3.3807,-3.3807,-3.3807,-3.3807,-3.3807,-3.3807,-3.3807,-3.3807,-3.3807,-3.3807,-3.3807,-3.3807,-3.3807,-3.3807,-3.3807,-3.3807,-3.3807,-3.4093,-3.4962,-3.5069,-3.5069,-3.5069,-3.5069,-3.5069,-3.5069,-3.5335,-3.5493,-3.5493,-3.5493,-3.5493,-3.5493,-3.5493,-3.5295,-3.4853,-3.4988,-3.4776,-3.4199,-3.3968,-3.3545,-3.2891,-3.2891,-3.2891,0.0,0.0,0.0,0.0,0.0,0.0,0.0,0.0,0.0,0.0,0.0,0.0,0.0,0.0,0.0,0.0,0.0,0.0,0.0,0.0,0.0,0.0,0.0,0.0,0.0,0.0,0.0,0.0,-2.8576,-2.8686,-2.7897,-2.8594,-2.8994,-2.8994,-2.8994,-2.8994,-2.8994,-2.8994,-2.8994,-2.8994,-2.8994,-2.8994,-2.8994,-2.8994,-2.8994,-2.8994,-2.903,-2.9049,-2.9067,-2.9104,-2.9586,-3.0265,-3.0265,-3.0723,-3.1384,-3.1384,-3.1421,-3.1458,-3.1458,-3.1476,-3.1641,-3.2412,-3.2669,-3.2816,-3.3568,-3.3807,-3.3807,-3.3807,-3.3807,-3.3807,-3.3807,-3.3807,-3.3807,-3.3807,-3.3807,-3.3807,-3.3807,-3.3807,-3.3807,-3.3807,-3.3807,-3.3807,-3.3807,-3.3807,-3.3807,-3.3807,-3.3807,-3.3815,-3.3876,-3.3895,-3.3895,-3.3895,-3.3895,-3.3895,-3.3895,-3.4888,-3.5493,-3.5493,-3.5493,-3.5493,-3.5493,-3.5493,-3.4718,-3.3064,-3.3603,-3.3987,-3.4199,-3.3372,-3.2949,-3.2891,-3.2891,-3.2891,0.0,0.0,0.0,0.0,0.0,0.0,0.0,0.0,0.0,0.0,0.0,0.0,0.0,0.0,0.0,0.0,0.0,0.0,0.0,0.0,0.0,0.0,0.0,0.0,0.0,0.0,0.0,0.0,0.0,-2.7328,-2.7053,-2.731,-2.7475,-2.7475,-2.7475,-2.7475,-2.7475,-2.7475,-2.7475,-2.7475,-2.7475,-2.7475,-2.7493,-2.7989,-2.8227,-2.8264,-2.8796,-2.8994,-2.8994,-2.8994,-2.9159,-2.9439,-2.9439,-2.9622,-2.9861,-2.9861,-3.0191,-3.0632,-3.0632,-3.0962,-3.1439,-3.1733,-3.2063,-3.2394,-3.2687,-3.3256,-3.3807,-3.3807,-3.3807,-3.3807,-3.3807,-3.3293,-3.2687,-3.2339,-3.2247,-3.254,-3.3587,-3.3807,-3.3807,-3.3807,-3.3807,-3.3807,-3.3807,-3.3807,-3.3807,-3.3807,-3.3807,-3.3807,-3.3807,-3.3807,-3.3807,-3.3807,-3.3807,-3.4093,-3.4832,-3.527,-3.5493,-3.5493,-3.5493,-3.5493,-3.5493,-3.5493,-3.468,-3.2929,-3.2064,-3.1948,-3.2583,-3.2275,-3.1833,-3.1295,-3.1295,-3.1295,0.0,0.0,0.0,0.0,0.0,0.0,0.0,0.0,0.0,0.0,0.0,0.0,0.0,0.0,0.0,0.0,0.0,0.0,0.0,0.0,0.0,0.0,0.0,0.0,0.0,0.0,0.0,0.0,0.0,0.0,-2.6209,-2.6447,-2.6612,-2.6612,-2.6612,-2.6612,-2.6612,-2.6612,-2.6612,-2.6612,-2.6612,-2.6612,-2.6631,-2.7145,-2.7402,-2.742,-2.797,-2.848,-2.8994,-2.8994,-2.8994,-2.8994,-2.8994,-2.8994,-2.8994,-2.8994,-2.9347,-2.9806,-2.9806,-3.0155,-3.0632,-3.0907,-3.1292,-3.1696,-3.188,-3.2797,-3.3568,-3.2504,-3.2192,-3.2192,-3.2192,-3.1935,-3.1604,-3.1439,-3.1531,-3.1898,-3.2797,-3.3421,-3.3807,-3.3807,-3.3807,-3.3807,-3.3807,-3.3807,-3.3807,-3.3807,-3.3807,-3.3807,-3.3807,-3.3807,-3.3807,-3.3807,-3.4141,-3.4676,-3.5446,-3.5493,-3.5493,-3.5493,-3.5493,-3.5493,-3.5493,-3.4397,-3.3237,-3.2083,-3.0968,-3.0679,-3.1256,-3.1256,-3.0968,-3.0398,-3.0398,-3.0398,0.0,0.0,0.0,0.0,0.0,0.0,0.0,0.0,0.0,0.0,0.0,0.0,0.0,0.0,0.0,0.0,0.0,0.0,0.0,0.0,0.0,0.0,0.0,0.0,0.0,0.0,0.0,0.0,-2.608,-2.619,-2.5421,-2.6098,-2.6539,-2.6539,-2.6539,-2.6539,-2.6539,-2.6539,-2.6539,-2.6539,-2.6539,-2.6539,-2.6539,-2.6557,-2.6557,-2.6576,-2.6594,-2.7493,-2.892,-2.8938,-2.8975,-2.8994,-2.8994,-2.8994,-2.8994,-2.8994,-2.8994,-2.8994,-2.8994,-2.8994,-2.9122,-2.9916,-3.0338,-3.0632,-3.1164,-3.2412,-3.3018,-2.9898,-2.8994,-2.8994,-2.8994,-2.9769,-3.0668,-3.1201,-3.1733,-3.1953,-3.1439,-3.2559,-3.3697,-3.377,-3.3807,-3.3807,-3.3807,-3.3807,-3.3807,-3.3807,-3.3807,-3.3807,-3.3807,-3.3807,-3.3815,-3.3842,-3.4851,-3.5493,-3.5493,-3.5493,-3.5468,-3.5359,-3.5339,-3.5339,-3.5339,-3.2148,-3.0398,-3.0398,-3.0398,-3.0398,-3.0398,-3.0398,-3.0398,-3.0398,-3.0398,-3.0398,-0.9864,0.0,0.0,0.0,0.0,0.0,0.0,0.0,0.0,0.0,0.0,0.0,0.0,0.0,0.0,0.0,0.0,0.0,0.0,0.0,0.0,0.0,0.0,0.0,0.0,0.0,0.0,0.0,-2.474,-2.4777,-2.4538,-2.474,-2.4869,-2.4869,-2.4869,-2.4869,-2.4869,-2.4869,-2.4869,-2.4869,-2.4869,-2.4869,-2.4887,-2.5456,-2.5713,-2.575,-2.6355,-2.6851,-2.731,-2.7897,-2.8484,-2.8994,-2.8994,-2.8994,-2.8994,-2.8994,-2.8994,-2.8994,-2.8994,-2.8994,-2.903,-2.925,-2.9384,-2.9475,-2.9622,-2.9989,-3.0155,-2.9232,-2.8994,-2.8994,-2.8994,-2.9237,-2.9494,-2.9641,-2.9787,-2.9843,-2.9714,-3.0026,-3.1017,-3.3348,-3.3807,-3.3807,-3.3807,-3.3807,-3.3807,-3.3807,-3.3807,-3.3807,-3.3807,-3.3807,-3.4117,-3.4925,-3.532,-3.5493,-3.5493,-3.5493,-3.4436,-3.1955,-3.1802,-3.1802,-3.1802,-3.0898,-3.0398,-3.0398,-3.0398,-3.0398,-3.0398,-3.0398,-3.0398,-3.0398,-3.0398,-3.0398,0.0,0.0,0.0,0.0,0.0,0.0,0.0,0.0,0.0,0.0,0.0,0.0,0.0,0.0,0.0,0.0,0.0,0.0,0.0,0.0,0.0,0.0,0.0,0.0,0.0,-2.419,-2.419,-2.419,-2.419,-2.419,-2.419,-2.419,-2.419,-2.419,-2.419,-2.419,-2.419,-2.419,-2.419,-2.419,-2.419,-2.419,-2.4208,-2.4685,-2.4887,-2.4924,-2.5401,-2.5786,-2.6135,-2.6594,-2.7273,-2.8022,-2.8374,-2.8503,-2.8539,-2.8865,-2.8994,-2.8994,-2.8994,-2.8994,-2.8994,-2.8994,-2.8994,-2.8994,-2.8994,-2.8994,-2.8994,-2.8994,-2.8994,-2.8994,-2.8994,-2.8994,-2.8994,-2.8994,-2.8994,-2.8994,-2.8994,-2.8994,-2.9947,-3.3183,-3.2724,-3.1806,-3.1806,-3.1806,-3.1806,-3.1806,-3.1806,-3.1806,-3.1806,-3.2143,-3.2637,-3.33,-3.3359,-3.3359,-3.3359,-3.3359,-3.2513,-3.0533,-3.0398,-3.0398,-3.0398,-3.0398,-3.0398,-3.0398,-3.0398,-3.0398,-3.0398,-3.0398,-3.0398,-3.0398,-3.0398,-3.0398,0.0,0.0,0.0,0.0,0.0,0.0,-1.5496,-1.5276,0.0,0.0,0.0,0.0,0.0,0.0,0.0,0.0,0.0,0.0,0.0,0.0,0.0,0.0,0.0,0.0,-2.419,-2.419,-2.419,-2.419,-2.419,-2.419,-2.419,-2.419,-2.419,-2.419,-2.419,-2.419,-2.419,-2.419,-2.419,-2.419,-2.419,-2.419,-2.419,-2.419,-2.419,-2.419,-2.419,-2.4612,-2.5274,-2.5274,-2.5786,-2.6667,-2.7383,-2.7658,-2.775,-2.8484,-2.8773,-2.8888,-2.8888,-2.892,-2.8994,-2.8994,-2.8994,-2.8994,-2.8994,-2.8994,-2.8994,-2.8994,-2.8994,-2.8994,-2.8994,-2.8994,-2.8994,-2.8994,-2.8994,-2.8994,-2.8994,-2.8994,-2.9861,-3.2706,-3.0962,-2.8994,-2.8994,-2.8994,-2.8994,-2.8994,-2.8994,-2.8994,-2.8994,-2.9815,-3.0398,-3.0398,-3.0398,-3.0398,-3.0398,-3.0398,-3.0398,-3.0398,-3.0398,-3.0398,-3.0398,-3.0398,-3.0398,-3.0398,-3.0398,-3.0398,-3.0398,-3.0398,-3.0398,-3.0398,-3.0398,-3.0398,0.0,-1.4499,-1.4756,0.0,0.0,0.0,-1.2489,-1.2829,0.0,0.0,0.0,0.0,0.0,0.0,0.0,0.0,0.0,0.0,0.0,0.0,0.0,0.0,0.0,0.0,-2.419,-2.419,-2.419,-2.419,-2.419,-2.419,-2.419,-2.419,-2.419,-2.419,-2.419,-2.419,-2.419,-2.419,-2.419,-2.419,-2.419,-2.419,-2.419,-2.419,-2.419,-2.419,-2.419,-2.4281,-2.4428,-2.4428,-2.5291,-2.6631,-2.6778,-2.6833,-2.6851,-2.7016,-2.7475,-2.8026,-2.8026,-2.8466,-2.8994,-2.8994,-2.8994,-2.8994,-2.8994,-2.8994,-2.8994,-2.8994,-2.8994,-2.8994,-2.8994,-2.8994,-2.8994,-2.8994,-2.8994,-2.8994,-2.8994,-2.8994,-2.9177,-2.98,-2.9415,-2.8994,-2.8994,-2.8994,-2.8994,-2.8994,-2.8994,-2.8994,-2.8994,-2.9815,-3.0398,-3.0398,-3.0398,-3.0398,-3.0398,-3.0398,-3.0398,-3.0398,-3.0398,-3.0398,-3.0398,-3.0398,-3.0398,-3.0398,-3.0398,-3.0398,-3.0398,-3.0398,-3.0398,-3.0398,-3.0398,-3.0398,0.0,0.0,-1.6206,-1.5802,0.0,0.0,0.0,0.0,-1.3409,0.0,0.0,0.0,0.0,0.0,0.0,0.0,0.0,0.0,0.0,0.0,0.0,0.0,0.0,0.0,-2.3566,-2.3602,-2.3768,-2.4171,-2.419,-2.419,-2.419,-2.419,-2.419,-2.419,-2.419,-2.419,-2.419,-2.419,-2.419,-2.419,-2.419,-2.419,-2.419,-2.419,-2.419,-2.419,-2.419,-2.419,-2.419,-2.419,-2.4685,-2.5438,-2.5841,-2.5988,-2.6043,-2.6447,-2.6869,-2.72,-2.72,-2.7475,-2.7805,-2.7805,-2.8081,-2.8411,-2.8411,-2.8686,-2.8994,-2.8994,-2.8994,-2.8994,-2.8994,-2.8994,-2.8994,-2.8994,-2.8994,-2.8994,-2.8994,-2.8994,-2.8994,-2.8994,-2.8994,-2.8994,-2.8994,-2.8994,-2.8994,-2.8994,-2.8994,-2.9163,-2.9643,-3.0114,-3.0398,-3.0398,-3.0398,-3.0398,-3.0398,-3.0398,-3.0398,-3.0398,-3.0398,-3.0398,-3.0398,-3.0398,-3.0398,-3.0398,-3.0398,-3.0398,-3.0398,-3.0398,-3.0398,-3.0398,-3.0398,-3.0398,0.0,0.0,0.0,0.0,0.0,-1.5753,0.0,0.0,0.0,-1.4829,0.0,0.0,0.0,0.0,0.0,0.0,0.0,0.0,0.0,0.0,0.0,0.0,0.0,0.0,0.0,-2.2373,-2.2685,-2.3657,-2.3437,-2.3456,-2.3933,-2.3969,-2.4043,-2.419,-2.419,-2.419,-2.419,-2.419,-2.419,-2.419,-2.419,-2.419,-2.419,-2.419,-2.419,-2.419,-2.419,-2.419,-2.419,-2.419,-2.419,-2.4263,-2.4925,-2.5182,-2.5256,-2.5897,-2.6245,-2.6374,-2.6374,-2.6465,-2.6612,-2.6612,-2.7034,-2.7567,-2.7567,-2.8136,-2.8778,-2.8778,-2.8865,-2.8994,-2.8994,-2.8994,-2.8994,-2.8994,-2.8994,-2.8994,-2.8994,-2.8994,-2.8994,-2.8994,-2.8994,-2.8994,-2.8994,-2.8994,-2.9067,-2.923,-2.9272,-2.9533,-3.0299,-3.0398,-3.0398,-3.0398,-3.0398,-3.0398,-3.0398,-3.0398,-3.0398,-3.0398,-3.0398,-3.0398,-3.0398,-3.0398,-3.0398,-3.0398,-3.0398,-3.0398,-3.0398,-3.0398,-3.0398,-3.0398,-3.0398,-3.0398,0.0,0.0,0.0,0.0,-1.8962,0.0,0.0,0.0,-1.4866,-1.2902,0.0,0.0,0.0,0.0,0.0,0.0,0.0,0.0,0.0,0.0,0.0,0.0,0.0,0.0,0.0,-2.0071,-2.0372,-2.195,-2.0701,-2.0813,-2.3033,-2.3144,-2.3474,-2.4171,-2.419,-2.419,-2.419,-2.419,-2.419,-2.419,-2.419,-2.419,-2.419,-2.419,-2.419,-2.419,-2.419,-2.419,-2.419,-2.419,-2.419,-2.4208,-2.43,-2.4337,-2.4355,-2.4447,-2.4905,-2.555,-2.555,-2.5988,-2.6612,-2.6612,-2.6667,-2.6741,-2.6741,-2.7291,-2.7934,-2.7934,-2.8448,-2.8994,-2.8994,-2.8994,-2.8994,-2.8994,-2.8994,-2.8994,-2.8994,-2.8994,-2.8994,-2.8994,-2.8994,-2.8994,-2.8994,-2.8994,-2.9272,-3.0114,-3.0228,-3.0286,-3.0398,-3.0398,-3.0398,-3.0398,-3.0398,-3.0398,-3.0398,-3.0398,-3.0398,-3.0398,-3.0398,-3.0398,-3.0398,-3.0398,-3.0398,-3.0398,-3.0398,-3.0398,-3.0398,-3.0398,-3.0398,-3.0398,-3.0398,-3.0398,0.0,0.0,0.0,0.0,0.0,0.0,-1.5911,0.0,-1.4824,0.0,0.0,0.0,0.0,0.0,0.0,0.0,0.0,0.0,0.0,0.0,0.0,0.0,0.0,0.0,0.0,0.0,0.0,0.0,-1.9709,-1.995,-2.1456,-2.2465,-2.3162,-2.3492,-2.3951,-2.419,-2.419,-2.419,-2.419,-2.419,-2.419,-2.419,-2.419,-2.419,-2.419,-2.419,-2.419,-2.419,-2.419,-2.419,-2.419,-2.419,-2.419,-2.419,-2.419,-2.419,-2.441,-2.4685,-2.4685,-2.4924,-2.5273,-2.575,-2.5897,-2.5988,-2.6465,-2.6851,-2.7163,-2.7475,-2.7824,-2.8205,-2.8828,-2.8994,-2.8994,-2.8994,-2.8994,-2.8994,-2.8994,-2.8994,-2.8994,-2.8994,-2.8994,-2.9163,-2.9713,-2.9815,-2.9962,-3.0343,-3.0398,-3.0398,-3.0398,-3.0398,-3.0398,-3.0398,-2.9912,-2.9588,-2.9588,-3.0099,-3.0398,-3.0398,-3.0398,-3.0398,-3.0398,-3.0398,-3.0398,-3.0398,-3.0398,-3.0398,-3.0398,-3.0398,-3.0398,-3.0398,-3.0398,-3.0398,-2.0038,0.0,0.0,0.0,0.0,0.0,0.0,0.0,0.0,0.0,0.0,0.0,0.0,0.0,0.0,0.0,0.0,0.0,0.0,0.0,0.0,0.0,0.0,0.0,0.0,0.0,0.0,0.0,0.0,-1.839,-2.0079,-2.1327,-2.2299,-2.2997,-2.3566,-2.3988,-2.419,-2.419,-2.419,-2.419,-2.419,-2.419,-2.419,-2.419,-2.419,-2.419,-2.419,-2.419,-2.419,-2.419,-2.419,-2.419,-2.419,-2.419,-2.419,-2.419,-2.419,-2.419,-2.419,-2.419,-2.43,-2.4869,-2.5072,-2.5162,-2.5768,-2.6098,-2.6374,-2.6833,-2.7181,-2.7658,-2.8718,-2.8994,-2.8994,-2.8994,-2.8994,-2.8994,-2.8994,-2.9206,-2.9314,-2.9044,-2.8994,-2.9228,-2.9896,-3.0022,-3.0022,-3.0022,-3.0022,-3.0022,-3.0022,-3.0022,-3.0022,-3.0022,-2.9643,-2.9377,-2.9377,-3.0007,-3.0398,-3.0398,-3.0398,-3.0398,-3.0398,-3.0398,-3.0398,-3.0398,-3.0398,-3.0398,-3.0398,-3.0398,-3.0398,-3.0398,-3.0398,-3.0398,0.0,0.0,0.0,-1.866,0.0,0.0,0.0,0.0,-1.6153,0.0,0.0,0.0,0.0,0.0,0.0,0.0,0.0,0.0,0.0,0.0,0.0,0.0,0.0,0.0,0.0,0.0,0.0,0.0,0.0,0.0,-1.9139,-1.9381,-2.0519,-2.2905,-2.3033,-2.3419,-2.419,-2.419,-2.419,-2.419,-2.419,-2.419,-2.419,-2.419,-2.419,-2.419,-2.419,-2.419,-2.419,-2.419,-2.419,-2.419,-2.419,-2.419,-2.419,-2.419,-2.419,-2.419,-2.419,-2.419,-2.419,-2.4226,-2.4245,-2.4245,-2.4263,-2.4814,-2.5513,-2.5768,-2.6612,-2.7658,-2.8718,-2.8994,-2.8994,-2.8994,-2.8994,-2.8994,-2.8994,-2.9713,-3.0099,-2.9163,-2.8994,-2.9017,-2.9044,-2.9044,-2.9044,-2.9044,-2.9044,-2.9044,-2.9044,-2.9044,-2.9044,-2.9044,-2.9832,-3.0355,-3.0355,-3.0367,-3.0398,-3.0398,-3.0398,-3.0398,-3.0398,-3.0398,-3.0398,-3.0398,-3.0398,-3.0398,-3.0398,-3.0398,-3.0398,-3.0398,-3.0398,-3.0398,0.0,0.0,-2.0947,-1.8894,0.0,0.0,0.0,0.0,0.0,0.0,0.0,0.0,0.0,0.0,0.0,0.0,0.0,0.0,0.0,0.0,0.0,0.0,0.0,0.0,0.0,0.0,0.0,0.0,-1.3611,0.0,0.0,-1.872,-2.0189,-2.2134,-2.2721,-2.34,-2.419,-2.419,-2.419,-2.419,-2.419,-2.419,-2.419,-2.419,-2.419,-2.419,-2.419,-2.419,-2.419,-2.419,-2.419,-2.419,-2.419,-2.419,-2.419,-2.419,-2.419,-2.419,-2.419,-2.419,-2.419,-2.419,-2.419,-2.419,-2.419,-2.4392,-2.4612,-2.4722,-2.4997,-2.5364,-2.5731,-2.5823,-2.5823,-2.5823,-2.7457,-2.8994,-2.8994,-2.9251,-2.9377,-2.9067,-2.8994,-2.8994,-2.8994,-2.8994,-2.8994,-2.8994,-2.8994,-2.8994,-2.8994,-2.8994,-2.9249,-2.9864,-3.0215,-3.0398,-3.0398,-3.0398,-3.0398,-3.0398,-3.0398,-3.0398,-3.0398,-3.0398,-3.0398,-3.0398,-3.0398,-3.0398,-3.0398,-3.0398,-3.0398,-3.0398,-3.0398,-3.0398,-2.1109,-2.127,0.0,-1.9342,-1.8773,0.0,-1.5819,0.0,0.0,0.0,0.0,0.0,0.0,0.0,0.0,0.0,0.0,0.0,0.0,0.0,0.0,0.0,0.0,0.0,0.0,0.0,-1.1382,-1.236,0.0,0.0,0.0,0.0,-1.9198,-2.0866,-2.1987,-2.296,-2.3768,-2.4061,-2.419,-2.419,-2.419,-2.419,-2.419,-2.419,-2.419,-2.419,-2.419,-2.419,-2.419,-2.419,-2.419,-2.419,-2.419,-2.419,-2.419,-2.419,-2.419,-2.419,-2.419,-2.419,-2.419,-2.419,-2.419,-2.419,-2.419,-2.419,-2.419,-2.419,-2.419,-2.419,-2.419,-2.419,-2.419,-2.419,-2.5786,-2.7291,-2.7291,-2.775,-2.8154,-2.8154,-2.859,-2.8994,-2.8994,-2.8994,-2.8994,-2.8994,-2.8994,-2.8994,-2.8994,-2.9293,-2.9731,-3.0343,-3.0398,-3.0398,-3.0398,-3.0398,-3.0398,-3.0398,-3.0398,-3.0398,-3.0398,-3.0398,-3.0398,-3.0398,-3.0398,-3.0398,-3.0398,-3.0398,-3.0398,-3.0398,-3.0398,-3.0398]}]]